GFSSW_925_spd_000.txt.gz
Wind_Speed
7 7 7 6 6 6 6 5 5 6 7 10 14 15 13 13 10 10 12 8 7 13 9 8 6 13 9 5 4 2 7 11 14 9 3 2 5 4 6 10 7 7 7 7 6
7 6 6 6 6 6 6 6 6 7 9 10 11 12 13 11 13 16 16 17 16 13 11 8 11 16 11 9 6 10 11 16 9 10 8 3 9 10 8 11 13 9 7 7 10
8 7 6 6 5 5 5 6 7 8 8 9 11 12 11 8 7 9 19 24 22 15 13 11 10 13 20 12 13 12 17 12 10 9 6 8 11 5 12 13 8 13 14 12 16
10 8 6 6 6 5 5 5 6 7 8 9 9 9 11 12 7 5 9 1 15 17 16 15 10 13 18 18 16 13 16 13 11 7 7 11 9 13 16 20 17 16 15 13 10
12 10 8 7 7 6 5 5 6 7 8 10 9 9 11 6 10 7 2 8 4 13 20 16 16 18 20 21 17 20 15 14 13 11 11 10 14 17 20 22 19 17 11 10 11
14 12 9 7 9 8 7 8 9 9 9 10 10 12 8 14 9 12 17 13 4 9 17 21 12 20 15 21 24 14 18 15 13 13 10 13 17 4 21 18 16 11 12 8 7
15 15 11 9 9 11 8 9 10 11 10 10 9 12 10 14 6 4 5 10 12 9 18 24 28 14 16 19 19 19 14 15 16 14 13 7 18 19 17 12 10 7 4 1 3
16 16 13 12 11 10 9 10 13 13 9 7 8 9 7 7 19 15 8 5 9 16 14 20 22 15 15 14 17 21 16 17 18 14 13 9 16 10 1 0 2 2 2 3 5
17 17 16 13 12 12 11 10 14 14 11 8 6 6 6 4 17 18 21 12 4 12 16 10 15 8 14 16 11 17 16 22 17 13 12 12 12 5 7 12 13 5 3 4 6
16 17 16 16 14 14 12 10 11 8 9 8 3 4 7 8 9 15 13 19 7 11 9 12 9 12 12 12 20 13 19 11 17 11 11 11 16 14 9 9 6 6 5 6 7
16 17 16 16 16 16 11 5 5 4 11 9 9 5 2 15 6 10 10 16 8 10 12 18 13 22 32 18 17 18 19 15 13 6 5 13 15 14 15 9 8 7 8 8 8
16 17 15 16 17 14 13 5 5 4 4 14 5 19 3 8 6 11 13 15 12 16 16 15 23 24 14 20 17 19 16 16 12 6 6 13 16 16 14 10 8 10 12 12 10
14 15 13 13 12 14 18 11 11 12 2 7 17 14 8 14 6 12 17 20 13 16 17 22 17 20 18 21 23 17 17 15 9 5 7 9 18 11 5 4 4 9 11 12 12
13 12 11 9 8 12 8 18 21 16 2 6 9 10 14 7 9 18 23 17 9 20 17 19 22 22 15 20 22 18 11 9 8 1 5 3 5 8 8 5 8 13 13 12 13
11 12 11 14 2 2 10 20 20 6 4 10 9 7 10 16 5 17 23 17 14 11 6 14 13 18 22 24 26 11 12 9 3 5 6 9 6 4 3 7 11 14 14 13 12
10 11 9 9 9 7 18 20 8 2 7 8 7 12 15 18 10 10 10 12 5 9 16 13 5 19 14 24 19 16 14 9 4 2 7 10 9 5 4 2 12 15 15 14 13
10 11 13 10 4 19 30 8 3 5 3 6 5 8 16 12 18 10 17 21 7 7 7 9 15 3 15 16 3 16 15 3 6 5 6 3 6 10 4 4 11 19 18 16 15
10 10 13 18 13 20 15 3 7 4 6 4 7 15 10 15 13 12 15 18 18 13 11 7 5 12 12 20 9 16 15 4 5 6 5 4 6 2 5 2 7 16 18 17 16
7 6 7 16 17 29 5 4 4 4 8 7 14 10 9 17 8 14 16 19 13 18 4 9 3 10 13 5 11 4 6 1 3 2 3 5 4 6 3 4 7 14 18 18 16
6 4 7 14 25 15 2 4 4 6 6 18 8 11 12 18 7 15 16 16 11 17 8 11 3 8 9 8 4 10 11 5 2 5 5 4 3 2 4 1 7 15 20 18 16
5 2 5 18 24 4 3 5 5 11 14 16 8 10 11 16 7 17 16 8 20 15 14 5 6 3 13 7 13 12 7 5 3 3 3 3 4 3 3 3 5 13 18 18 17
5 3 15 30 5 3 4 5 4 7 21 14 10 7 13 15 9 8 16 7 22 11 9 8 3 7 4 3 8 11 11 12 7 5 2 3 2 4 2 4 4 10 16 16 16
3 2 18 18 4 8 5 7 7 13 19 14 10 8 6 13 8 16 13 16 19 15 10 11 7 8 5 1 3 6 10 16 9 1 10 8 3 2 3 3 3 10 15 15 15
3 3 3 4 3 3 8 7 7 17 17 11 8 9 15 11 12 15 14 8 17 22 20 2 5 12 12 9 12 14 18 17 17 10 8 11 8 6 5 5 6 10 14 14 13
3 5 4 6 9 14 6 7 12 10 8 2 6 11 14 9 10 9 13 6 16 19 18 5 4 9 2 4 16 18 19 19 20 19 12 14 18 17 10 9 10 10 12 13 12
3 3 3 3 8 13 13 12 15 3 8 4 3 14 16 11 13 14 13 11 10 16 20 11 3 3 3 4 10 13 19 22 23 20 22 18 18 3 4 8 11 11 10 11 11
5 2 2 3 4 6 5 10 17 16 6 5 12 13 17 11 14 15 15 12 9 16 21 12 5 4 3 4 5 8 17 19 18 20 21 18 19 10 8 10 12 10 9 8 8

GFSSW_925_spd_003.txt.gz
Wind_Speed
10 8 7 8 8 7 5 5 5 5 6 10 12 15 14 11 9 9 12 6 4 7 8 10 12 17 17 13 11 9 11 14 19 16 11 4 9 6 6 13 11 11 10 4 6
10 9 7 8 8 8 6 5 5 5 7 9 9 12 13 10 13 18 16 14 14 10 10 11 10 16 16 16 12 13 13 21 16 13 11 11 8 10 10 13 13 12 11 8 7
11 11 9 8 8 8 6 6 5 5 5 7 9 9 10 8 12 10 19 22 22 14 13 13 13 16 21 18 22 18 20 17 18 11 13 13 12 15 11 15 14 10 11 12 12
12 12 10 9 9 9 6 6 5 4 5 6 7 8 10 11 9 4 3 3 14 17 16 15 14 14 20 26 23 23 21 22 19 12 11 14 14 16 16 17 16 15 17 16 12
13 13 11 9 10 11 8 5 4 5 4 5 7 8 9 9 16 7 3 6 2 12 20 16 18 16 21 22 22 24 24 20 20 15 13 14 17 17 20 19 18 17 13 15 13
14 14 12 10 11 13 11 9 7 5 5 6 8 10 11 15 14 18 13 12 8 6 14 18 13 17 15 21 22 13 25 23 17 20 18 15 18 17 18 18 16 13 14 12 11
15 14 14 12 12 13 13 11 10 6 5 5 6 10 14 14 7 11 14 17 16 15 11 17 20 15 12 18 21 23 17 21 23 18 19 14 20 21 19 19 12 12 9 4 6
15 15 15 14 13 14 12 11 10 8 6 5 6 10 9 12 22 13 7 5 9 16 18 16 18 19 19 12 11 23 19 16 20 23 20 13 19 14 4 6 5 3 2 3 2
16 15 14 14 13 15 12 11 10 10 7 6 6 10 8 6 17 23 22 16 8 9 17 16 15 17 14 11 8 15 17 25 20 22 19 19 15 18 8 9 11 12 6 3 4
18 16 15 15 13 13 11 8 8 6 7 5 5 5 11 9 11 17 19 19 18 12 12 16 9 13 15 15 15 19 24 19 24 19 15 18 20 18 14 8 10 9 5 6 5
18 16 14 14 13 15 10 4 1 2 10 10 9 11 3 15 6 8 15 15 16 16 18 20 12 19 27 22 22 21 20 24 17 21 19 17 19 18 16 13 10 8 8 8 8
18 16 15 12 13 15 11 5 6 1 4 19 15 16 8 6 6 12 17 13 17 21 19 18 19 27 29 22 26 19 20 26 11 16 10 14 18 18 14 17 13 13 11 11 11
15 14 13 11 10 15 16 14 9 6 4 6 19 19 17 7 11 13 17 20 19 22 22 24 23 26 25 23 24 28 23 21 14 13 11 11 17 19 21 10 7 11 12 13 13
14 13 11 9 5 15 15 16 17 11 3 6 8 7 13 7 9 26 25 17 12 21 23 20 21 22 29 22 22 26 20 16 12 12 9 14 5 12 14 13 10 13 14 14 14
13 13 13 17 4 3 6 13 19 5 6 11 9 10 11 13 6 19 25 20 20 18 7 13 12 20 24 25 18 17 27 17 15 9 3 13 6 16 14 15 11 15 16 15 14
13 13 13 11 11 4 13 22 7 2 7 8 6 12 12 18 17 6 22 17 14 13 18 21 7 20 18 20 18 3 12 10 11 6 7 13 12 9 12 14 16 15 17 17 16
17 15 17 12 8 19 27 6 3 6 3 5 4 9 18 16 21 13 16 19 11 6 9 12 21 11 9 12 20 18 16 6 6 7 7 6 10 13 8 5 8 17 19 19 17
15 17 17 16 11 23 14 2 8 3 6 4 4 6 9 12 21 16 9 14 23 10 8 10 8 13 10 14 9 19 20 8 9 10 12 7 7 4 7 2 10 17 19 19 17
13 18 9 21 17 27 3 5 5 3 5 6 8 5 5 14 10 17 14 13 20 18 3 7 8 4 15 13 13 10 21 2 6 7 9 8 9 8 6 7 9 16 20 20 18
13 8 9 16 25 20 3 9 6 5 6 9 8 11 11 18 13 15 12 14 19 16 16 5 5 6 10 13 3 7 10 5 2 7 6 7 7 6 10 8 11 15 20 19 18
8 3 6 19 23 4 6 7 6 8 11 14 13 12 13 17 16 18 9 6 20 15 17 8 4 5 4 7 11 3 7 5 4 2 3 6 5 11 6 4 9 13 19 20 19
5 3 18 28 6 3 7 5 4 8 16 15 7 11 11 17 16 16 15 10 18 12 8 9 5 2 4 3 20 14 10 14 6 5 4 5 5 7 7 6 5 11 16 18 18
3 3 19 18 4 7 8 6 7 6 13 12 11 10 11 14 12 12 11 15 12 19 9 13 5 4 4 9 4 6 10 15 12 3 11 7 5 6 7 8 5 9 15 17 17
2 4 3 5 5 4 8 5 6 13 16 15 9 10 10 14 15 15 9 11 10 19 17 3 8 3 5 7 11 12 15 14 13 9 9 10 6 11 7 7 7 10 13 16 16
3 5 5 5 8 14 6 4 8 6 16 18 7 16 16 13 17 5 15 11 12 13 11 3 5 7 2 3 13 11 16 16 17 16 10 11 14 10 7 9 8 11 14 16 16
3 4 4 3 9 15 16 10 13 11 11 9 11 18 17 11 14 11 16 12 9 14 14 9 4 3 3 2 7 12 16 19 21 20 18 16 13 5 7 4 7 10 14 15 15
4 2 3 5 9 9 7 12 15 18 8 12 12 6 15 15 10 6 14 13 5 12 14 7 5 3 3 6 5 9 17 18 18 20 19 18 18 6 7 7 8 9 10 11 11

GFSSW_925_spd_006.txt.gz
Wind_Speed
8 8 9 10 11 11 9 9 8 6 4 7 11 11 12 9 9 9 12 9 3 5 8 10 11 12 16 13 14 6 6 11 15 14 14 7 4 7 3 3 7 8 8 4 12
9 9 9 9 9 9 8 8 8 8 6 6 5 8 9 9 9 17 17 13 11 11 7 10 11 12 12 13 9 12 8 15 11 13 11 8 5 5 6 7 8 7 9 11 6
10 9 9 10 9 9 8 7 7 8 7 6 6 6 7 6 4 10 18 25 21 12 11 13 15 13 13 16 16 17 18 12 16 17 14 8 8 6 6 9 8 8 7 7 3
11 10 9 9 10 8 8 7 7 7 6 5 4 6 7 8 6 5 2 3 11 14 15 15 12 12 9 16 19 20 21 18 18 18 5 5 6 12 10 9 8 10 8 8 9
12 11 10 9 10 9 8 7 6 7 7 6 5 6 7 8 12 3 5 5 1 9 17 14 14 12 16 10 16 23 18 21 18 17 18 7 9 14 14 10 11 11 11 11 8
13 13 12 11 10 9 9 7 7 8 8 7 7 7 7 14 12 16 8 7 5 5 15 17 13 13 16 17 18 10 20 20 19 18 14 15 10 10 11 10 11 13 9 6 8
14 13 14 13 11 10 8 8 8 9 9 7 7 8 11 14 6 10 14 16 12 12 10 12 18 13 7 15 13 18 16 16 22 20 16 15 19 17 13 13 14 11 8 2 6
15 14 14 15 13 12 10 7 8 8 10 8 6 10 7 13 24 11 7 9 12 14 16 17 16 9 16 7 10 7 11 14 19 16 19 11 15 11 15 17 13 8 4 7 6
15 15 13 15 14 12 10 7 7 8 10 7 5 9 7 6 18 19 18 14 11 10 8 15 14 10 9 11 7 10 13 22 15 18 16 15 17 11 19 9 8 7 8 9 8
15 16 15 13 14 12 8 6 5 6 7 6 10 3 8 10 10 16 20 22 14 12 9 8 6 10 11 12 17 12 12 13 18 17 18 22 15 13 13 10 10 7 7 9 9
15 13 14 13 13 12 7 1 1 1 8 10 8 10 2 11 2 10 15 15 14 12 14 12 8 18 21 21 18 18 19 16 16 16 18 18 18 15 14 11 9 8 6 9 9
14 12 13 12 12 12 10 3 3 3 6 16 17 19 23 7 8 12 14 12 15 16 15 14 19 25 17 18 18 20 20 19 16 17 21 19 18 14 12 15 11 9 9 11 9
13 13 12 11 10 10 13 10 5 2 5 6 18 17 15 11 13 12 16 16 14 18 19 19 23 16 19 18 20 21 23 19 17 18 8 8 11 12 13 15 9 10 10 15 11
13 13 11 11 5 12 14 15 12 3 4 5 6 6 14 6 7 18 15 15 12 20 17 15 20 20 19 22 20 21 23 20 18 20 7 10 4 18 22 15 8 8 8 14 12
15 16 15 19 6 7 5 9 7 4 5 8 6 5 6 10 4 10 29 16 18 17 11 10 14 20 23 23 20 22 13 17 22 11 4 10 5 8 14 19 8 10 10 12 11
17 17 17 13 9 7 11 14 7 2 8 5 6 8 8 10 7 8 18 16 13 17 17 15 12 15 15 20 20 21 13 14 17 8 7 12 11 6 9 15 14 9 12 14 12
21 20 24 15 8 18 17 5 2 6 2 5 4 7 13 11 11 8 18 20 9 7 10 6 19 10 3 5 20 20 11 9 7 7 4 15 9 3 6 10 16 15 15 14 11
23 24 23 16 15 26 15 2 6 6 6 3 4 8 8 7 7 15 9 16 18 12 2 10 9 17 12 8 11 21 16 3 4 3 5 14 7 3 7 9 15 15 16 15 13
22 27 13 19 25 29 5 5 5 4 4 5 5 6 5 5 6 14 14 7 11 18 8 5 8 10 12 14 10 5 11 19 6 8 4 4 4 6 8 7 10 14 16 16 14
15 14 8 22 33 20 4 11 6 6 7 5 9 11 8 11 8 12 12 7 16 17 12 2 5 6 8 10 16 9 11 12 7 6 6 6 9 6 9 8 9 15 16 15 13
12 3 11 28 27 5 7 7 7 12 7 8 11 10 11 9 14 12 9 12 13 15 14 6 6 3 2 10 16 7 6 9 3 2 6 5 1 10 9 12 9 13 16 16 15
6 3 19 34 6 3 7 5 3 9 15 10 13 19 12 12 15 10 13 7 14 14 10 11 4 3 8 3 12 5 10 17 2 2 2 5 2 8 9 8 10 9 16 16 14
6 3 19 18 5 6 6 6 6 3 8 8 8 11 7 7 7 14 14 11 13 11 16 11 5 1 5 8 4 6 5 3 5 3 3 3 4 7 8 8 6 9 12 14 14
4 5 3 4 3 6 10 7 6 13 18 15 14 16 7 8 11 1 10 6 9 15 12 3 4 7 4 6 10 5 4 5 5 1 2 3 6 7 8 9 7 8 10 12 13
3 4 5 5 8 10 5 4 7 5 13 14 8 11 9 7 7 11 12 6 6 10 11 5 5 9 6 18 15 12 11 8 5 4 2 2 8 9 11 11 9 8 9 13 12
4 3 4 2 10 16 15 7 9 6 4 6 12 9 17 10 8 11 10 7 6 6 8 6 5 10 8 6 10 9 12 12 9 5 6 6 5 9 8 9 9 9 8 12 12
4 2 2 3 7 7 6 9 10 12 9 17 12 14 11 13 6 10 10 11 7 6 8 5 3 6 4 3 6 3 8 11 8 8 7 8 7 6 6 7 8 8 10 9 9

GFSSW_925_spd_009.txt.gz
Wind_Speed
6 5 5 6 5 7 7 7 8 7 6 6 6 10 12 11 9 7 6 7 1 4 5 8 9 11 7 5 4 2 2 8 8 9 11 9 4 2 3 4 0 4 3 6 19
7 6 6 6 6 6 6 7 7 8 6 5 5 5 6 8 7 12 18 15 12 9 7 5 6 9 3 3 4 6 5 7 4 9 9 11 4 4 3 0 3 4 7 9 18
8 8 7 6 5 5 5 5 6 6 6 5 5 5 4 5 3 8 19 23 18 9 8 7 11 5 3 6 5 4 11 5 5 13 12 10 5 3 1 3 4 6 7 1 7
9 8 8 7 6 5 4 4 4 4 5 4 3 4 4 7 7 5 2 4 13 17 14 5 5 2 3 4 8 12 12 13 12 17 13 8 6 5 5 7 5 8 7 5 7
10 9 9 8 7 6 6 5 4 3 3 4 3 3 4 5 6 2 8 8 6 9 13 9 5 3 5 4 5 12 14 15 17 18 19 11 11 9 6 8 7 11 10 11 9
12 11 10 9 8 7 6 6 5 5 4 4 3 2 2 11 9 15 9 5 4 8 13 12 6 7 7 6 11 8 10 17 20 16 14 19 9 5 8 8 9 12 12 10 9
14 12 11 11 9 8 6 6 6 6 5 5 3 4 5 12 8 6 23 15 10 6 2 11 19 8 4 4 4 8 13 15 18 19 14 11 18 15 9 7 11 12 11 7 6
13 14 13 11 12 9 8 7 5 6 6 5 3 4 6 6 19 23 6 7 8 10 12 16 10 4 3 4 6 4 6 13 9 9 8 11 21 13 12 9 13 13 10 9 6
14 14 14 10 11 9 7 7 6 6 6 5 4 4 7 4 15 20 18 7 7 10 13 14 8 5 4 4 4 3 10 7 7 7 6 15 21 10 10 9 10 9 9 7 7
17 15 14 12 10 9 7 6 4 3 5 6 6 2 6 4 7 18 14 16 7 3 3 4 4 5 3 4 13 11 6 13 9 5 11 16 16 9 11 13 11 10 7 9 8
18 16 15 14 11 10 9 3 2 1 6 8 8 4 2 7 4 10 16 10 7 3 5 6 7 12 12 12 10 9 15 14 12 10 12 20 17 17 14 9 8 9 7 9 9
17 16 15 15 12 12 11 4 2 4 4 14 16 14 18 2 4 6 11 9 10 14 5 6 18 11 11 13 12 15 15 21 15 16 9 13 21 18 14 16 9 11 8 13 9
17 17 17 14 13 13 16 8 5 3 3 6 12 10 13 12 12 8 11 9 8 10 11 16 3 14 13 14 14 17 18 18 16 14 14 7 16 21 11 15 10 8 15 14 18
17 17 18 16 9 12 8 17 8 2 3 4 3 4 6 6 5 19 23 11 7 16 13 13 14 16 11 18 14 18 15 14 17 11 11 4 8 20 19 13 11 10 16 13 13
19 20 22 23 8 11 8 15 14 4 4 6 5 2 1 7 7 8 22 14 17 11 10 8 7 14 18 23 13 16 11 13 13 15 15 18 7 12 14 17 14 9 18 16 17
23 23 23 21 4 12 18 20 8 3 7 6 5 5 3 7 4 2 4 12 3 13 13 15 3 3 13 12 15 3 5 11 9 9 13 15 9 6 13 20 26 8 16 17 15
26 27 29 20 9 23 26 7 3 4 1 5 4 6 9 8 8 7 4 13 5 6 6 5 12 3 2 3 5 4 4 4 7 6 11 8 9 16 8 13 20 18 19 17 17
32 31 29 18 21 28 14 3 6 4 5 3 3 6 6 6 8 10 2 8 15 5 2 6 5 13 9 13 7 10 14 6 7 7 6 6 6 9 15 12 14 21 23 19 17
32 31 24 19 33 32 4 3 6 5 3 5 3 4 4 6 7 7 10 6 8 15 7 5 8 2 12 12 14 7 12 21 5 5 3 5 6 11 6 9 14 18 19 19 17
22 20 20 28 38 19 2 5 5 2 6 4 8 9 7 6 8 8 9 9 8 16 15 3 6 5 13 12 13 11 11 11 5 5 7 5 11 8 7 14 16 18 19 17 16
17 6 22 35 23 5 3 7 5 6 8 6 6 4 7 6 8 6 7 6 15 12 19 7 6 4 3 12 16 11 8 7 4 9 2 5 5 7 12 15 19 19 18 19 18
4 5 30 39 6 3 4 5 3 4 5 13 8 9 7 10 7 5 12 6 8 7 14 10 3 6 16 10 16 16 14 11 8 8 9 3 3 1 10 13 16 18 18 16 16
6 3 25 26 6 4 4 7 7 7 8 6 8 12 9 9 4 10 8 10 14 8 10 8 4 4 5 6 5 20 14 9 8 5 13 5 4 3 7 8 10 14 14 14 15
3 4 4 4 0 9 8 8 7 7 14 10 4 7 10 9 11 5 12 5 17 17 18 11 5 7 3 3 7 9 18 16 12 7 3 3 8 3 6 9 9 13 16 17 18
2 2 5 6 7 5 11 4 7 5 10 6 6 15 7 5 5 6 5 3 11 20 9 6 6 5 16 16 11 12 15 16 19 18 7 8 8 8 10 10 9 12 14 16 16
4 3 3 5 10 14 8 7 8 6 6 3 7 8 10 6 6 5 7 4 5 10 8 8 5 10 2 11 13 14 21 17 7 1 7 6 5 2 6 6 6 12 17 17 17
3 2 3 6 8 8 8 13 13 10 8 12 11 5 11 10 9 4 5 5 6 8 8 6 3 5 4 8 10 0 9 5 3 1 4 4 3 5 5 6 7 9 12 14 13

GFSSW_925_spd_012.txt.gz
Wind_Speed
10 8 7 7 7 6 5 5 4 4 3 2 4 8 10 10 8 9 6 7 3 4 2 6 5 7 2 2 2 2 2 6 9 8 10 3 3 5 6 4 3 3 6 6 10
10 9 8 8 7 6 5 4 2 3 3 3 2 1 7 5 9 12 19 10 10 8 5 2 3 9 3 3 3 4 6 10 7 10 7 5 5 4 4 4 2 1 1 6 17
12 10 9 8 8 5 4 3 2 2 3 2 2 1 1 4 3 7 19 26 19 11 4 1 2 1 2 3 4 5 10 6 5 11 8 7 3 5 6 5 6 4 1 2 8
13 12 11 9 8 6 4 3 1 2 2 1 1 1 5 7 6 1 3 3 19 18 10 3 1 3 3 5 4 7 7 10 4 6 5 4 4 6 5 7 5 6 5 5 8
14 13 12 11 9 7 5 4 2 1 2 1 2 2 5 3 6 0 5 5 7 17 17 6 5 4 5 4 4 6 5 9 10 11 14 15 14 9 10 10 8 8 7 8 8
16 14 13 12 11 9 6 4 4 3 2 1 1 4 2 5 7 14 7 3 5 8 10 11 6 7 4 6 6 5 7 8 9 14 10 16 19 6 13 9 9 9 10 9 9
17 15 16 13 13 11 8 5 5 5 4 2 2 4 2 11 6 5 5 16 11 8 3 16 17 2 1 4 4 5 9 9 8 5 6 10 24 22 9 9 9 9 10 9 9
19 17 17 15 13 13 9 7 5 7 6 5 3 4 6 6 10 19 11 6 13 11 10 9 8 4 3 4 6 3 3 4 4 8 5 8 28 9 9 10 11 11 11 9 8
20 19 17 15 14 14 11 8 6 5 6 6 5 3 7 4 6 18 13 6 4 5 12 11 3 4 1 3 4 4 6 6 5 6 4 12 26 14 10 8 11 11 10 8 7
22 21 19 16 14 13 11 8 5 3 6 7 2 1 5 4 6 4 13 11 4 2 3 1 2 2 3 5 15 12 7 6 6 4 8 18 23 10 8 12 12 13 9 8 9
23 21 21 19 17 14 14 6 2 1 6 7 7 3 2 4 5 4 13 6 2 2 5 2 4 13 11 14 8 6 8 11 4 6 11 14 19 17 14 11 10 13 8 8 9
23 22 22 20 19 17 16 4 4 3 3 12 11 11 11 6 1 3 12 6 8 12 4 4 12 11 8 10 10 14 16 14 9 10 12 11 16 16 17 17 15 15 8 9 5
25 23 24 20 19 18 19 9 8 2 1 4 5 5 7 12 7 7 12 6 6 16 16 17 7 17 13 13 11 16 16 10 12 12 18 14 22 16 15 15 16 11 8 10 17
26 23 23 22 14 15 9 14 9 2 2 4 3 2 4 6 5 18 20 8 5 15 13 14 16 14 11 15 12 17 7 13 13 8 8 2 11 9 9 16 15 15 10 14 10
25 26 29 30 12 12 9 20 13 2 2 4 4 0 3 7 4 3 15 13 13 9 7 8 7 16 20 17 13 8 8 10 10 9 7 18 8 8 11 12 18 20 14 16 16
21 30 32 23 12 13 17 23 9 4 6 6 4 6 5 5 3 3 3 10 2 15 16 10 2 5 7 11 17 2 6 5 5 4 10 17 11 12 12 15 10 9 13 15 16
21 36 38 27 11 25 31 9 3 4 2 6 4 5 5 7 6 8 8 7 6 6 8 4 16 5 2 3 5 11 6 3 4 6 9 9 12 18 8 15 17 16 13 15 17
26 39 36 23 29 36 18 3 3 5 5 3 4 7 7 7 7 8 4 8 14 6 2 7 4 15 10 17 6 14 15 4 6 3 6 6 9 6 15 22 15 12 16 19 17
31 37 27 23 38 34 8 3 7 5 6 9 6 6 6 8 4 3 9 8 10 15 8 6 5 2 4 6 15 5 11 19 6 6 4 6 4 7 12 9 7 9 19 22 21
23 22 21 33 43 17 6 5 5 2 6 4 8 8 7 7 8 7 7 7 6 18 12 5 3 7 5 6 11 10 7 6 7 5 6 5 5 7 8 14 7 13 19 19 17
19 7 21 37 28 7 5 5 3 4 6 7 7 6 7 6 7 6 6 5 13 11 19 5 3 2 2 7 12 11 13 6 8 7 3 5 6 8 14 10 12 14 18 19 19
4 3 34 38 6 4 4 5 6 5 6 4 4 8 8 9 7 6 9 7 12 8 10 11 5 7 16 5 13 17 18 17 8 8 9 1 7 5 15 10 17 16 16 15 15
7 3 29 27 5 8 4 7 4 6 9 6 9 10 12 6 3 9 7 9 7 7 8 9 5 4 4 6 11 13 20 17 11 3 10 2 7 11 4 10 10 14 12 13 14
3 4 4 6 1 7 12 7 6 5 11 7 5 13 6 7 8 4 7 7 16 11 14 12 5 7 9 1 3 10 24 20 20 11 8 14 12 21 4 10 9 10 14 16 16
3 2 5 7 7 10 11 5 12 8 7 10 4 12 7 4 6 9 13 2 7 15 12 8 6 10 20 24 15 13 21 23 16 8 13 4 16 30 14 12 13 11 12 14 14
4 3 2 7 11 8 13 10 11 8 6 5 8 10 15 12 5 3 5 5 5 11 11 5 4 5 6 18 16 16 21 18 14 8 6 10 16 19 3 7 8 13 15 15 16
2 2 4 10 10 8 5 9 11 8 10 11 11 10 5 14 11 7 8 5 9 11 11 6 3 3 4 9 9 8 20 17 6 10 14 14 20 4 4 6 7 10 15 17 16

GFSSW_925_spd_015.txt.gz
Wind_Speed
13 11 11 12 12 12 10 8 8 7 7 5 5 6 11 11 10 9 7 7 4 10 3 7 4 6 1 1 2 3 1 7 8 8 8 1 1 2 2 2 4 2 6 3 5
14 12 12 12 12 11 11 8 7 7 6 4 3 4 8 8 12 14 20 11 13 5 3 2 3 6 1 2 2 4 5 7 4 4 5 1 4 5 4 7 4 3 3 3 13
15 13 12 13 13 12 11 8 6 5 4 2 3 4 4 5 1 7 18 24 17 9 6 2 2 2 1 2 3 4 10 7 3 5 6 4 4 3 4 6 8 6 3 1 5
18 15 13 14 14 12 11 8 6 4 3 2 3 5 7 5 5 1 2 7 20 18 8 4 3 0 2 4 3 5 4 6 3 3 4 4 3 4 4 6 6 7 3 2 7
19 18 15 15 14 13 11 10 7 4 3 3 4 4 5 2 7 0 2 2 9 21 12 5 3 2 3 3 3 5 3 5 7 8 8 10 14 9 10 9 10 10 7 9 8
20 19 17 16 15 14 12 10 8 6 4 3 3 4 2 3 6 13 3 3 7 14 9 9 4 5 4 4 3 3 4 6 5 8 7 12 16 8 5 7 10 9 11 10 9
21 20 19 18 15 15 13 10 8 7 5 4 3 3 1 11 4 5 6 9 2 6 4 12 11 1 1 3 3 4 6 6 6 4 6 3 21 23 11 8 10 11 10 11 10
23 23 21 19 17 15 14 11 8 8 6 5 2 4 6 5 6 17 9 5 10 8 5 2 10 4 4 6 3 3 2 2 3 10 7 9 23 4 13 16 16 12 10 11 10
26 25 23 22 17 15 15 12 7 5 5 6 3 1 7 4 4 12 12 5 7 9 7 4 4 3 2 3 6 5 7 4 5 6 5 12 13 6 10 10 12 10 10 11 9
27 26 26 23 18 16 14 11 7 3 6 6 1 2 5 3 4 3 11 11 2 4 2 4 4 4 3 6 9 4 4 3 5 4 3 13 19 11 9 9 13 12 14 10 9
24 27 27 25 21 18 16 10 3 2 6 7 6 3 2 2 4 3 7 10 4 4 5 1 5 9 12 10 7 5 5 5 4 7 6 8 15 14 10 11 15 11 11 11 9
27 27 28 25 23 22 24 5 4 3 3 14 7 12 7 4 0 3 13 6 5 6 5 1 11 7 5 6 9 11 13 16 7 9 9 12 21 15 12 16 13 15 15 14 5
28 27 28 28 26 25 24 14 6 2 1 5 6 7 5 6 6 5 10 5 5 8 7 12 4 9 10 10 10 10 12 10 13 9 13 12 29 21 18 17 17 17 16 15 12
27 27 28 30 24 22 12 17 7 2 3 5 5 4 5 5 5 17 17 5 5 11 11 12 15 15 10 13 10 19 9 13 12 5 6 5 12 8 6 16 19 17 15 12 10
31 27 24 40 23 12 13 22 12 4 2 3 3 1 4 8 3 0 14 8 12 9 6 6 5 13 19 15 12 10 7 10 10 7 7 15 8 6 11 18 14 10 12 12 12
22 22 21 27 22 19 27 28 9 5 6 6 4 6 5 4 1 3 4 6 2 8 14 10 4 6 7 11 16 1 9 7 7 8 14 11 12 16 12 12 8 9 12 11 11
15 23 20 34 11 35 38 13 4 4 1 6 6 6 5 6 5 6 5 10 5 6 8 4 15 3 3 5 9 12 5 3 4 7 8 8 11 24 6 7 12 13 13 10 12
16 15 20 28 29 43 27 4 4 4 5 2 5 5 5 8 5 9 6 10 13 6 2 8 6 14 8 8 6 16 15 5 6 4 4 12 10 9 15 24 20 18 7 8 14
8 5 18 22 41 37 12 3 8 6 6 10 7 5 7 7 4 7 11 11 8 16 9 3 5 3 7 15 6 5 11 19 8 8 4 5 7 6 9 11 11 10 9 13 14
2 2 11 40 46 25 7 5 4 3 6 6 7 9 7 8 9 8 6 4 7 11 10 5 4 6 8 5 10 17 7 4 6 5 7 7 6 8 5 15 14 12 11 13 14
6 1 11 38 31 9 5 5 4 4 6 6 6 7 7 5 8 7 5 5 9 9 16 6 5 2 3 11 14 7 13 7 4 5 4 4 8 4 8 12 10 10 9 14 16
4 2 27 40 7 4 5 6 5 5 3 2 2 8 8 8 7 6 9 7 10 10 11 11 4 6 14 3 14 13 14 17 4 5 7 5 10 2 9 15 7 7 11 12 13
4 3 26 24 5 6 5 3 4 4 6 5 7 9 10 8 4 8 5 7 12 13 12 9 4 5 3 6 12 8 11 17 16 3 9 7 12 3 9 12 8 8 10 12 13
3 2 4 6 1 11 7 6 6 4 5 9 4 9 7 7 7 3 5 4 12 11 13 11 5 8 9 3 3 7 16 21 19 10 14 17 20 18 20 9 7 3 11 13 14
2 4 4 7 4 12 8 7 10 6 7 8 5 9 6 6 6 9 8 10 3 9 9 8 7 10 17 18 14 6 15 22 24 24 15 17 15 14 17 19 2 5 7 13 13
3 3 3 8 8 12 13 8 12 11 7 6 9 7 14 8 7 4 4 4 4 5 9 4 4 3 15 23 26 15 17 19 23 20 22 17 20 13 18 8 6 9 11 12 13
7 4 2 12 13 9 8 8 13 7 9 10 10 11 10 13 17 19 8 9 6 9 10 5 3 3 5 3 7 6 21 23 22 18 17 16 12 10 13 8 4 9 12 14 14

GFSSW_925_spd_018.txt.gz
Wind_Speed
16 13 13 12 12 11 10 9 9 10 11 9 9 6 7 11 9 9 6 9 4 12 3 3 2 3 2 2 1 3 2 5 6 7 5 1 1 3 4 3 5 3 2 4 1
19 16 15 13 11 12 11 9 8 8 10 9 6 6 7 7 11 14 20 11 7 3 1 2 2 4 2 2 1 3 3 6 5 5 4 3 3 4 4 5 5 4 3 5 6
18 18 16 15 13 12 12 9 7 7 8 8 6 5 3 4 3 6 17 20 15 11 5 2 3 2 1 1 3 3 6 3 3 3 4 4 4 2 3 5 7 5 7 6 3
19 20 18 15 13 12 12 9 7 5 6 7 5 4 4 5 6 1 3 4 18 15 8 5 2 4 3 4 3 2 5 4 2 3 4 3 5 6 4 8 5 6 4 6 5
22 20 21 18 14 12 13 10 8 5 5 5 5 3 4 4 7 2 1 1 10 22 13 7 3 4 4 3 0 4 3 4 5 7 6 7 11 10 10 10 10 12 6 9 9
24 23 22 20 15 14 14 11 9 7 6 4 4 4 1 3 5 11 3 4 8 17 12 8 5 4 2 3 3 2 2 5 6 5 5 8 12 5 10 5 9 9 10 10 9
23 25 23 22 17 15 14 12 10 8 7 4 3 3 2 10 1 3 6 3 6 10 4 7 7 3 2 3 2 3 4 6 6 6 7 5 15 17 14 11 15 12 9 11 11
29 20 24 24 20 16 14 13 10 7 8 6 4 4 6 4 5 11 3 2 5 5 3 5 8 4 2 3 3 3 2 3 5 4 6 10 20 3 6 13 17 17 11 11 14
29 26 23 23 24 18 15 13 10 6 7 7 4 3 7 3 4 8 9 3 4 6 2 3 6 3 3 2 3 5 5 5 6 2 4 11 4 2 3 6 8 9 9 9 11
30 26 21 23 25 20 17 13 8 7 5 5 1 2 4 2 3 4 10 10 3 5 3 3 3 3 3 4 6 4 4 4 5 3 5 9 15 13 10 11 13 9 9 9 9
28 27 24 21 24 24 20 12 4 0 6 6 5 2 1 1 3 3 6 9 4 4 5 2 4 8 10 8 6 2 3 7 4 8 9 14 19 17 10 10 13 15 14 11 10
26 28 27 22 22 29 31 8 6 5 3 13 6 7 3 4 2 2 12 5 4 5 4 1 10 7 3 5 7 8 10 13 9 10 11 13 25 18 15 16 17 12 15 10 10
29 26 24 20 21 34 29 17 16 6 1 4 8 7 3 5 3 5 8 4 4 6 7 11 3 7 9 5 5 6 10 7 11 7 12 13 28 19 22 25 21 21 20 18 14
35 25 21 20 17 32 17 17 15 8 4 4 5 5 5 4 5 10 16 6 3 10 11 9 11 9 5 5 8 14 7 12 11 5 6 4 11 9 8 11 14 19 15 16 13
29 23 19 19 7 20 23 27 14 6 2 3 4 1 7 11 4 2 10 4 8 8 6 5 5 6 15 18 7 6 6 9 10 7 8 10 6 5 4 8 9 10 11 15 15
27 19 15 18 21 29 37 32 15 5 6 6 3 5 8 6 2 3 7 3 2 9 12 12 4 4 5 6 12 1 6 6 5 8 10 12 10 17 7 11 9 11 13 13 13
15 10 11 18 6 40 46 13 5 4 1 6 5 6 6 6 5 5 5 10 6 4 5 2 12 3 2 4 6 10 3 3 5 6 8 9 12 21 7 6 10 12 10 10 9
11 9 12 19 31 50 30 5 4 6 5 5 6 8 6 8 4 7 4 8 10 4 1 4 5 12 12 13 7 12 11 5 5 4 4 5 7 6 13 18 19 19 11 7 7
14 4 8 7 34 41 13 3 7 6 6 10 12 6 6 5 4 7 9 8 8 14 7 5 6 1 8 5 7 5 11 14 7 7 4 4 8 11 9 11 11 14 11 10 8
13 3 6 9 31 21 7 7 4 3 6 6 5 5 6 8 8 8 6 4 7 11 6 2 5 4 3 4 11 9 3 3 5 4 5 6 10 11 13 8 9 13 10 9 8
4 2 2 14 27 6 5 4 4 4 5 4 4 4 3 5 7 6 4 4 7 5 15 4 4 2 4 8 9 6 8 7 1 4 4 3 6 7 7 4 15 17 14 11 12
2 1 2 39 6 4 4 5 4 5 2 2 3 2 7 8 7 4 7 6 7 8 10 10 3 6 12 4 13 13 11 19 8 6 5 4 14 2 5 7 12 14 9 1 6
2 1 8 30 4 4 4 4 3 4 4 3 3 4 4 6 4 8 5 6 9 11 11 10 5 4 5 2 8 9 16 19 19 1 13 8 5 7 7 7 8 7 6 4 7
2 3 2 6 1 7 9 5 3 2 4 1 2 4 4 7 6 2 4 4 13 11 12 13 4 9 11 11 3 6 12 13 14 10 18 19 15 11 13 10 10 3 2 3 7
1 2 2 4 2 9 8 7 6 4 3 5 4 7 5 5 5 7 8 9 5 11 9 7 8 11 21 23 16 13 14 18 21 20 11 12 18 13 12 13 12 3 6 7 8
0 2 2 5 7 10 7 6 13 6 7 4 8 6 9 5 7 4 5 6 4 3 8 5 8 6 18 19 20 19 17 18 22 23 26 20 23 7 12 14 15 16 9 10 10
5 8 2 10 8 9 8 4 7 7 5 5 11 11 9 11 15 15 8 8 6 4 9 4 3 3 10 6 7 5 20 19 19 20 17 16 24 12 15 16 9 13 10 11 11

GFSSW_925_spd_021.txt.gz
Wind_Speed
19 20 15 12 11 10 9 10 9 10 9 8 4 9 6 7 8 8 5 8 4 8 3 0 2 2 4 2 2 2 3 5 7 8 5 1 1 1 3 2 4 2 2 3 4
22 19 19 16 11 11 10 9 9 9 9 8 4 6 6 4 8 12 14 11 7 3 6 2 2 1 2 2 0 2 4 8 5 5 3 2 1 2 3 4 4 5 3 9 2
20 20 19 18 16 12 11 8 8 8 8 6 4 5 3 2 2 5 10 18 16 11 5 3 5 2 3 2 3 3 5 4 3 3 1 2 3 2 3 6 7 6 4 7 3
25 21 20 21 17 14 10 10 7 8 6 5 3 3 2 5 7 2 2 3 17 14 9 6 3 3 3 4 2 2 5 4 2 1 1 3 1 5 5 9 4 4 6 6 12
28 24 21 21 21 17 11 10 7 8 5 4 2 1 3 3 6 3 1 2 9 20 11 6 3 4 3 2 2 3 2 3 3 5 5 5 12 11 13 10 10 11 12 13 12
28 27 21 20 20 19 14 10 9 9 6 5 3 4 4 5 6 8 8 2 6 18 11 7 4 3 3 2 3 2 2 5 6 8 6 11 16 6 12 12 18 14 14 12 11
27 27 27 19 18 22 16 12 11 11 9 6 4 5 2 10 3 1 6 4 7 11 6 9 6 4 5 1 3 3 5 7 7 7 8 4 15 14 18 15 18 17 15 15 18
27 26 26 20 16 21 18 15 13 12 11 8 5 5 5 2 9 12 4 5 7 9 8 8 9 3 2 1 2 2 3 3 3 0 6 9 13 9 10 12 18 20 17 16 19
27 25 25 25 17 18 21 17 14 10 11 10 5 4 6 1 3 7 9 6 8 7 7 10 7 3 2 2 2 3 4 5 5 4 3 9 6 3 3 2 8 9 11 11 14
27 23 25 24 20 16 25 19 12 9 7 7 3 1 4 2 4 6 10 9 4 6 4 3 3 4 4 5 5 4 4 4 5 1 4 12 18 16 14 13 16 15 11 11 11
27 22 23 23 25 11 29 17 6 2 4 6 4 2 1 4 7 3 9 7 3 4 5 2 5 9 12 8 7 1 3 6 3 6 10 15 23 20 19 18 18 17 17 16 14
25 25 28 26 24 23 37 7 11 11 4 12 2 4 2 1 4 2 12 5 4 4 5 3 9 11 1 8 9 12 13 15 10 5 7 13 27 19 19 21 21 20 18 17 17
27 31 31 29 22 21 28 17 27 17 5 2 7 6 3 3 1 6 8 4 4 6 6 5 2 4 10 6 9 10 11 12 16 7 12 16 26 17 15 22 22 21 22 21 20
37 39 29 21 13 12 21 25 23 14 4 4 4 5 8 4 4 8 14 5 2 10 7 10 12 3 4 6 8 15 8 13 13 7 7 2 10 6 7 13 11 12 16 19 19
43 34 19 16 6 6 14 28 27 5 2 3 5 3 5 7 6 1 7 2 7 6 5 4 5 5 12 11 9 7 5 7 8 9 12 13 7 7 2 4 9 9 14 14 16
34 19 15 10 12 18 38 30 15 5 6 6 5 7 8 7 4 3 5 1 2 4 7 7 4 5 8 7 14 4 3 8 4 7 9 11 11 19 7 6 5 8 11 11 14
35 14 9 14 7 21 42 9 4 4 2 7 6 7 8 7 6 5 7 9 5 4 6 4 15 7 4 4 2 11 3 3 4 6 7 6 11 19 8 16 18 18 14 13 11
46 24 11 13 15 31 29 4 4 5 4 6 6 9 5 7 5 7 7 6 11 3 1 4 5 11 10 15 6 16 10 5 5 5 4 1 8 8 14 15 14 12 15 13 10
32 5 6 9 17 23 9 3 6 5 7 10 11 5 4 4 3 6 7 4 8 12 6 3 4 2 4 4 8 5 10 9 7 11 8 8 12 9 12 10 4 8 11 14 13
18 1 4 5 11 22 3 5 2 3 13 9 5 4 9 10 6 8 7 4 6 9 7 3 4 4 0 4 8 6 3 4 5 4 8 6 7 11 4 7 3 7 10 13 11
5 1 1 7 17 4 1 3 5 4 8 4 4 5 5 6 8 7 4 4 4 4 10 5 5 2 5 11 12 7 6 6 2 5 4 5 7 7 11 6 6 7 9 12 13
4 2 3 24 3 0 2 6 4 4 3 3 3 5 5 6 5 5 6 5 6 7 9 9 4 5 11 9 16 18 16 19 9 12 5 3 13 2 4 5 6 8 9 9 9
5 2 7 14 4 2 2 4 4 3 2 2 3 3 4 5 4 6 4 4 9 9 10 9 4 4 6 1 7 10 17 22 12 8 11 5 10 1 3 1 3 5 7 7 5
2 1 4 2 1 5 5 3 4 3 3 3 3 4 3 3 4 3 4 3 10 8 10 12 5 7 10 14 5 8 15 17 18 8 15 19 21 13 14 14 8 8 5 5 1
2 2 2 2 1 4 4 4 5 3 2 2 2 2 4 4 5 5 6 2 4 10 7 8 6 10 19 24 23 23 24 17 21 24 12 14 21 20 16 15 9 8 6 10 6
4 2 1 3 5 6 5 4 6 3 4 2 3 6 5 4 6 4 4 5 6 4 7 4 5 5 23 21 19 21 22 21 21 21 22 22 25 14 8 6 5 7 12 14 10
5 4 3 9 5 6 5 6 8 5 5 1 7 4 7 9 8 11 8 4 3 4 10 5 2 3 17 12 17 8 7 11 14 19 15 16 21 7 5 5 6 10 17 15 11

GFSSW_925_spd_024.txt.gz
Wind_Speed
22 20 18 17 15 11 9 11 11 10 9 10 11 9 7 3 10 14 13 8 9 13 3 3 4 4 4 5 4 3 8 12 20 16 11 4 9 7 1 6 2 3 2 4 2
24 23 19 18 19 15 12 10 10 10 9 8 8 8 6 3 11 14 12 11 11 5 13 7 7 6 5 6 6 10 11 16 10 12 7 8 5 3 5 9 10 7 4 3 3
25 26 23 21 18 19 15 12 10 9 9 7 6 7 5 5 5 6 12 19 15 11 8 7 6 6 8 6 8 8 14 11 7 8 5 9 9 8 10 13 13 12 4 1 1
26 25 25 23 19 20 17 14 10 10 8 6 5 5 5 7 7 5 3 5 19 14 11 9 7 7 7 9 7 9 12 11 5 7 6 11 9 13 15 18 7 7 7 9 10
26 25 25 24 21 18 21 16 13 11 8 6 4 3 4 7 7 4 2 2 7 19 16 10 9 7 8 5 6 12 9 7 8 8 10 12 18 20 19 19 18 18 16 16 15
24 24 24 25 24 17 21 19 15 12 9 6 4 5 6 11 2 5 8 3 5 19 16 13 7 4 3 4 9 2 6 9 8 12 11 16 21 17 22 20 22 22 24 22 21
25 25 24 23 24 17 18 21 18 15 11 9 6 6 6 7 2 1 5 3 3 17 15 10 11 5 6 5 3 5 10 11 14 13 14 11 19 20 25 21 23 22 20 20 21
27 24 22 22 23 20 15 24 20 17 13 11 8 5 5 3 6 7 4 8 6 6 9 12 11 5 2 2 3 4 5 5 4 3 5 8 16 6 11 14 19 19 20 21 22
26 24 22 19 22 22 13 26 21 17 15 13 7 5 3 2 4 7 10 12 11 10 11 12 10 4 5 5 5 8 8 9 10 8 7 12 12 6 3 6 11 13 13 14 16
26 24 19 18 20 22 17 22 21 15 14 11 5 3 4 3 5 8 8 15 7 12 9 5 4 6 7 8 8 6 10 10 11 2 8 16 21 19 19 21 20 19 18 17 17
24 22 21 21 22 22 21 9 8 5 8 4 7 2 4 6 7 6 11 11 9 10 8 4 5 11 15 14 13 5 8 11 10 9 17 19 23 23 22 24 24 23 22 22 23
25 26 24 26 28 25 22 5 16 11 8 10 8 4 1 4 4 8 12 9 12 13 9 5 12 13 8 12 13 13 15 17 16 14 13 19 32 25 27 29 26 25 25 24 24
27 26 31 32 31 22 19 15 22 20 5 6 12 5 5 5 4 13 13 7 12 12 16 9 2 5 13 14 13 16 17 15 17 17 19 21 26 12 5 11 16 21 24 24 23
27 34 43 32 21 19 12 20 21 9 3 9 11 10 8 6 4 11 18 7 5 12 11 9 12 6 9 12 13 15 12 14 13 11 6 2 11 16 14 14 11 12 14 17 18
29 29 37 12 4 7 8 22 18 6 7 12 8 7 10 11 10 6 14 4 9 9 7 5 7 12 15 12 12 7 5 7 9 12 13 17 7 11 5 11 10 14 15 15 15
33 32 31 8 13 6 11 26 12 5 6 7 7 12 14 13 6 6 8 2 2 7 9 10 2 5 8 10 13 3 6 10 10 8 9 18 15 20 15 12 9 8 10 14 15
39 37 20 10 7 14 15 11 5 4 7 8 9 11 15 10 9 10 12 10 7 5 8 7 16 7 6 6 6 12 4 3 4 6 8 2 11 21 6 6 10 19 17 14 15
36 32 11 12 11 13 10 3 4 7 7 6 12 17 8 18 8 9 12 10 12 4 2 5 4 13 11 14 4 15 13 6 6 6 7 2 12 8 10 11 13 8 12 11 14
32 13 2 7 10 11 8 3 1 6 12 13 12 8 5 11 5 8 10 6 9 12 6 5 4 3 10 8 12 6 10 14 15 22 14 15 23 26 26 24 17 14 6 9 14
24 4 1 8 15 12 4 4 0 5 18 16 6 7 8 13 8 10 12 7 9 14 12 2 4 5 4 7 12 13 1 5 6 6 12 14 17 14 13 11 8 9 4 10 12
6 3 2 10 12 4 3 2 5 12 10 3 6 9 8 12 9 11 8 2 10 10 17 7 4 3 3 13 13 9 7 7 8 10 8 17 14 8 9 12 16 4 6 7 12
4 2 5 22 5 2 3 2 6 8 4 3 6 9 13 13 11 9 9 5 8 11 10 13 4 9 15 10 12 17 13 20 9 11 8 12 18 7 5 2 4 6 6 6 9
2 2 5 2 3 3 2 3 5 4 2 2 4 3 4 8 6 7 5 2 11 12 11 12 6 4 4 3 7 9 16 23 19 12 19 11 15 3 3 7 12 9 9 11 10
1 2 3 2 2 9 11 6 5 3 4 6 6 6 6 5 2 6 6 3 10 11 6 13 5 7 9 13 4 9 17 17 18 11 21 22 30 25 18 17 20 16 12 13 9
2 3 1 2 5 8 6 3 9 4 3 3 3 3 4 4 5 4 7 3 4 9 8 9 5 11 20 23 22 23 28 25 19 25 15 28 21 22 16 16 19 17 11 10 10
4 4 5 2 7 9 4 5 5 4 3 3 2 6 5 3 4 5 4 6 6 10 11 7 5 5 16 21 20 22 21 20 19 18 23 27 27 25 21 14 17 6 9 8 6
4 3 3 4 4 7 5 6 7 4 1 3 2 3 5 5 6 7 7 8 3 5 11 5 3 3 7 12 24 8 5 9 9 7 11 17 23 15 12 9 7 8 11 12 16

GFSSW_925_spd_027.txt.gz
Wind_Speed
24 24 25 21 19 19 16 15 13 13 13 11 10 11 11 9 7 13 16 11 13 8 5 6 9 11 9 8 9 11 13 16 21 22 15 11 8 12 7 11 6 8 9 7 5
25 25 24 24 22 19 20 16 14 13 12 10 9 10 9 6 12 17 16 14 12 12 14 10 11 11 11 12 8 12 13 20 16 15 16 14 11 14 8 15 14 10 5 3 4
25 25 24 23 22 22 17 20 15 13 12 10 8 9 9 5 9 12 26 18 14 13 12 16 10 11 14 10 14 14 18 14 15 10 8 12 12 13 11 15 14 16 12 8 5
24 23 23 24 23 22 20 21 16 14 12 10 8 7 8 6 7 7 7 14 19 14 14 14 13 13 11 12 14 16 15 19 13 7 11 13 16 17 18 17 15 11 10 4 9
25 24 24 24 22 23 21 15 19 15 13 10 8 6 6 8 11 6 4 5 10 18 18 14 15 14 12 10 9 13 17 13 13 14 13 14 18 19 18 17 17 18 14 14 15
26 25 25 24 23 22 21 16 20 17 14 11 7 6 9 14 3 3 4 4 10 20 18 13 7 9 7 8 10 1 12 13 13 15 15 18 21 19 17 21 22 22 21 20 21
27 25 26 25 22 21 21 17 17 19 16 12 9 8 10 12 1 3 8 8 7 17 14 16 5 5 5 7 8 8 14 14 17 18 15 12 20 24 25 23 23 23 21 22 23
26 25 26 25 22 19 20 18 14 21 18 14 11 8 6 3 8 4 6 8 4 12 15 11 6 2 4 3 5 6 11 11 3 9 12 9 17 10 12 17 21 23 21 22 22
26 25 25 23 18 19 20 24 20 24 20 16 9 9 5 4 8 13 9 12 9 9 11 12 7 3 1 6 7 11 10 14 10 10 8 14 12 9 4 9 14 14 16 17 19
25 25 22 20 19 18 23 25 21 21 19 14 3 5 8 7 8 9 12 12 10 14 11 8 4 3 8 9 8 9 15 12 12 4 7 15 21 20 18 18 17 17 17 17 18
25 23 23 21 20 19 23 12 5 6 11 6 13 1 8 8 11 12 16 14 13 13 7 8 7 11 16 16 15 9 8 11 10 9 16 21 22 20 19 21 22 21 21 22 22
25 23 20 25 25 22 19 3 13 6 6 11 12 8 7 12 7 13 18 10 10 13 10 5 12 15 10 11 12 13 14 15 14 14 13 17 28 25 27 27 23 24 24 25 24
26 24 24 30 26 32 23 19 27 8 4 13 14 13 8 9 8 17 17 12 13 15 15 9 3 8 14 12 12 13 13 12 14 17 18 21 24 15 7 8 15 21 24 25 24
25 26 27 30 19 12 20 17 23 5 4 11 10 7 8 7 5 17 19 9 7 14 12 10 7 5 10 13 12 13 10 13 14 9 6 3 10 15 15 16 14 13 13 15 16
23 28 32 23 14 9 2 19 15 3 6 17 12 10 15 10 15 11 18 5 10 10 7 4 7 12 11 12 9 7 2 6 8 10 13 14 7 13 5 11 12 13 13 12 13
30 35 30 20 10 8 9 25 2 4 4 7 7 14 16 13 8 11 14 4 3 7 11 10 3 5 8 9 12 3 5 7 9 6 8 11 15 19 11 15 14 12 15 9 9
34 38 28 14 5 13 26 13 4 5 11 9 9 14 17 13 11 13 14 11 8 5 8 10 15 7 9 8 6 9 2 2 3 5 7 5 10 20 11 17 7 7 8 14 9
38 30 9 11 8 20 7 3 9 7 7 8 14 17 10 17 10 14 14 12 15 11 2 8 6 17 12 13 6 14 10 5 5 7 10 8 10 7 8 5 6 12 17 14 12
34 18 3 7 13 17 4 3 1 13 10 12 17 11 5 17 6 11 13 11 13 14 7 6 4 3 10 8 12 6 9 11 13 18 11 9 21 24 26 24 21 18 17 15 10
26 5 3 10 15 9 2 2 1 9 15 18 6 6 8 17 10 13 12 13 10 17 12 0 3 5 7 4 10 10 4 1 4 5 10 13 20 14 15 14 15 12 15 13 8
3 1 6 12 14 1 1 4 10 18 7 2 10 9 9 15 10 15 16 5 17 14 15 7 4 6 3 11 13 10 6 6 6 5 6 14 13 10 10 5 9 7 5 5 8
2 2 1 9 3 2 2 2 12 7 3 4 8 6 16 17 11 12 9 2 8 9 11 10 3 6 11 8 7 12 13 17 7 9 7 12 20 13 11 10 5 10 7 7 7
2 2 3 3 2 1 3 3 5 3 3 3 5 3 6 13 6 6 8 4 9 12 10 11 5 3 2 0 11 10 15 18 18 16 20 15 18 3 6 8 10 11 15 9 11
1 2 2 2 2 11 6 4 5 5 9 9 9 10 9 13 3 8 6 4 8 10 8 8 5 7 6 8 5 6 14 16 14 9 18 24 33 28 24 21 20 19 18 20 14
4 3 2 2 2 7 6 4 2 3 3 3 4 3 3 4 4 4 5 7 6 7 6 5 3 7 16 22 20 19 22 23 20 21 16 31 28 27 22 20 16 17 12 12 7
3 3 5 2 7 8 5 7 7 4 1 3 5 5 3 4 2 5 6 6 5 9 10 4 3 4 15 20 17 15 21 19 18 20 18 22 28 22 21 18 14 8 13 6 10
5 3 2 1 7 5 4 6 5 5 4 7 5 4 3 4 3 1 2 5 4 7 11 4 2 2 6 10 19 9 3 8 11 14 9 12 16 13 14 10 10 11 13 11 9

GFSSW_925_spd_030.txt.gz
Wind_Speed
23 23 21 22 21 21 20 18 17 13 14 13 11 11 12 11 11 8 17 14 23 13 4 7 10 13 14 8 13 8 6 11 17 14 12 11 8 5 2 6 6 2 3 7 11
25 25 24 22 21 21 21 20 19 16 14 13 11 11 11 10 11 18 17 15 9 10 12 10 9 13 9 9 6 6 8 11 11 12 11 14 6 3 2 7 8 8 10 12 7
24 25 24 23 22 22 21 20 17 18 15 13 11 10 9 6 9 10 23 20 12 11 14 15 13 10 10 10 10 8 13 9 14 15 5 9 12 4 5 5 7 10 8 10 11
25 25 23 22 23 22 22 20 19 20 18 13 11 9 7 6 5 2 7 25 17 14 13 16 12 7 8 13 12 16 12 14 16 12 5 6 9 9 7 8 10 10 7 1 8
26 25 25 24 24 23 21 21 20 16 20 15 11 9 4 7 7 3 6 14 14 17 17 12 13 9 12 9 12 11 16 12 9 10 7 6 9 10 14 11 10 11 11 6 5
27 27 26 23 24 24 21 20 21 17 20 15 12 9 5 13 8 7 7 7 10 18 19 16 8 10 11 13 8 5 8 10 14 6 7 12 10 11 8 12 14 14 13 10 9
27 28 25 25 24 24 20 18 20 17 17 18 14 12 10 13 4 4 7 7 6 17 14 18 1 4 2 3 9 5 7 10 12 9 9 5 15 17 18 17 17 15 15 16 14
26 27 26 25 23 21 17 18 22 22 16 17 14 12 7 8 16 5 7 11 6 8 21 13 5 2 3 3 0 4 9 10 10 19 13 11 15 10 13 18 20 20 15 14 14
23 24 24 24 21 18 18 19 20 24 14 18 10 15 6 9 9 13 9 14 5 8 9 9 6 3 2 3 3 8 7 11 10 5 4 8 5 11 11 6 7 8 12 14 15
23 22 24 21 20 19 19 22 23 18 10 18 11 8 8 9 10 17 12 9 9 10 7 3 2 4 3 5 6 7 11 9 9 5 4 8 13 11 12 15 12 9 9 8 9
22 22 23 19 19 21 20 10 1 5 8 5 9 2 16 15 14 13 15 12 9 8 5 8 4 8 12 11 10 12 10 8 10 9 9 10 16 14 15 15 17 16 13 13 15
22 24 21 20 20 22 12 5 6 5 6 11 13 5 15 18 11 13 17 8 6 9 6 3 6 8 12 12 8 6 7 10 9 8 7 11 22 20 20 22 20 19 18 15 13
25 23 20 24 26 23 19 21 6 7 6 12 15 11 14 8 9 16 15 8 9 8 8 7 2 8 10 5 6 7 7 7 9 11 11 14 17 11 9 17 21 21 20 17 17
23 22 25 25 21 14 9 16 19 8 3 13 13 8 10 6 7 17 16 7 5 11 10 5 6 3 5 9 7 5 3 6 8 7 3 10 7 8 11 9 7 10 10 12 13
24 26 29 27 19 7 7 13 14 3 4 14 7 19 11 7 14 12 17 4 8 10 6 3 4 6 4 5 5 3 7 4 5 6 8 4 4 7 7 8 5 8 8 8 10
26 31 35 24 10 9 14 21 16 4 1 5 7 11 13 14 5 12 8 3 3 3 7 5 4 1 5 4 4 5 1 2 4 2 5 12 10 6 3 3 4 9 4 9 7
29 34 31 15 3 15 27 4 5 6 5 7 10 13 15 13 10 15 10 6 5 5 3 3 6 4 3 5 5 7 2 2 2 2 6 4 9 12 15 18 13 7 3 5 5
33 28 14 3 7 28 8 2 2 5 2 6 15 14 10 14 9 12 12 8 10 7 5 5 4 15 8 7 4 8 4 3 5 3 3 7 7 6 10 8 6 5 5 7 8
29 16 9 8 19 21 0 3 2 8 9 11 19 13 6 11 7 10 10 7 10 10 4 5 3 5 11 5 6 4 5 1 5 5 2 5 7 10 14 16 14 9 7 11 8
7 7 4 9 17 10 2 1 3 7 14 17 5 6 7 14 8 8 12 11 10 13 8 4 3 3 6 5 7 8 1 2 0 3 6 6 9 9 6 7 8 8 7 6 6
5 1 5 7 7 1 1 3 5 13 12 1 10 7 9 16 6 9 11 4 14 14 12 4 1 4 5 8 9 7 4 4 3 3 4 5 5 4 5 6 5 8 7 7 6
3 3 2 2 3 2 3 4 9 8 3 6 6 7 9 15 7 9 9 4 13 8 10 4 2 3 9 8 12 12 7 10 3 5 5 3 11 13 7 7 7 8 6 6 4
2 1 1 3 2 1 5 6 4 3 4 3 4 5 14 11 6 6 9 5 0 6 10 8 3 2 1 4 8 5 7 11 13 9 17 9 10 12 18 20 19 15 13 7 4
1 2 2 2 2 4 4 5 3 8 11 7 8 7 13 7 3 7 7 2 3 2 7 10 4 4 3 2 4 4 4 9 7 7 13 20 33 25 24 22 21 15 11 8 6
4 3 2 1 1 5 3 2 2 4 4 3 2 6 9 5 6 6 10 7 5 4 3 1 3 3 7 13 10 12 16 17 17 19 14 23 27 29 25 21 21 16 9 6 11
1 1 3 3 2 7 6 4 3 6 7 5 9 6 3 6 6 7 7 8 5 7 6 3 2 2 6 14 14 16 16 16 16 18 17 19 24 20 14 9 10 10 8 8 8
6 4 2 3 4 2 2 3 4 3 6 7 5 6 9 8 5 5 5 4 3 5 7 5 3 1 4 7 9 6 6 6 7 11 9 10 18 17 12 9 7 5 7 6 8

GFSSW_925_spd_033.txt.gz
Wind_Speed
22 22 22 21 20 19 20 19 19 15 15 13 12 11 11 10 11 12 12 13 26 12 3 6 9 13 12 4 3 2 2 5 8 8 7 13 5 4 1 5 4 4 4 8 19
22 22 23 23 21 21 20 20 19 19 16 14 12 11 10 9 9 16 13 13 19 20 20 11 7 10 3 4 3 5 6 7 4 8 7 6 3 6 3 3 0 6 4 14 17
22 24 24 22 23 22 22 20 20 20 18 15 12 11 9 5 5 7 17 19 17 14 16 15 10 6 6 4 5 5 5 4 10 12 4 4 6 5 4 2 6 6 8 7 13
24 23 24 23 23 22 23 22 20 20 19 16 13 11 7 5 6 2 6 25 19 16 13 11 5 3 7 7 5 5 5 13 13 13 5 4 5 6 2 4 8 4 4 5 7
25 25 23 24 24 22 24 23 20 18 17 16 15 12 7 5 7 4 1 22 20 16 15 9 6 5 6 6 6 6 6 10 9 9 5 4 5 5 7 8 10 9 5 3 5
23 24 23 23 22 24 23 24 20 19 19 16 18 15 5 8 12 6 10 18 18 20 14 10 6 7 3 6 6 4 4 2 5 7 4 6 6 2 3 8 11 11 12 6 7
24 23 24 22 20 22 22 21 16 18 20 17 23 19 7 12 6 14 12 13 13 18 7 20 8 5 3 4 2 4 3 6 5 6 5 7 7 7 9 10 11 12 11 16 9
25 22 22 22 22 20 19 17 17 18 23 16 20 16 5 18 12 6 12 11 6 7 21 14 5 3 2 3 2 3 3 1 7 9 8 10 13 6 12 9 12 18 16 14 19
24 22 19 20 22 18 17 17 21 21 19 23 19 9 5 10 15 17 14 10 11 8 10 9 3 2 2 5 2 2 3 5 6 8 7 11 3 14 10 9 9 12 13 16 17
23 21 20 22 17 19 18 21 25 21 10 18 8 3 5 8 10 20 14 11 5 13 7 4 3 3 1 3 6 6 5 4 6 5 2 5 9 7 9 7 10 10 10 9 12
21 21 22 21 17 19 17 10 4 3 3 4 13 5 7 13 18 17 17 9 7 5 5 4 3 7 10 7 3 4 4 4 4 5 2 6 8 10 11 9 14 16 12 14 15
23 22 21 17 21 20 24 3 4 5 5 18 21 4 17 18 8 11 15 6 6 4 7 4 1 3 6 9 9 4 5 5 6 5 5 10 21 18 19 22 20 21 13 14 14
24 21 21 22 26 19 9 14 6 4 3 6 11 8 8 6 6 13 11 6 6 5 5 6 4 13 8 1 6 1 3 4 5 6 5 8 10 8 7 13 18 18 19 16 16
23 21 22 26 15 11 14 7 12 3 2 9 6 8 6 7 5 9 11 6 4 8 5 2 3 4 2 2 2 0 4 4 4 5 4 5 7 7 8 9 7 10 12 17 18
24 24 26 24 20 5 2 20 18 4 3 12 9 13 5 1 15 10 4 2 7 9 6 4 4 5 3 2 3 3 6 4 3 3 5 2 2 7 6 6 7 7 9 11 15
28 29 29 21 7 5 25 22 11 3 2 4 8 11 7 15 3 7 3 2 3 5 4 4 4 4 5 2 4 4 3 3 3 2 3 8 6 5 3 5 2 4 7 4 9
33 32 21 10 3 15 26 5 6 0 6 5 10 13 14 6 6 10 6 4 5 5 2 3 3 3 4 4 3 4 5 3 3 1 6 1 5 6 9 10 4 10 8 2 5
29 15 9 1 9 28 8 1 4 6 3 11 15 15 7 9 8 7 7 4 2 3 4 4 3 8 4 5 6 5 6 4 5 3 4 1 7 6 12 13 8 7 8 7 8
12 11 10 4 20 11 1 3 2 3 1 9 13 7 4 4 7 5 4 5 5 3 5 4 2 4 5 3 6 4 3 2 1 2 3 5 7 8 8 7 7 3 4 8 10
10 8 11 8 9 2 2 2 3 3 12 10 5 3 5 6 6 5 8 6 4 8 2 1 4 3 3 3 2 4 4 3 2 3 5 5 5 7 5 5 6 8 8 9 5
6 3 10 4 3 2 2 4 2 15 10 1 5 6 9 6 6 6 10 7 8 9 5 2 3 2 1 5 7 3 4 4 2 4 3 4 5 5 4 2 3 6 4 5 6
3 3 1 10 2 1 1 2 0 5 8 2 5 8 8 6 5 3 8 2 8 12 6 3 4 3 9 6 8 5 5 5 4 5 4 2 7 15 17 5 10 16 16 18 22
2 1 4 2 3 4 5 8 5 7 5 2 4 3 13 5 5 4 4 5 7 9 11 5 2 1 1 3 2 5 7 6 3 2 10 4 8 4 15 18 22 24 18 18 17
1 3 3 1 2 2 5 5 5 8 6 5 9 14 7 3 3 8 3 3 3 4 8 5 4 5 5 2 3 1 3 7 9 4 8 17 26 28 25 24 22 19 14 17 8
3 1 1 2 2 2 1 5 5 4 6 5 6 8 6 4 8 5 6 3 5 2 4 3 3 1 5 7 5 6 10 11 12 16 10 25 22 26 26 23 22 2 10 7 8
2 3 4 3 1 4 2 3 5 5 6 6 6 10 10 5 1 8 7 4 4 2 3 2 1 1 5 10 10 9 13 13 16 18 19 22 24 20 16 14 11 9 7 8 7
5 4 2 5 3 1 2 2 4 2 7 6 3 5 9 4 3 3 5 4 7 7 6 5 4 2 5 4 5 3 6 6 5 6 9 9 13 19 21 14 9 10 11 9 8

GFSSW_925_spd_036.txt.gz
Wind_Speed
20 21 21 20 18 19 19 21 21 22 23 15 15 13 12 10 11 12 16 14 25 9 11 7 12 14 5 2 4 4 3 4 5 7 4 3 4 5 4 3 1 1 8 6 23
22 22 22 23 19 20 20 19 20 21 23 24 17 12 10 9 10 18 17 17 16 21 8 5 5 8 3 5 3 4 5 8 5 5 3 5 1 5 7 3 2 3 4 18 23
24 23 21 21 20 19 20 19 19 21 22 24 16 13 9 6 4 9 20 23 20 22 20 13 3 5 4 3 4 4 5 8 5 6 1 4 7 3 2 5 3 3 5 5 7
25 23 23 21 21 21 19 19 20 20 21 21 22 14 9 6 7 2 4 28 20 22 21 13 4 4 6 6 5 3 6 6 4 6 3 4 3 2 4 6 3 1 2 5 6
25 23 21 23 22 20 19 20 20 19 19 19 17 14 10 4 8 4 5 24 23 22 17 7 6 5 6 7 3 3 3 5 6 8 4 6 6 6 6 10 8 4 4 6 7
25 24 20 23 21 19 20 19 19 18 16 16 16 15 7 7 13 9 4 28 22 20 13 10 7 7 3 4 8 3 8 5 4 4 3 5 6 5 4 6 11 8 6 8 7
25 22 20 22 20 17 20 18 17 16 15 17 17 13 9 15 7 14 14 24 25 23 6 14 13 4 5 1 6 2 5 3 5 3 3 2 15 8 9 10 10 12 11 7 9
24 22 19 18 17 19 18 16 16 17 16 19 20 12 5 17 7 12 14 13 15 16 22 17 12 3 3 1 2 5 3 2 4 3 6 8 19 3 9 7 11 11 10 11 10
23 21 20 18 18 18 15 19 19 20 19 15 12 6 3 8 15 15 12 9 10 12 14 10 6 2 2 5 3 1 2 4 7 7 6 9 2 11 16 9 9 10 11 10 12
22 21 20 20 19 15 17 19 24 17 10 5 8 4 5 6 13 17 12 12 4 10 5 4 2 3 2 4 6 6 4 3 5 3 1 7 8 11 7 5 9 9 11 12 11
24 23 21 19 15 17 18 12 4 1 6 6 3 4 8 11 17 16 14 7 6 4 5 4 4 6 12 7 4 2 2 2 4 3 5 7 5 10 12 7 10 14 13 14 14
24 22 21 19 19 21 17 2 5 2 3 9 5 17 6 12 9 12 15 6 5 4 7 4 3 7 5 1 8 2 2 5 6 2 3 7 15 16 14 16 16 19 20 17 14
22 21 21 21 25 11 2 10 8 5 2 1 10 9 8 9 5 13 12 5 6 6 4 6 4 8 9 9 7 4 4 2 4 6 1 8 12 8 6 8 9 17 19 13 16
23 23 23 23 15 8 13 5 13 1 2 4 12 6 4 8 5 4 8 4 3 7 10 5 3 10 7 3 3 4 3 4 4 4 4 5 6 6 8 10 8 8 6 10 13
27 26 26 19 12 4 6 9 13 3 5 7 7 15 3 1 16 5 3 4 6 6 5 3 6 8 6 4 4 3 5 4 2 3 4 2 2 8 4 8 8 7 7 8 10
33 28 23 9 3 5 3 14 5 4 1 3 6 10 7 7 3 6 1 3 6 7 6 3 3 3 4 4 5 7 5 6 4 3 2 4 5 5 4 4 2 3 7 9 9
22 12 9 3 2 7 17 2 4 1 2 4 10 12 15 5 6 3 4 8 4 5 3 1 2 2 5 7 4 6 6 3 4 1 6 1 3 9 9 10 4 8 12 9 8
17 18 17 11 10 19 2 1 5 3 3 3 12 14 7 8 6 9 5 4 3 4 4 4 2 5 2 4 5 3 5 4 4 3 4 2 6 6 7 9 6 5 5 7 9
19 21 18 11 14 4 2 3 1 3 3 9 16 10 6 4 6 4 1 4 2 2 5 4 0 1 4 4 6 3 2 3 2 1 3 4 7 9 5 3 6 8 9 9 9
6 4 10 7 1 7 2 3 3 4 14 6 5 2 4 4 6 3 5 2 3 5 2 5 4 3 2 3 3 5 5 3 3 1 4 5 5 6 4 4 5 7 8 7 7
4 3 4 5 3 2 2 3 3 6 3 5 3 5 6 5 7 3 8 2 6 4 2 2 4 3 3 3 6 3 3 2 3 4 3 4 6 5 3 2 4 8 8 7 9
2 3 1 10 2 1 2 2 1 6 6 2 5 7 4 4 4 3 8 4 7 5 5 1 4 3 6 2 4 4 5 5 4 3 2 2 7 7 6 1 6 20 16 15 17
1 2 3 2 3 4 3 2 6 3 3 2 3 3 5 5 5 3 4 3 9 7 7 3 2 2 2 4 3 3 5 4 3 2 6 2 6 1 8 19 18 18 21 17 12
2 3 4 2 0 3 5 5 5 6 7 5 4 9 4 3 2 4 2 5 3 4 9 6 3 5 5 4 3 2 4 8 8 3 3 9 16 21 18 22 21 21 16 7 5
3 2 2 3 4 3 3 4 5 7 6 5 4 5 4 3 5 4 3 3 6 4 3 4 3 2 4 6 3 5 6 8 12 17 6 14 16 23 22 23 17 13 9 8 7
2 2 3 3 3 2 4 5 6 5 6 4 4 1 2 4 2 5 6 3 3 1 3 2 1 3 4 4 8 6 11 13 14 13 17 20 23 21 17 15 10 11 11 11 10
5 3 2 5 4 2 2 1 2 2 5 5 3 3 9 3 4 3 3 6 7 7 3 5 4 2 4 3 4 5 9 11 6 6 7 7 9 12 14 9 5 9 10 12 13

GFSSW_925_spd_039.txt.gz
Wind_Speed
23 22 22 20 20 17 18 20 19 21 23 23 24 15 15 13 13 14 16 14 23 5 14 18 14 12 6 3 4 4 3 4 5 7 4 2 3 3 3 5 3 3 4 4 27
26 27 25 22 19 22 18 17 20 20 21 23 22 25 17 13 11 17 21 21 20 15 12 16 8 9 3 5 4 4 5 8 5 5 2 4 2 4 5 6 4 4 4 9 28
24 26 24 22 21 20 20 19 17 20 21 22 21 23 18 13 1 10 28 31 22 21 15 10 10 7 5 3 4 5 5 5 4 3 2 2 6 2 3 5 4 4 6 4 3
26 25 24 21 21 20 20 19 18 20 21 23 20 19 16 16 7 2 4 29 25 24 21 6 4 8 6 6 4 3 6 5 5 5 2 1 3 3 5 8 2 4 5 5 2
27 26 23 21 22 20 17 18 17 20 20 21 18 14 10 5 7 4 2 18 25 26 21 9 6 5 7 7 3 4 2 5 5 6 4 2 6 6 6 11 4 5 6 8 6
26 24 23 22 21 18 16 17 17 18 18 17 15 13 6 8 15 16 8 19 26 26 18 12 7 5 5 4 8 4 7 6 4 5 3 5 6 5 3 7 9 7 8 8 8
25 23 22 21 20 17 15 17 16 16 16 14 14 9 6 13 3 7 10 28 27 21 10 14 7 5 4 3 5 1 2 2 5 3 5 3 11 7 7 9 12 14 8 8 10
24 22 20 19 17 16 16 17 15 13 15 15 11 7 5 20 11 1 7 18 20 21 18 19 12 2 2 1 3 6 3 3 3 6 5 7 18 6 8 7 10 11 11 8 10
23 22 21 19 19 17 14 16 17 16 16 14 7 5 2 3 8 10 7 11 17 8 11 12 8 3 1 5 3 1 4 3 5 6 3 8 3 5 7 9 11 12 14 9 9
22 22 20 20 17 15 16 18 23 16 9 7 5 4 3 5 10 9 7 14 5 8 5 4 3 4 3 3 7 6 5 3 4 1 3 6 8 14 9 7 8 9 12 13 10
24 21 19 18 16 16 19 10 4 1 1 6 3 4 4 5 10 7 6 8 4 2 4 5 3 8 11 7 2 5 3 3 3 2 3 6 5 11 11 6 9 11 13 15 17
24 21 19 17 17 20 11 2 5 2 3 5 6 11 4 6 10 7 13 5 5 5 6 4 9 5 7 5 3 2 2 2 4 1 2 6 12 15 16 13 16 17 17 18 15
26 23 21 19 19 9 1 9 7 7 1 1 0 3 6 8 6 10 11 3 6 5 6 4 4 10 6 4 4 2 3 3 4 4 2 7 8 5 5 6 5 11 15 14 15
32 28 23 19 10 3 7 6 10 6 3 4 3 4 6 10 4 6 11 4 3 8 6 3 3 11 11 8 4 3 1 2 3 3 3 5 6 6 8 12 4 10 8 9 10
23 19 13 9 4 2 4 4 8 1 6 9 7 6 2 2 13 5 3 1 4 10 4 2 3 10 8 6 6 3 3 4 3 3 3 2 1 8 4 8 7 6 6 6 9
22 16 9 7 4 3 7 14 3 2 5 1 5 7 7 5 3 5 2 3 5 6 10 4 3 3 3 3 2 7 5 6 4 2 2 2 3 6 3 1 7 7 11 9 11
18 16 11 5 2 6 14 3 3 3 2 4 7 10 11 11 7 3 0 5 3 5 3 5 3 2 5 7 5 5 5 2 4 3 5 4 3 10 9 9 6 10 9 8 8
16 17 20 12 11 10 2 2 6 1 3 4 16 14 7 8 6 4 4 4 3 4 3 4 1 4 1 4 5 2 5 4 5 2 4 1 5 6 3 1 2 4 1 7 9
11 10 10 9 8 5 2 3 2 2 4 11 15 8 4 7 4 3 3 3 3 2 5 4 2 1 2 3 5 4 1 2 5 3 3 3 6 8 5 7 5 8 10 10 9
7 6 7 9 8 7 2 6 5 2 6 6 5 2 4 4 3 4 3 5 4 2 2 4 5 2 2 4 4 3 7 3 3 1 3 3 5 4 5 5 6 10 9 10 9
3 2 2 9 5 2 3 5 5 6 8 5 2 5 5 5 5 3 5 3 1 3 5 4 4 1 3 3 6 2 1 4 4 3 3 2 5 6 3 3 7 11 9 8 10
2 3 3 8 1 1 2 2 2 4 3 5 5 6 4 4 2 3 4 3 4 5 4 2 4 3 4 1 1 3 5 4 4 3 1 2 7 4 4 2 7 10 10 14 15
2 2 2 2 3 3 2 2 2 2 3 3 3 1 2 4 4 3 3 1 6 5 6 4 1 3 2 4 3 2 4 4 4 3 5 4 5 1 7 16 15 15 18 15 11
2 3 4 3 0 2 4 4 3 4 4 4 4 4 4 3 4 4 2 4 5 5 6 6 3 4 5 3 3 2 4 6 6 3 3 6 9 17 17 19 19 15 10 13 8
3 2 1 4 4 4 3 2 4 6 4 5 4 5 6 3 2 3 2 2 4 5 3 4 2 2 4 5 3 4 4 7 7 8 6 2 6 17 18 19 15 7 11 12 12
2 1 2 3 4 5 4 5 4 5 5 5 5 5 3 3 2 6 5 2 2 2 3 3 2 2 4 4 5 5 8 9 9 9 11 18 22 22 20 11 6 6 10 12 13
5 3 1 4 4 2 2 1 1 2 3 4 1 4 6 4 2 1 2 5 5 6 3 4 5 2 4 4 5 5 8 10 5 6 10 12 13 11 7 11 3 5 7 9 11

GFSSW_925_spd_042.txt.gz
Wind_Speed
24 25 25 26 24 21 19 19 18 18 21 22 21 21 24 16 17 17 17 14 25 10 2 14 14 8 4 2 3 3 3 5 7 7 4 1 1 3 1 2 4 2 0 7 7
24 25 26 26 24 23 21 20 17 17 18 21 21 22 23 17 17 21 22 19 20 16 12 19 9 10 3 4 3 4 4 9 6 6 4 2 3 2 4 6 3 3 6 7 17
25 25 25 25 24 23 23 21 18 17 17 18 21 22 22 27 3 8 30 30 23 18 13 19 14 6 4 3 4 5 5 5 4 4 4 3 2 1 1 4 4 2 5 5 2
25 25 25 24 23 22 21 20 18 16 16 19 19 20 19 11 7 1 1 28 27 22 17 14 8 8 5 6 5 3 5 5 3 3 2 3 1 2 5 6 3 3 1 3 3
24 24 24 22 22 22 19 18 17 16 16 19 17 17 8 3 7 2 3 10 30 25 21 7 11 6 7 6 4 4 2 5 5 4 2 2 5 6 6 7 6 6 4 4 3
24 23 22 20 20 19 17 16 15 15 15 15 15 14 7 8 9 14 13 9 27 27 20 10 7 5 5 6 5 6 6 4 4 4 3 4 5 6 4 4 7 5 10 7 5
23 22 21 20 20 17 16 16 16 14 13 13 11 9 6 8 3 6 9 17 28 25 12 17 10 4 5 4 5 5 3 2 5 4 4 3 7 7 9 8 10 10 9 9 9
24 21 21 20 18 18 17 17 14 14 10 9 8 3 5 8 11 14 14 14 25 20 18 18 8 4 2 3 4 6 2 1 3 7 5 7 6 5 8 7 12 10 8 9 13
24 20 20 19 18 16 15 16 17 16 11 7 4 4 3 2 5 22 12 17 19 14 19 20 7 3 2 5 4 2 4 4 5 7 3 8 2 3 3 2 9 10 9 7 9
23 21 17 17 15 14 13 16 18 10 5 3 2 0 4 3 4 5 4 22 6 10 8 9 4 4 3 4 6 6 2 2 4 1 2 5 6 10 8 7 8 9 10 9 8
26 22 18 16 13 13 19 6 4 3 1 5 7 4 5 4 7 5 6 9 5 5 9 13 5 14 13 5 3 6 4 3 3 1 2 6 5 12 12 6 9 9 11 13 15
30 28 22 16 13 13 8 2 5 2 2 3 7 8 12 3 5 1 5 4 4 4 5 7 8 8 11 8 6 5 5 2 3 1 2 6 11 14 15 9 11 12 12 13 12
30 26 20 16 10 10 4 5 3 8 0 2 4 1 8 7 5 5 4 4 3 3 4 7 4 9 12 8 7 3 3 2 3 3 1 7 7 4 4 3 4 7 7 7 9
28 26 18 5 3 3 4 5 7 5 3 2 2 4 4 9 4 2 7 3 2 4 4 4 3 8 10 2 2 5 1 3 3 2 3 5 5 7 5 8 4 6 8 7 7
27 25 16 3 6 2 2 7 10 1 6 3 1 3 3 2 12 2 4 2 5 7 3 2 5 12 11 6 3 3 3 5 3 3 3 2 2 8 3 5 5 8 9 8 6
24 20 8 9 7 4 11 12 4 3 5 2 3 1 5 3 3 4 2 2 4 6 9 3 3 2 3 5 2 7 5 5 4 2 2 2 3 5 2 3 7 5 6 7 8
21 19 12 6 3 9 9 2 3 5 2 4 3 7 8 9 5 4 1 4 4 4 3 4 4 3 5 7 4 3 5 2 4 3 4 2 0 8 5 3 3 3 7 7 8
12 15 15 11 8 4 7 3 8 2 1 2 7 11 6 5 6 3 2 4 5 4 3 4 2 3 1 3 6 2 4 4 4 1 3 2 5 4 6 2 3 2 6 7 8
11 5 3 2 3 11 0 5 2 2 1 5 10 6 5 6 5 3 3 2 2 2 4 4 2 3 2 2 3 4 2 2 6 2 3 3 7 7 1 5 4 8 8 9 9
8 4 4 5 10 3 1 6 3 3 6 5 5 1 3 3 3 3 1 1 4 2 2 4 5 2 2 4 6 3 6 3 3 1 2 4 5 4 3 3 7 14 13 10 7
3 3 4 14 6 3 3 3 3 3 2 4 3 4 4 4 3 3 4 1 1 2 4 3 3 1 3 1 5 2 2 5 4 2 3 2 5 6 6 3 6 8 9 8 10
3 3 9 11 4 1 3 3 3 4 3 4 4 4 4 4 3 3 5 2 4 5 3 1 4 3 2 0 1 2 4 4 4 3 2 2 6 3 6 4 5 8 7 8 9
2 2 5 5 3 4 5 2 1 5 4 2 2 2 2 3 4 2 3 2 6 3 5 4 2 3 3 4 3 2 3 4 4 3 5 4 5 1 3 8 9 9 8 7 7
2 3 4 4 2 2 4 4 4 5 3 3 3 4 4 4 5 4 2 4 5 2 8 6 3 4 5 3 3 2 4 5 6 3 3 6 7 12 12 10 14 12 4 7 8
3 2 0 3 3 4 2 0 3 4 4 5 4 2 4 3 2 2 3 2 5 8 4 3 3 2 3 3 3 4 4 8 7 6 6 4 6 13 14 15 14 5 5 10 10
2 2 1 3 3 4 3 4 3 1 1 2 5 3 5 3 4 6 5 2 3 3 3 2 3 2 3 2 4 5 8 8 10 6 9 14 20 20 18 11 6 5 7 9 8
5 3 1 3 4 2 3 3 4 3 3 4 4 4 5 1 3 2 1 4 6 7 3 4 5 2 3 4 5 5 8 12 6 5 10 8 13 15 10 6 4 4 4 6 6

GFSSW_925_spd_045.txt.gz
Wind_Speed
23 25 24 23 23 23 23 21 20 18 14 14 16 17 18 20 23 17 20 14 25 11 1 12 12 9 5 3 3 2 3 6 9 9 3 4 4 2 1 1 2 2 1 6 3
25 24 24 24 22 22 22 21 19 19 16 14 14 15 17 18 23 21 19 16 22 21 12 11 11 10 3 4 3 4 5 9 5 6 5 5 4 3 2 2 2 1 3 5 9
23 24 23 22 21 21 20 20 17 17 17 14 14 14 15 14 11 4 28 26 22 18 19 15 12 7 4 2 4 4 5 5 4 4 4 6 4 4 4 3 4 2 1 3 5
23 22 22 22 20 20 20 18 17 15 15 13 13 14 12 9 6 1 10 29 28 24 15 18 11 10 5 6 4 4 4 4 3 5 4 4 4 2 4 4 3 3 1 1 6
24 23 20 19 19 19 18 16 15 13 13 13 14 11 9 7 8 4 8 6 33 28 22 13 12 9 12 6 5 3 3 4 2 4 3 3 3 4 5 5 5 4 4 5 2
27 23 21 20 18 17 16 16 14 13 13 12 12 10 7 10 7 18 11 3 33 28 23 12 11 5 8 6 5 7 5 3 2 2 1 4 4 5 4 4 6 4 9 7 7
26 25 20 19 18 16 15 14 15 13 11 12 10 7 6 9 3 14 3 1 30 27 15 11 21 7 6 5 4 6 4 3 6 3 3 4 5 6 10 6 8 9 7 9 10
26 23 20 19 16 14 14 11 12 12 10 7 6 5 5 5 11 9 4 2 25 24 21 18 17 5 3 4 4 5 3 4 2 7 6 5 6 4 3 5 9 10 9 8 14
28 25 20 16 14 12 12 12 14 15 8 3 1 4 4 1 10 10 6 3 22 19 19 19 9 3 3 6 4 2 3 5 3 7 3 9 2 3 2 3 7 8 10 9 11
30 27 21 16 13 11 11 16 14 5 4 4 1 2 3 4 6 5 5 10 9 13 11 8 3 3 3 4 8 9 4 3 6 2 2 2 6 9 9 3 8 9 11 12 10
32 28 24 18 11 9 12 3 3 2 3 3 4 3 5 5 7 2 2 9 13 13 7 10 4 14 11 5 4 7 5 4 3 1 1 4 4 11 10 7 10 12 13 13 12
32 28 25 18 8 5 7 3 3 1 3 1 3 7 9 9 4 0 4 6 9 13 6 6 11 8 10 7 6 6 5 4 1 3 1 4 10 16 12 7 5 8 9 9 7
33 29 22 10 6 2 2 2 2 6 4 4 3 3 5 5 4 4 7 6 7 10 8 3 7 16 12 6 8 3 5 3 2 1 2 6 5 4 2 2 6 9 7 3 4
31 26 20 10 6 3 2 4 6 3 4 5 2 1 2 7 1 3 2 5 3 17 15 3 3 13 13 12 6 4 3 5 4 3 1 4 4 4 3 6 6 8 10 8 7
28 23 16 18 4 4 4 7 7 3 5 2 2 4 4 2 6 4 6 5 4 7 4 3 9 8 12 6 4 2 3 5 3 4 1 2 2 4 1 3 5 5 6 7 6
21 25 10 10 13 7 6 4 2 5 6 2 2 1 4 4 3 4 5 4 4 9 14 4 3 4 3 8 6 5 4 6 4 2 0 1 2 3 1 0 1 2 5 6 6
13 14 12 8 2 5 5 4 4 6 2 3 3 3 6 4 6 4 1 3 4 4 3 5 5 2 4 8 7 2 3 2 2 2 3 3 1 6 3 3 4 2 6 6 5
11 6 7 7 6 5 5 3 10 3 3 2 2 9 5 4 6 4 2 3 5 5 3 3 4 2 1 3 6 2 1 3 3 3 1 2 5 3 3 5 3 4 6 5 4
8 3 4 2 6 7 1 6 1 3 2 5 7 6 4 6 5 1 2 1 2 1 4 4 3 2 5 2 2 4 1 2 6 2 1 2 5 6 2 4 3 6 7 9 9
6 2 3 7 9 2 1 6 2 3 1 4 4 0 3 2 4 1 2 2 3 1 2 2 6 3 2 2 7 2 5 3 2 3 3 3 4 3 4 5 3 9 8 7 6
4 3 2 13 1 4 3 4 3 3 2 2 4 4 4 5 4 2 1 1 1 2 4 3 4 1 3 0 5 2 1 4 3 1 3 1 4 5 7 5 4 8 8 6 8
3 3 10 11 4 2 2 4 3 3 2 2 4 4 4 4 3 2 3 3 3 4 4 1 4 3 1 1 1 2 4 4 3 4 1 1 5 1 5 5 4 8 7 6 6
2 2 5 6 3 3 4 2 2 6 4 3 2 1 1 4 4 3 2 3 3 3 6 5 2 3 1 1 2 3 4 3 4 3 5 4 4 1 1 4 7 7 5 5 7
2 2 4 4 1 2 3 4 3 3 2 3 2 3 3 3 5 3 2 3 2 2 6 6 3 4 5 3 3 3 4 5 5 3 3 5 5 8 8 6 10 7 4 6 6
3 2 1 2 3 4 1 1 2 4 4 4 3 2 3 3 2 3 2 3 4 6 3 3 3 2 2 1 3 3 5 9 7 4 6 3 5 10 9 10 9 4 4 4 5
2 2 2 1 2 2 3 2 1 0 1 2 5 1 3 4 5 7 6 3 4 1 3 2 3 2 2 1 5 4 7 9 11 5 9 9 17 15 14 4 5 3 4 4 7
6 3 1 2 3 1 2 3 2 2 1 3 3 4 4 2 2 1 1 3 6 7 3 4 5 3 3 2 3 6 9 13 6 5 9 8 10 5 8 5 5 2 3 5 4

GFSSW_925_spd_048.txt.gz
Wind_Speed
21 22 21 20 20 19 19 18 18 18 16 16 12 12 12 13 18 13 11 13 18 9 3 11 12 12 10 9 6 2 9 16 22 20 14 8 11 6 2 7 5 3 3 4 3
23 22 22 20 18 18 18 18 18 17 16 14 12 12 10 10 14 17 11 19 17 15 8 19 16 17 8 9 7 11 14 20 10 10 12 10 11 9 8 9 8 6 2 4 5
22 22 22 21 20 18 17 18 16 17 15 12 12 11 9 8 9 9 17 28 21 19 15 13 18 13 11 9 11 14 15 10 7 9 5 11 10 6 8 9 7 7 2 3 4
23 23 22 19 18 17 17 16 16 15 13 12 11 10 6 4 8 7 9 25 24 22 19 17 15 15 12 14 14 9 13 7 5 4 5 11 7 7 9 3 6 6 2 1 3
25 25 20 20 17 16 17 16 14 12 10 10 10 8 5 8 13 4 11 6 27 25 26 19 21 15 18 15 13 14 6 8 5 6 5 5 8 8 9 6 5 4 5 5 3
25 23 20 18 17 15 14 14 12 11 10 10 9 7 8 13 11 11 8 5 25 31 28 23 19 14 14 11 13 12 6 11 10 6 4 6 8 5 6 7 10 11 12 10 10
27 24 21 17 16 14 12 14 12 8 7 8 8 6 10 13 2 6 14 5 23 31 22 22 17 14 9 7 8 5 14 11 8 9 10 6 14 13 14 14 14 14 11 10 10
27 27 24 15 12 11 11 13 10 8 6 6 5 6 5 9 13 3 7 7 21 25 21 15 19 11 6 5 10 13 6 9 10 15 5 8 14 2 7 9 14 14 13 11 14
31 27 23 16 11 9 9 11 13 13 7 2 3 5 4 6 8 9 12 8 23 23 18 13 22 12 6 13 9 14 10 18 5 9 12 17 8 6 6 6 8 8 8 9 11
30 26 23 17 10 7 8 12 3 5 7 6 1 3 6 7 9 11 10 5 20 19 10 12 9 12 13 14 14 18 15 12 13 6 9 9 14 6 8 7 11 12 13 12 11
30 28 26 14 4 4 5 1 2 3 2 1 2 9 5 7 13 7 7 7 13 14 12 17 6 17 21 17 2 10 15 9 7 4 5 11 11 11 11 13 14 15 15 14 13
29 27 25 11 13 3 3 2 2 3 3 2 4 5 3 5 5 6 5 8 15 19 14 8 13 15 14 13 8 13 13 10 5 3 4 4 9 13 12 13 8 10 11 11 7
26 23 21 13 9 7 6 4 2 1 1 5 4 3 3 5 9 9 1 12 17 16 16 11 12 14 16 14 12 9 11 9 3 5 1 7 7 5 5 8 7 7 4 4 5
23 18 19 2 7 3 5 5 3 1 2 5 7 3 2 2 5 7 1 3 4 9 6 4 2 19 18 16 13 10 3 7 6 4 3 3 2 4 8 9 9 10 9 8 7
20 18 14 12 3 3 3 4 1 1 3 2 3 6 4 4 9 3 2 4 10 11 3 3 3 17 19 19 13 5 7 7 4 2 3 3 4 6 10 9 7 7 6 5 6
19 14 4 8 8 4 3 5 3 3 9 4 5 0 5 1 3 5 3 7 12 15 13 4 4 4 2 7 4 13 10 8 4 1 3 3 4 7 9 8 8 3 4 3 5
18 6 5 5 3 4 5 3 1 7 1 5 3 4 6 5 6 5 4 6 3 6 3 3 4 2 7 9 4 6 8 3 3 4 3 2 4 2 8 6 7 2 2 3 5
15 2 1 2 3 3 2 2 10 4 4 4 3 12 5 3 6 5 2 4 5 8 5 2 4 2 0 2 5 4 3 2 4 4 3 2 5 3 4 5 6 2 2 3 4
10 1 2 4 4 2 1 7 2 1 2 5 6 6 4 6 5 3 4 2 3 4 4 4 3 0 2 4 5 6 4 1 4 2 2 4 4 3 6 12 5 1 1 1 4
5 1 1 3 5 3 2 5 2 3 2 2 2 1 4 3 3 3 1 2 3 3 2 4 5 2 4 3 8 2 8 3 0 4 4 4 4 4 14 13 4 4 4 3 5
2 1 1 6 3 2 4 3 2 1 2 2 3 3 5 4 2 2 2 2 2 5 3 5 3 2 2 4 7 4 3 2 2 1 2 2 2 2 14 15 5 8 5 5 7
3 0 2 5 2 2 2 1 2 2 1 2 3 5 7 3 3 2 3 1 3 4 5 2 4 5 1 1 3 1 2 4 3 4 1 2 0 2 6 6 5 9 6 6 6
4 2 3 1 2 2 1 1 2 3 3 2 2 1 2 4 3 3 2 1 3 2 5 6 3 5 4 4 1 4 5 3 4 2 5 3 3 2 3 3 6 6 6 5 5
3 1 3 3 2 2 1 1 2 1 1 1 3 2 3 2 2 4 4 2 1 1 6 2 3 2 2 3 4 4 9 10 4 3 4 7 2 6 6 7 6 6 7 5 4
4 2 1 2 3 2 1 0 1 1 1 1 2 3 3 3 2 3 3 4 2 4 2 1 3 1 2 3 2 2 6 12 9 9 6 0 7 7 9 9 9 8 4 4 4
3 3 3 2 3 3 1 2 1 1 2 1 3 4 3 3 2 6 6 4 3 3 2 1 3 1 1 1 5 5 10 11 16 17 16 16 19 16 8 3 6 6 4 4 3
5 2 1 3 3 3 2 2 2 2 1 1 4 4 3 2 0 1 3 3 3 7 4 3 5 2 1 1 3 8 16 18 11 10 15 12 11 6 8 6 7 5 2 4 4

GFSSW_925_spd_051.txt.gz
Wind_Speed
22 23 23 21 18 18 17 17 17 16 16 16 15 14 10 9 10 11 11 12 25 3 9 15 15 14 14 12 16 9 14 17 23 23 18 9 10 12 4 10 6 6 3 5 6
23 23 22 20 20 17 17 17 17 16 15 16 15 13 9 9 13 21 14 18 21 14 10 20 18 17 12 15 9 13 14 23 19 18 9 12 11 12 8 12 11 8 5 4 6
23 23 24 20 20 18 17 16 17 16 15 13 12 13 8 7 15 25 23 22 23 20 12 16 21 16 14 12 16 15 19 19 14 4 2 10 14 13 12 12 13 12 11 4 5
24 24 22 20 20 18 16 15 16 15 14 12 11 12 9 9 7 12 18 29 26 22 16 15 21 17 15 14 17 13 22 13 9 4 2 11 11 11 12 5 3 1 5 3 6
24 25 24 22 20 18 15 14 14 15 13 10 9 8 6 13 14 6 9 21 27 26 26 18 21 19 17 19 15 17 11 13 5 6 8 12 13 12 12 6 3 3 5 5 4
28 26 22 21 18 16 16 12 11 13 12 10 9 8 9 13 15 18 7 10 23 28 28 24 19 19 12 8 18 11 14 12 11 9 7 10 12 10 10 10 10 9 10 8 9
29 29 26 20 15 11 12 9 10 10 7 7 7 8 13 14 7 9 13 5 23 29 23 25 21 16 7 8 9 6 17 8 15 13 7 9 15 18 14 10 11 11 11 11 11
30 28 24 18 13 9 9 8 7 6 7 7 4 8 7 13 20 8 11 11 13 29 24 21 20 16 7 3 9 8 12 14 14 12 7 11 13 17 19 17 19 17 15 15 15
30 29 26 19 10 9 6 6 10 10 6 4 5 7 6 6 12 16 9 6 17 27 20 15 15 13 8 12 10 13 12 18 12 16 11 14 8 12 10 9 11 12 12 12 12
30 30 27 15 6 7 3 4 4 4 7 4 3 5 8 8 12 9 9 3 13 22 10 8 9 12 12 13 15 19 20 18 18 10 15 17 15 7 5 8 12 12 11 11 12
29 27 24 11 10 4 2 2 4 3 5 2 1 3 4 10 7 4 8 4 18 19 11 10 7 16 24 21 10 11 18 13 11 7 9 14 13 14 11 14 14 13 14 14 13
27 22 15 12 8 6 4 3 5 4 2 1 3 7 4 4 5 10 16 9 22 21 13 6 8 20 18 18 11 9 14 12 4 9 7 10 11 9 13 15 15 12 11 12 10
25 21 13 4 6 7 8 5 3 3 2 6 5 5 3 6 6 4 2 2 22 20 17 12 5 14 15 17 13 11 12 13 6 9 8 4 12 13 3 4 3 4 7 6 4
24 21 15 3 5 5 6 6 3 6 1 5 4 3 4 7 5 7 4 1 4 19 16 7 4 13 18 17 15 12 6 5 7 10 7 7 3 11 10 7 6 6 5 5 6
23 19 10 5 2 3 3 5 5 4 3 9 4 2 8 2 12 5 2 1 5 8 3 1 10 16 16 17 16 6 10 7 4 5 3 8 5 8 12 11 9 7 6 5 4
23 15 9 4 3 6 1 8 5 3 7 3 3 2 5 4 4 5 2 6 10 9 10 5 4 0 1 9 4 13 13 7 3 1 4 9 7 10 11 13 10 7 6 4 2
24 11 5 3 2 4 3 3 2 6 2 7 4 8 4 5 6 4 4 6 4 5 3 3 4 3 2 10 4 7 13 5 4 4 3 3 5 4 9 10 10 8 6 4 0
19 7 7 6 2 2 4 3 9 5 4 4 2 10 6 4 8 7 5 12 11 7 5 2 3 2 1 3 6 8 10 4 6 6 6 4 6 1 10 8 8 4 3 1 1
9 2 5 4 5 3 3 5 3 1 2 1 3 5 4 7 5 4 4 4 3 2 3 4 3 5 3 3 5 3 4 5 2 3 2 6 4 6 7 9 7 4 3 3 1
6 3 3 2 3 6 2 4 2 2 3 3 2 3 4 6 4 4 2 3 4 2 4 4 6 5 8 8 4 6 9 2 2 4 5 6 5 4 13 16 9 7 2 2 2
4 3 3 2 4 2 4 3 3 2 4 3 2 3 5 6 2 3 2 3 0 4 3 5 3 5 3 6 7 4 4 3 3 2 3 2 3 6 16 16 11 1 1 1 2
5 2 1 4 1 1 3 5 3 1 1 1 1 3 5 6 4 2 5 3 3 4 5 3 4 4 2 3 5 6 6 9 3 4 1 3 2 1 14 13 5 3 1 1 1
7 3 1 2 0 2 3 4 1 1 2 2 1 2 0 4 2 4 4 1 3 1 2 4 4 5 3 4 3 5 8 6 1 3 4 3 4 5 8 6 6 4 2 2 0
4 3 2 1 2 1 5 4 4 1 0 1 2 2 4 3 2 4 4 3 2 3 4 1 2 2 1 3 2 4 10 11 7 3 5 8 5 9 10 6 2 2 3 2 1
3 3 2 3 3 4 3 1 3 3 2 3 3 4 4 3 4 3 3 5 3 4 2 1 2 2 2 3 2 3 6 12 11 11 6 1 9 10 7 5 3 3 3 3 2
4 4 5 6 5 5 2 2 2 2 2 4 4 5 5 2 2 4 7 6 5 6 4 2 3 2 2 3 5 7 11 11 16 15 16 14 14 11 12 1 3 3 3 3 2
8 3 3 5 3 4 2 1 1 1 1 2 4 5 5 3 2 3 2 2 1 5 8 4 4 2 1 1 5 10 17 18 13 10 15 13 9 7 2 3 4 4 2 2 1

GFSSW_925_spd_054.txt.gz
Wind_Speed
23 22 22 21 20 18 17 16 15 15 15 15 15 15 14 10 9 12 13 10 17 5 9 19 12 12 10 5 8 9 7 12 21 16 13 3 6 6 4 5 2 4 9 8 17
23 24 23 23 21 20 18 17 15 14 14 14 14 14 12 9 12 22 19 18 19 15 9 20 14 13 4 11 5 10 11 16 19 13 8 5 1 9 5 6 5 4 11 10 15
27 26 24 23 21 19 18 17 16 14 14 15 14 12 10 8 13 24 24 24 24 24 16 18 18 12 9 6 12 9 12 15 15 2 7 3 9 3 6 5 8 9 10 10 11
26 28 28 26 22 19 17 15 14 13 14 13 12 10 9 9 7 14 30 31 25 23 19 12 17 14 9 11 16 10 18 15 10 3 2 2 2 5 8 3 9 12 9 6 7
29 31 29 27 25 19 17 12 12 11 12 11 10 8 5 8 15 18 4 30 30 25 23 14 19 14 14 16 11 17 12 18 4 6 3 4 3 7 5 2 6 8 6 4 3
30 31 30 27 21 16 9 9 8 9 11 7 8 5 7 11 13 19 9 16 28 30 25 18 16 15 8 11 12 10 15 7 8 6 1 3 4 9 7 2 7 2 2 6 5
31 31 31 27 20 11 6 5 7 8 6 5 3 6 9 14 7 5 11 7 26 30 18 23 21 14 5 7 11 5 6 8 5 8 3 2 9 14 7 4 7 7 7 7 7
31 32 33 28 15 6 4 5 6 7 5 5 4 7 5 10 18 8 5 13 10 28 23 25 18 3 2 2 5 7 3 9 6 9 6 9 6 14 10 8 9 8 8 8 9
30 32 33 20 9 2 2 5 8 10 7 3 3 6 4 5 14 18 13 12 10 28 25 17 7 3 6 6 5 7 7 13 9 9 6 11 3 16 13 13 10 10 10 8 7
28 28 27 22 11 5 2 4 2 4 4 5 5 4 5 4 9 10 15 12 11 18 9 8 4 5 9 9 11 15 10 17 13 13 14 10 9 7 5 4 8 8 7 5 4
26 26 20 17 13 8 8 4 2 2 3 1 4 6 4 12 2 3 12 6 17 14 9 10 5 15 17 16 10 10 13 13 14 8 9 12 11 10 7 7 7 8 7 7 6
24 23 21 12 11 11 8 3 3 2 3 2 5 2 4 3 3 7 10 7 10 18 16 8 9 11 12 14 13 2 6 17 4 9 6 6 9 8 8 7 8 8 8 5 5
23 23 21 13 7 7 8 6 5 6 4 5 6 4 4 7 6 2 3 6 10 14 12 8 8 12 12 12 13 5 7 8 6 6 2 3 7 9 7 0 2 2 3 5 5
23 22 17 12 7 2 2 5 5 7 1 7 4 3 4 6 6 3 6 3 3 15 10 5 5 10 11 17 14 8 6 5 11 6 3 8 4 12 8 5 4 5 4 5 5
25 20 13 8 14 3 0 5 6 2 2 8 5 5 2 8 12 5 9 2 7 8 4 2 6 11 9 14 10 3 8 5 4 5 4 7 2 3 11 7 7 7 6 5 5
25 17 8 8 6 0 2 6 7 1 5 3 2 3 2 8 6 2 5 4 7 9 12 5 3 1 1 2 6 8 11 8 4 1 2 7 6 4 7 11 8 7 8 7 6
25 10 3 4 4 2 6 2 0 5 1 7 4 4 4 7 6 5 3 5 4 5 3 3 3 4 2 9 4 8 7 2 1 1 3 3 4 6 9 11 9 8 8 7 6
17 3 1 3 4 3 5 2 6 2 3 4 1 9 5 3 4 6 4 4 1 7 4 3 1 3 5 1 5 2 4 3 4 4 4 3 5 4 7 10 9 8 8 7 6
7 3 2 1 4 5 3 3 2 2 4 3 4 3 3 6 4 2 6 4 2 5 3 4 3 1 2 3 4 3 2 3 3 2 3 5 3 3 6 9 8 7 7 7 6
6 2 3 2 5 1 1 3 3 3 4 5 1 2 4 4 3 2 2 1 6 5 7 4 5 3 0 2 5 2 2 1 1 2 3 5 6 4 10 8 8 8 8 7 6
6 2 4 3 6 2 2 2 3 2 3 4 6 2 5 4 2 3 4 2 2 3 4 6 3 3 6 5 6 1 1 3 2 1 2 2 2 1 11 9 9 7 6 5 6
5 2 5 8 1 1 2 3 1 2 3 1 2 5 3 4 3 3 6 6 4 4 4 3 4 3 2 3 2 5 5 5 2 3 1 2 3 5 9 9 8 5 6 6 6
5 2 3 4 2 1 1 2 3 2 1 1 2 4 3 1 2 4 6 1 2 4 2 4 3 4 2 1 1 3 4 2 5 3 4 2 3 3 8 7 6 6 5 5 7
3 3 4 3 2 5 1 4 2 1 1 2 3 2 3 2 2 4 4 2 2 4 4 4 2 2 3 2 3 3 6 6 5 3 3 4 4 3 6 6 7 7 6 6 7
3 3 2 3 3 7 4 5 4 2 2 2 3 5 4 3 4 4 6 4 4 4 1 3 3 2 3 5 4 3 5 7 6 5 4 2 3 11 9 8 5 6 5 6 7
4 3 4 4 7 5 2 2 5 2 2 3 3 2 2 2 2 4 5 5 4 5 4 2 3 2 2 6 4 3 7 7 8 10 10 11 8 4 5 4 5 5 6 4 5
8 8 3 6 4 4 4 8 7 4 3 4 6 2 4 7 7 6 5 5 3 6 5 5 4 2 1 3 4 6 14 15 10 9 12 10 8 2 4 5 4 4 5 5 5

GFSSW_925_spd_057.txt.gz
Wind_Speed
20 22 23 23 22 20 17 16 16 14 13 13 13 13 13 14 13 10 12 11 21 7 10 16 13 12 4 4 8 2 4 9 10 14 15 16 7 3 3 6 5 3 6 12 12
25 23 24 24 24 22 18 16 15 14 12 12 13 13 13 12 11 16 16 16 19 17 12 20 9 8 3 5 5 5 7 17 18 22 10 7 6 7 3 4 6 5 12 22 15
23 25 27 27 24 23 21 15 14 13 11 10 12 13 12 8 5 8 22 26 24 22 13 20 13 6 4 4 5 8 14 10 18 20 8 5 15 7 3 2 3 10 11 11 18
26 28 28 28 27 24 19 13 10 10 8 9 10 10 8 7 7 9 15 35 30 25 22 13 9 7 5 10 10 7 9 14 6 8 6 11 7 10 3 3 7 7 9 10 9
27 28 29 29 26 21 15 6 6 6 5 7 7 7 3 4 10 12 14 20 29 28 27 14 13 8 8 6 11 9 8 10 11 8 11 9 3 1 1 3 10 9 8 7 7
28 30 31 31 25 15 5 4 4 4 5 5 3 4 4 9 8 15 16 7 26 29 26 18 11 9 5 11 8 9 12 4 6 6 3 2 3 2 1 6 7 10 5 2 1
26 29 31 29 18 7 4 4 4 4 3 3 1 4 4 12 5 5 2 8 27 35 16 18 14 11 6 5 8 4 10 3 6 5 2 4 4 7 5 4 1 2 5 6 5
25 27 28 26 14 7 4 5 6 5 4 5 3 4 5 13 11 11 2 3 6 15 19 20 17 7 4 3 5 5 7 5 8 7 3 6 6 7 9 3 7 6 5 5 6
24 24 22 23 17 9 7 6 6 8 5 2 2 4 5 10 3 9 11 3 5 12 27 17 7 3 3 5 4 4 5 8 6 9 7 4 4 8 8 6 9 7 7 7 7
23 21 20 16 14 11 11 7 4 5 5 1 6 2 4 6 10 8 8 9 10 13 13 9 4 4 4 5 13 13 9 14 9 6 7 7 6 8 6 9 10 8 7 7 8
21 21 18 16 14 13 16 7 4 2 0 5 6 4 7 12 1 3 2 8 8 14 8 10 6 16 15 4 4 8 4 11 8 6 7 10 7 12 9 4 6 7 7 6 5
21 20 17 13 11 10 7 3 4 2 5 1 6 2 3 4 2 5 6 4 7 13 12 6 7 5 11 10 6 6 9 7 1 9 10 10 10 11 10 6 8 9 7 6 2
21 20 17 12 9 6 9 5 5 6 3 2 1 3 3 4 2 3 7 0 16 8 11 9 8 9 11 11 11 5 7 5 5 3 4 4 5 7 8 5 5 4 5 3 4
22 19 14 12 2 4 2 2 4 6 1 4 3 3 1 3 6 3 3 2 3 16 11 6 3 10 5 8 5 5 4 2 15 6 4 6 5 7 11 8 7 6 5 4 6
24 19 8 4 4 2 1 4 9 3 4 10 4 3 4 3 3 3 3 3 8 6 4 2 4 6 4 4 2 5 7 6 4 5 4 2 1 6 7 6 6 7 6 7 6
28 17 3 3 2 1 4 7 2 3 4 4 3 2 3 4 1 4 5 5 4 10 11 5 3 3 2 4 3 1 8 8 5 3 1 6 6 4 6 11 5 5 8 8 7
24 9 3 3 1 2 4 2 4 5 3 5 3 5 8 4 3 1 4 4 4 5 4 3 4 4 4 2 4 3 6 2 3 1 5 3 5 7 7 6 10 10 9 8 7
10 1 3 4 3 2 2 2 9 3 3 4 2 6 3 5 4 3 4 4 2 5 3 3 2 2 3 3 5 4 5 5 6 4 4 3 7 6 7 8 11 11 9 8 7
3 5 3 2 5 2 1 6 5 4 3 4 3 1 2 4 7 2 2 3 3 3 5 5 2 1 3 2 3 4 2 4 3 2 3 4 4 5 5 7 9 9 8 8 7
6 3 4 4 6 2 3 4 3 4 3 3 2 1 2 3 3 5 4 6 4 4 5 5 5 1 2 1 1 2 0 3 2 2 4 4 4 4 8 9 8 8 8 7 7
2 2 5 4 3 2 3 3 3 5 2 2 4 4 2 2 4 2 3 3 4 6 4 7 4 3 3 4 5 3 1 1 2 4 4 1 5 3 13 10 9 8 7 8 7
5 2 9 12 1 1 3 4 4 3 3 3 2 4 2 2 5 4 4 2 2 4 6 2 5 3 2 6 7 1 5 4 4 3 1 3 5 7 9 9 8 8 7 7 8
3 2 4 4 2 3 2 2 0 3 1 2 1 2 2 2 3 4 4 3 6 3 5 5 2 3 3 2 4 3 5 4 2 2 3 3 4 3 7 8 7 8 7 7 7
2 3 4 2 0 1 3 4 3 2 1 2 1 3 2 2 1 3 2 1 3 2 1 2 3 4 5 3 4 5 7 6 6 3 3 5 3 3 6 8 7 6 8 7 7
4 3 3 4 3 4 2 4 1 4 2 3 2 4 5 3 3 3 2 1 1 1 2 3 4 3 2 4 3 3 5 8 8 5 5 4 7 8 10 9 7 7 7 8 7
3 3 4 3 7 5 3 4 3 3 2 2 2 6 4 3 2 4 6 5 4 3 3 1 2 2 2 5 5 3 7 8 7 6 7 5 6 5 6 4 5 8 8 7 7
7 5 1 4 5 3 3 4 6 7 1 2 2 3 4 3 2 3 4 2 7 7 4 3 5 3 3 2 3 7 13 14 6 6 11 10 12 1 4 8 7 7 8 8 8

GFSSW_925_spd_060.txt.gz
Wind_Speed
21 20 21 23 24 23 22 21 18 14 14 12 11 11 11 12 14 17 15 13 20 10 7 18 16 11 2 4 3 2 4 13 11 11 3 10 10 6 8 3 4 4 4 11 18
20 22 24 24 22 24 23 21 20 14 12 11 9 10 10 11 12 18 16 16 19 18 12 20 8 7 3 4 3 6 10 14 15 16 4 7 7 12 7 6 6 6 7 18 15
20 25 25 26 27 24 20 19 14 9 9 8 7 9 8 7 3 7 24 22 18 19 18 18 15 7 5 3 4 7 15 6 13 5 6 5 14 10 9 4 4 10 7 5 14
23 24 28 28 27 22 16 13 5 4 4 2 5 6 5 4 7 5 15 16 24 22 20 19 7 9 6 8 6 6 7 15 5 5 5 4 14 14 9 5 7 10 13 6 8
23 24 27 29 24 14 8 7 5 3 2 2 4 4 4 3 7 10 14 14 17 29 26 8 9 6 6 6 9 2 12 15 9 7 11 5 14 19 19 7 2 10 7 9 7
22 23 25 26 17 10 8 7 6 5 2 2 1 4 2 7 9 13 16 17 22 29 23 13 8 7 5 6 11 7 2 7 8 8 15 16 14 17 9 7 2 10 9 7 8
21 21 21 23 16 10 7 6 5 4 2 2 1 4 3 10 6 4 12 7 21 26 12 18 10 6 7 6 4 4 9 4 12 7 7 16 17 19 11 6 3 2 4 5 7
21 19 18 17 15 11 9 6 5 4 3 3 1 3 5 5 10 10 4 9 12 20 15 22 16 6 3 2 5 5 6 5 5 8 6 9 11 16 9 8 7 4 1 4 6
19 18 17 13 13 12 10 9 4 4 3 3 3 3 6 10 1 1 6 2 3 12 14 11 5 4 1 6 5 3 6 7 7 11 6 7 4 7 4 6 9 6 6 5 6
19 17 16 14 10 10 13 9 5 4 4 1 1 2 3 4 6 7 6 4 3 7 8 8 5 5 3 6 14 12 12 11 12 9 6 8 6 4 4 4 9 8 7 6 4
20 18 17 13 8 9 11 2 4 4 2 2 2 4 4 8 1 10 4 3 3 13 7 13 6 13 11 4 4 9 7 10 4 5 5 6 4 10 6 2 5 8 7 6 4
21 18 17 12 7 7 3 4 2 2 4 4 5 2 4 7 3 5 1 2 3 9 12 7 10 5 8 4 3 10 5 6 1 5 5 6 12 9 9 6 7 7 7 7 4
22 19 18 11 5 3 5 3 2 1 0 4 1 3 3 7 5 3 3 1 5 8 13 8 8 9 9 4 4 1 6 4 4 1 1 3 6 6 7 4 6 6 5 5 8
24 21 16 11 2 2 1 2 3 2 3 6 7 3 0 1 4 4 10 2 1 16 11 7 4 9 6 4 4 1 6 7 6 6 6 3 5 7 7 10 8 8 7 7 6
24 21 12 3 1 3 4 2 6 3 5 7 4 9 1 3 2 5 5 5 9 7 5 2 4 9 5 5 5 5 5 7 4 6 5 2 0 6 1 9 9 9 8 7 8
24 16 4 2 4 3 1 3 2 4 5 5 5 7 2 2 3 3 2 3 2 11 10 5 2 4 2 3 3 1 6 8 5 3 1 5 6 5 6 7 6 5 7 9 9
19 6 4 3 3 3 1 3 4 5 3 5 4 2 7 8 4 2 2 3 4 6 4 5 4 1 2 5 3 4 6 2 1 1 5 2 4 12 6 6 7 10 10 9 9
9 2 3 2 2 4 2 3 9 2 2 2 3 5 3 2 6 5 3 4 5 7 4 4 3 1 4 3 4 3 2 5 6 4 4 4 7 7 6 7 7 10 11 8 8
2 3 0 2 4 2 3 5 6 5 4 2 2 2 3 2 2 3 3 2 3 3 5 5 0 1 1 2 0 4 4 3 5 1 3 5 6 8 1 2 7 9 9 8 7
0 0 1 2 3 1 3 2 2 4 3 3 1 2 3 4 3 2 1 2 3 4 4 6 5 2 4 1 4 3 2 2 2 3 4 4 5 5 4 7 8 9 10 8 6
2 2 2 2 2 3 3 3 3 4 4 1 2 1 3 5 7 5 6 4 4 5 4 6 4 4 4 5 8 3 3 2 3 4 3 2 5 4 8 8 12 10 9 8 8
3 2 1 1 1 0 2 4 2 2 0 3 2 2 1 3 3 3 5 2 1 6 6 5 5 4 4 4 4 1 5 4 3 4 1 3 5 3 7 8 9 10 8 7 7
2 1 1 2 2 2 4 1 0 1 1 2 2 2 1 2 4 3 3 2 2 3 6 5 1 3 2 3 1 4 4 3 4 2 5 5 5 4 3 7 6 8 7 7 8
2 2 4 2 0 3 4 3 1 1 2 2 2 3 2 2 4 3 2 2 2 3 4 4 2 4 6 4 5 5 9 7 5 3 4 6 4 2 4 7 6 6 7 8 9
4 2 2 3 2 3 3 5 1 1 2 1 3 2 2 2 2 3 2 2 3 2 3 3 4 2 3 3 3 3 6 12 9 11 8 10 8 6 10 11 11 8 6 7 8
3 3 4 2 4 4 4 4 2 5 3 3 0 7 4 3 4 5 5 3 4 1 2 2 1 2 2 1 0 2 6 8 14 9 9 3 6 6 5 3 5 7 8 8 9
4 3 3 5 6 2 3 4 6 7 1 3 3 2 1 1 1 2 3 4 5 7 4 3 4 3 4 3 3 7 12 13 7 8 11 10 14 2 4 10 8 8 9 10 8

GFSSW_925_spd_063.txt.gz
Wind_Speed
20 20 22 24 24 24 23 22 22 21 20 15 14 12 8 8 10 12 15 9 19 8 6 16 13 8 1 3 2 2 4 14 12 9 3 3 7 8 6 3 6 4 3 10 19
19 22 23 26 27 26 23 20 19 18 16 11 11 8 6 6 10 13 16 15 17 16 8 13 7 6 2 4 5 8 8 12 8 3 2 4 6 7 8 13 4 3 10 19 23
20 21 23 26 27 23 16 13 13 6 7 6 8 4 3 4 2 8 20 23 15 14 12 7 13 7 4 3 3 4 20 7 5 3 6 5 5 4 7 7 1 7 12 7 15
21 20 23 25 21 14 10 9 8 5 2 2 2 2 3 5 5 7 9 24 20 12 11 8 6 8 6 8 7 10 13 15 5 5 2 3 4 5 4 8 17 10 6 7 8
20 19 21 21 17 11 11 9 8 5 4 2 1 3 4 1 6 6 9 6 12 14 21 12 7 6 7 6 6 5 12 13 12 9 4 5 2 4 13 18 18 9 6 6 6
20 18 18 19 14 11 10 10 10 8 4 3 2 6 3 3 6 7 11 11 10 16 21 14 9 7 6 7 7 6 5 11 12 7 6 3 3 5 8 9 16 4 7 6 6
18 16 16 14 13 11 10 8 7 6 4 3 1 4 1 8 2 8 9 13 17 26 19 20 7 8 4 5 6 3 7 9 9 9 4 5 3 6 22 18 13 6 5 6 8
18 16 15 14 11 11 10 9 8 7 6 4 2 3 4 5 8 1 7 18 9 19 19 20 12 2 2 2 4 5 4 5 7 13 5 11 10 15 16 16 13 8 7 5 4
18 17 15 13 12 10 9 9 5 6 1 1 2 3 5 9 3 4 6 7 3 15 17 18 7 4 1 8 5 2 5 5 8 13 10 13 5 14 21 16 19 8 8 7 6
18 17 14 14 12 11 12 7 2 1 3 1 3 1 4 5 5 7 7 4 4 9 10 8 5 4 2 6 17 14 9 9 9 16 12 20 6 12 13 13 18 20 8 8 7
19 18 16 14 11 10 10 2 4 3 2 1 2 2 10 9 4 5 3 4 4 2 7 11 9 14 8 3 1 6 5 10 3 8 15 12 6 5 7 6 10 11 9 9 8
19 19 17 13 8 7 3 3 3 2 1 4 4 3 1 4 2 4 4 3 3 3 5 7 11 6 7 5 4 6 6 6 2 6 11 6 9 9 11 8 8 9 8 9 5
21 18 15 12 7 1 5 6 3 0 0 4 1 2 2 5 4 2 1 6 2 6 10 6 9 8 8 4 6 2 6 5 5 4 3 3 4 6 11 6 6 8 7 5 9
23 18 12 9 2 2 3 7 1 1 3 5 5 2 1 1 4 3 1 2 2 14 14 4 7 9 8 4 5 3 3 5 6 6 4 5 4 6 7 12 8 10 8 8 9
23 18 8 3 2 2 1 6 1 3 5 7 4 5 3 1 4 2 2 5 2 8 4 1 7 9 6 5 5 2 3 5 1 3 2 2 1 5 1 7 16 14 9 9 9
23 12 2 4 4 2 2 2 3 5 3 4 3 4 3 3 4 0 3 6 3 7 11 5 3 4 2 3 4 5 6 7 5 3 2 5 5 5 6 7 5 10 9 9 9
18 5 5 3 1 2 3 2 4 6 3 1 3 2 4 3 2 1 2 4 4 5 9 6 3 2 3 5 3 3 5 2 1 1 4 2 4 11 6 6 6 7 8 8 8
9 2 3 2 1 2 1 4 8 2 3 3 3 5 3 6 3 4 2 3 2 9 5 3 7 1 4 3 4 3 4 5 6 4 3 3 8 6 7 5 7 8 7 8 8
2 2 1 2 2 1 3 4 6 5 4 4 4 2 2 2 1 2 3 1 3 1 5 5 2 2 2 2 2 3 2 3 5 3 3 5 7 8 8 7 3 6 9 9 8
0 2 3 2 1 2 3 3 1 3 2 1 0 4 4 4 3 2 1 2 2 1 1 3 6 1 2 3 1 3 2 2 3 3 4 4 5 7 4 8 4 7 10 8 7
1 2 2 2 2 3 2 4 2 4 3 1 3 1 5 7 6 5 7 3 3 3 6 4 3 2 5 6 8 3 2 3 3 4 4 2 5 5 5 8 7 7 9 9 9
2 2 4 4 2 2 1 3 3 1 2 2 2 2 2 4 2 2 5 2 4 7 6 3 4 4 3 1 4 7 5 7 4 4 1 2 6 2 6 7 7 7 7 7 7
2 1 2 1 3 3 4 3 1 2 0 2 2 2 2 2 3 2 2 2 3 5 7 6 1 3 2 2 2 5 5 3 3 3 6 5 5 3 4 2 6 8 7 7 7
2 1 3 3 1 0 3 3 3 1 1 1 2 2 1 2 4 4 2 1 2 2 4 5 3 5 7 5 4 6 12 10 6 4 6 7 5 5 5 5 6 6 8 8 9
3 1 3 1 1 2 2 2 3 1 1 2 2 3 2 1 2 3 2 2 3 2 4 4 5 3 5 2 4 5 6 14 10 15 10 8 15 11 8 9 12 7 5 6 7
2 2 2 2 2 2 2 1 3 5 3 2 1 4 2 3 4 5 5 4 4 1 3 1 2 2 2 1 1 3 6 10 19 17 12 9 15 6 5 5 5 8 8 8 8
4 3 1 3 3 2 1 3 4 6 2 5 2 2 2 1 1 4 3 3 5 7 4 3 4 3 4 4 4 6 8 12 7 7 10 9 17 5 4 6 8 9 9 9 8

GFSSW_925_spd_066.txt.gz
Wind_Speed
19 19 20 22 26 26 24 22 20 19 19 21 20 15 11 7 7 9 7 7 15 11 3 11 12 5 2 5 5 1 2 9 9 7 3 2 3 6 5 3 3 5 4 3 24
21 20 20 24 25 22 19 16 17 15 14 13 11 10 9 4 5 10 16 14 18 15 8 5 6 6 2 5 5 5 11 8 4 2 5 3 5 5 6 8 7 7 11 7 21
21 18 20 23 21 17 15 14 14 12 12 4 4 6 4 3 1 5 12 21 21 15 9 2 9 5 4 4 5 5 18 4 2 8 5 2 3 3 5 4 4 6 11 6 11
20 18 19 20 16 14 14 13 13 10 10 6 2 4 3 4 4 1 13 15 21 13 9 5 5 7 8 6 5 5 9 9 2 5 3 1 3 3 2 3 6 8 8 5 8
20 18 16 16 13 13 12 11 11 9 6 6 3 2 4 2 6 5 8 5 13 13 9 6 7 5 6 5 6 3 7 12 6 5 5 4 5 2 10 2 6 13 10 6 7
19 18 15 14 13 13 11 11 9 8 5 4 2 4 3 1 2 3 7 3 5 4 11 12 6 5 4 6 7 7 5 13 11 10 6 3 4 6 9 7 10 12 11 6 7
18 17 16 14 13 12 12 12 10 8 5 4 2 3 2 7 1 10 10 6 2 11 7 20 9 7 5 3 4 2 7 6 8 5 4 6 6 7 11 9 9 10 9 7 5
18 17 16 14 13 12 12 12 11 7 4 6 2 1 3 3 7 5 8 6 11 9 17 23 10 3 2 2 5 5 6 4 5 11 4 8 7 8 4 7 10 9 9 9 7
17 17 15 13 13 11 12 13 10 6 3 1 1 1 5 7 1 1 2 3 15 9 12 16 3 3 1 7 4 5 6 6 5 15 10 10 3 11 5 6 8 10 7 8 8
19 17 16 13 12 11 11 11 4 2 1 1 4 2 1 3 4 3 2 4 4 13 8 4 4 4 2 7 18 10 6 3 6 14 9 13 6 9 7 3 9 13 11 7 8
19 18 17 14 11 9 9 2 4 3 3 2 5 3 4 6 3 3 3 4 2 7 6 6 6 14 7 4 1 8 6 6 2 6 5 11 3 6 8 4 12 15 15 8 10
19 19 17 13 9 7 3 3 2 2 2 2 3 2 1 2 4 1 1 3 4 11 12 3 9 6 6 5 6 8 7 5 2 4 9 6 9 9 12 13 16 17 16 14 6
20 20 16 10 6 2 2 5 3 2 2 4 1 2 3 4 3 2 0 3 7 7 6 5 9 8 6 5 6 3 8 6 6 5 2 6 5 7 8 10 11 15 16 8 8
22 19 13 6 1 2 1 5 1 2 3 4 1 1 1 3 3 1 1 2 4 6 7 3 9 8 6 5 5 3 5 6 8 5 4 3 4 9 10 12 8 16 18 13 9
23 17 7 2 3 3 3 5 1 3 5 5 2 1 3 1 4 3 4 4 6 6 3 3 10 8 5 6 3 2 5 6 3 4 3 1 1 5 5 16 24 22 15 10 10
21 10 2 4 2 2 4 2 2 4 1 2 1 2 2 1 2 1 3 1 1 5 4 4 2 4 2 3 3 6 6 7 5 3 2 6 5 5 6 12 3 7 15 14 10
14 4 5 6 3 6 2 3 4 5 2 3 2 2 1 4 4 2 1 5 2 5 3 6 3 2 2 7 4 4 5 3 2 2 4 1 6 11 5 6 6 8 8 9 8
6 4 5 3 6 4 3 4 6 2 2 1 1 2 4 3 5 2 5 3 4 3 5 3 5 2 5 3 5 2 4 5 5 3 3 0 6 5 5 6 6 6 7 6 8
2 4 3 1 3 3 3 4 5 5 4 2 2 3 2 1 2 2 3 1 3 0 5 5 2 1 3 2 2 4 2 3 6 2 3 4 6 8 10 8 5 7 4 6 7
2 2 2 3 2 2 3 2 1 3 2 0 2 4 3 2 2 2 2 3 3 3 2 4 6 1 1 1 5 4 4 3 3 1 3 4 5 6 6 7 7 5 7 6 7
0 2 3 1 1 3 3 5 3 4 3 3 1 2 4 4 2 2 4 3 3 3 4 4 4 2 3 3 5 2 2 2 2 4 4 2 5 6 5 7 8 7 7 8 8
2 1 2 2 1 1 1 4 3 3 2 1 2 2 3 5 2 1 4 1 4 6 4 2 5 4 2 1 1 2 4 5 3 4 1 2 7 2 6 7 6 6 5 7 6
2 1 2 2 1 2 4 2 1 2 2 2 1 2 2 2 3 1 1 4 5 5 7 6 1 4 1 2 1 4 6 4 4 3 6 4 6 1 3 5 3 4 5 6 6
3 2 3 3 1 1 3 3 2 1 2 2 1 1 2 3 4 3 2 3 1 1 3 5 3 5 6 4 4 5 14 11 10 8 7 12 7 7 6 4 4 4 5 7 7
3 1 2 3 3 3 2 4 3 2 2 4 3 4 1 2 1 2 2 1 4 3 4 2 3 2 3 2 4 3 5 17 16 15 13 6 18 15 13 8 7 8 7 7 7
3 2 3 1 2 3 6 4 6 6 4 3 3 3 1 2 2 4 4 3 4 1 2 2 3 3 1 1 2 2 7 10 17 20 16 20 21 12 4 5 4 7 9 8 9
2 2 3 3 2 1 2 3 4 5 4 5 3 1 2 2 2 3 3 1 2 7 3 3 5 3 3 2 3 5 11 12 5 6 15 15 23 3 6 7 8 8 8 9 7

GFSSW_925_spd_069.txt.gz
Wind_Speed
18 19 16 20 20 19 17 16 16 14 15 17 18 16 15 13 8 8 6 8 17 12 4 4 13 6 6 3 5 3 4 13 7 8 4 2 1 1 1 3 4 6 4 9 12
18 19 17 18 18 16 15 16 16 14 17 13 11 4 6 7 6 6 13 11 18 12 4 1 6 6 3 5 3 5 9 15 12 3 4 2 1 1 3 6 3 8 14 8 12
17 18 16 17 15 15 14 15 15 14 14 14 12 2 3 4 2 5 7 16 19 16 13 2 7 4 5 5 7 7 12 7 10 8 7 4 2 1 3 4 1 5 12 9 5
18 16 14 13 13 13 13 13 14 13 12 10 8 3 7 1 3 4 9 6 19 16 14 7 5 6 6 7 5 8 7 11 5 6 7 4 4 1 0 5 1 1 6 4 5
17 16 15 12 12 13 12 12 12 12 10 9 6 3 3 1 4 4 8 8 13 15 17 9 10 5 11 5 6 6 9 14 11 6 5 6 2 2 2 2 1 4 12 7 7
16 17 15 13 12 12 12 12 12 10 8 8 6 2 2 2 3 3 10 4 8 11 10 6 7 4 5 6 5 9 4 11 9 10 4 2 2 3 4 2 8 9 10 9 5
17 16 16 14 15 12 12 11 12 11 7 5 4 3 1 6 3 7 6 2 7 7 3 13 6 2 6 5 3 5 10 4 8 8 4 3 12 10 2 6 7 8 7 8 8
17 15 16 14 13 12 12 11 11 9 7 3 1 2 4 4 9 5 5 4 2 12 11 11 12 1 2 2 5 5 5 8 6 13 2 8 25 8 3 2 5 6 6 6 7
17 16 15 14 12 12 12 11 9 4 2 1 2 3 5 6 3 4 2 1 1 4 11 12 6 5 3 7 4 5 6 6 7 13 7 8 9 7 4 2 6 5 5 6 7
18 16 15 14 11 10 12 9 1 2 1 1 1 1 2 3 3 2 1 5 3 9 9 6 3 3 3 6 17 10 6 5 9 12 8 11 5 4 1 6 12 7 5 7 7
18 16 15 12 10 8 10 1 4 2 1 1 5 3 5 7 1 2 3 3 4 6 5 5 2 11 7 3 5 7 7 8 4 10 8 10 7 6 8 6 11 10 7 8 7
17 16 14 9 7 5 3 4 3 2 2 1 3 4 1 3 2 1 3 2 4 7 10 5 1 6 8 2 8 8 7 4 3 12 6 8 10 9 10 9 9 13 13 9 6
18 16 12 6 3 1 2 7 3 2 1 3 3 2 2 2 2 2 2 5 4 10 7 8 2 9 5 5 9 2 7 4 6 4 2 6 6 10 7 9 9 11 10 9 10
19 16 7 3 3 4 2 6 2 1 3 1 1 3 1 3 2 3 2 3 4 9 10 3 1 8 7 5 6 4 5 6 10 5 4 6 5 11 14 12 13 16 14 14 11
20 12 3 5 6 4 3 6 1 2 4 5 1 2 1 1 5 1 1 1 4 8 5 6 18 9 6 7 4 3 6 6 4 4 4 0 2 4 5 16 19 17 15 12 10
19 8 6 6 4 5 6 3 1 5 0 1 1 2 2 3 1 3 3 3 1 5 4 5 2 3 3 3 4 7 7 7 4 2 2 5 7 2 4 11 7 14 15 15 15
15 1 5 6 3 9 6 3 4 5 2 1 2 3 2 3 4 2 4 3 3 4 2 6 3 1 1 7 2 4 5 2 2 1 4 1 3 9 8 7 7 11 13 13 11
5 6 6 3 7 7 3 3 5 2 3 2 3 5 3 1 3 1 5 2 2 1 4 3 6 2 5 3 5 3 4 4 6 5 3 2 4 5 6 5 4 4 5 5 5
5 6 4 4 5 5 3 3 5 5 4 3 2 4 2 2 3 1 1 4 3 2 4 4 3 2 4 0 2 3 2 3 5 2 1 2 4 9 6 6 5 7 5 7 5
6 5 2 4 4 2 3 3 2 2 2 1 2 2 3 3 2 2 2 2 4 2 1 3 5 4 2 1 5 2 6 2 2 1 3 2 4 4 3 6 6 8 7 6 4
4 2 3 3 3 3 2 4 2 4 2 3 2 2 2 3 2 3 1 1 3 3 4 4 3 2 3 2 5 2 2 4 3 2 2 2 4 5 5 4 7 9 7 5 6
4 1 3 4 1 2 2 3 3 2 2 2 1 1 3 4 3 1 3 3 3 5 4 2 5 3 1 2 1 2 4 4 3 4 1 1 5 3 4 5 4 7 4 2 5
3 2 1 3 1 2 3 1 2 0 0 1 0 1 2 3 3 1 3 1 4 4 6 5 2 4 2 1 3 4 4 3 4 3 5 4 4 3 3 3 3 3 1 2 3
3 1 3 2 0 2 2 2 1 2 1 2 2 3 2 3 4 3 2 2 4 1 4 5 3 5 6 3 4 5 6 8 7 5 8 13 12 11 10 9 5 3 4 7 9
3 2 2 2 1 3 1 0 1 2 4 5 3 3 0 3 1 2 2 1 3 3 3 2 3 3 1 2 3 3 5 11 14 17 9 1 14 12 15 12 9 4 4 5 7
4 4 2 0 1 2 3 2 2 3 3 3 4 3 1 2 1 5 3 3 3 2 3 2 2 3 2 2 4 3 7 8 14 15 18 21 21 18 11 6 8 9 6 8 10
3 3 3 2 1 2 1 1 3 2 0 4 1 1 4 3 4 4 2 1 2 6 3 3 4 2 3 2 2 5 6 11 5 5 15 13 19 14 12 9 8 10 7 11 11

GFSSW_925_spd_072.txt.gz
Wind_Speed
17 17 14 16 14 13 13 14 14 13 16 15 16 14 12 13 12 12 14 8 16 11 2 4 12 12 9 7 5 11 10 14 20 14 7 3 4 2 2 4 5 6 2 6 3
17 15 13 14 12 12 12 12 14 14 14 15 17 12 6 5 8 8 9 9 14 13 9 10 14 12 9 11 6 9 12 21 18 9 13 7 3 1 3 7 5 8 6 6 11
16 15 14 12 11 12 11 12 13 13 12 13 13 11 5 6 5 4 6 9 18 14 14 9 15 12 12 8 11 6 15 15 19 10 11 7 5 1 7 6 7 9 9 4 6
14 15 15 12 11 11 11 11 11 12 12 11 9 6 7 6 2 3 11 8 12 15 12 10 10 11 11 11 15 12 21 20 12 15 13 11 8 2 2 6 4 6 8 3 4
14 14 14 14 11 10 10 10 10 10 9 8 6 2 2 4 4 5 11 10 9 16 15 13 17 14 14 15 14 16 15 15 12 12 13 10 5 2 4 2 2 2 10 5 3
15 15 14 14 11 11 10 10 10 9 6 5 4 2 2 1 1 5 10 5 5 15 15 14 14 10 14 13 14 14 9 19 14 14 10 12 10 3 5 5 3 2 7 8 2
16 16 13 14 12 12 10 10 9 9 6 4 3 1 2 2 3 8 6 3 4 8 12 6 7 10 10 10 9 8 14 13 18 15 7 8 12 18 16 6 8 5 2 5 6
16 16 15 14 12 11 10 10 9 8 5 2 2 2 2 3 6 3 3 3 2 8 3 2 4 5 9 3 12 9 16 10 18 20 6 10 21 25 17 10 15 12 7 2 5
17 16 16 14 12 11 9 9 9 4 2 2 2 4 2 4 3 4 3 3 4 6 4 5 2 3 6 13 12 12 11 20 8 14 8 16 12 9 10 12 15 14 9 4 2
18 17 16 14 10 10 9 7 1 3 1 2 2 3 1 5 5 3 2 1 6 10 1 7 3 2 13 15 16 18 15 18 14 13 12 15 13 3 5 15 19 17 12 9 6
18 18 16 13 10 7 6 1 3 3 2 2 5 3 3 11 3 1 1 1 5 7 8 3 4 5 22 17 6 15 12 14 11 10 14 13 13 13 9 12 14 20 18 15 12
19 18 15 11 8 5 3 2 2 2 1 1 3 2 5 2 2 3 2 5 4 2 9 4 2 7 15 10 10 16 16 13 8 14 13 12 18 14 15 16 14 14 20 22 18
18 18 14 7 5 3 2 5 1 1 1 2 3 3 1 4 1 0 3 2 6 7 9 9 7 11 17 11 10 15 17 15 11 11 8 8 13 15 15 14 13 15 17 19 22
17 17 7 3 1 3 2 5 1 1 2 2 2 1 0 5 2 6 4 2 2 5 10 3 5 8 16 13 12 13 10 13 15 13 6 11 4 11 16 17 20 21 21 17 15
16 13 3 5 4 2 2 6 0 1 0 3 3 1 1 3 5 2 4 4 5 9 5 5 8 12 16 14 8 5 11 10 10 9 4 8 5 4 6 20 22 19 18 18 13
15 8 5 5 4 5 6 3 1 1 3 0 2 3 1 2 1 2 2 4 5 4 5 9 9 3 6 3 2 14 12 9 4 4 6 11 11 6 7 12 13 18 19 19 18
11 4 6 6 3 8 5 2 1 2 1 2 1 2 2 3 3 5 4 4 3 5 6 13 11 2 1 12 9 9 17 4 4 5 5 2 9 11 8 8 6 7 12 18 18
1 9 7 4 9 7 3 2 2 1 4 1 3 6 2 1 1 1 6 3 3 4 10 3 7 5 1 6 7 14 10 4 6 5 4 3 6 2 5 4 3 6 10 8 9
8 7 4 6 7 5 1 1 2 4 3 5 5 3 3 2 1 3 1 4 5 10 2 5 2 1 2 2 2 6 4 3 4 1 2 3 4 10 3 6 4 4 6 9 10
7 6 3 8 6 3 1 1 1 2 1 2 1 1 3 4 3 2 2 3 5 1 2 4 5 1 2 2 6 3 10 3 1 4 4 3 4 4 7 6 6 6 5 7 8
5 3 4 6 6 1 2 2 1 3 3 2 2 2 3 5 2 2 1 1 1 3 1 5 4 3 4 2 8 4 4 1 0 2 1 1 2 2 8 6 5 7 6 4 3
3 2 6 8 2 1 2 3 2 3 3 3 2 1 3 4 2 1 2 1 2 4 5 1 5 4 5 3 2 2 6 12 5 5 1 3 3 4 5 4 2 5 5 3 1
3 3 2 4 2 2 2 2 2 2 2 2 3 2 2 5 3 1 2 2 2 0 2 5 4 5 2 2 1 5 9 5 3 2 6 5 3 2 4 5 4 3 8 2 5
3 3 2 2 1 2 2 2 3 1 2 1 1 1 3 3 2 4 3 2 2 1 4 2 3 3 5 2 5 7 13 13 8 5 12 13 14 9 12 11 11 14 11 6 6
1 2 1 3 3 3 1 0 3 2 2 2 2 3 1 3 3 3 2 4 3 3 2 0 3 2 1 3 3 3 8 15 13 18 13 17 18 18 20 18 15 11 7 7 7
3 3 1 3 2 4 0 2 2 3 2 1 3 2 1 2 3 3 4 4 3 3 2 1 3 2 1 1 2 3 8 9 14 16 15 20 24 20 19 16 17 17 14 12 12
3 2 2 2 3 4 3 2 3 1 3 5 2 1 5 3 3 5 3 3 1 6 4 3 4 2 1 1 2 6 13 12 8 9 13 15 18 14 17 15 13 14 13 12 12

GFSSW_925_spd_075.txt.gz
Wind_Speed
16 17 15 12 11 11 10 10 12 12 12 13 15 15 12 9 11 11 18 15 18 10 4 12 18 13 12 6 8 4 4 16 12 19 11 7 7 4 1 2 4 4 5 4 8
13 15 16 12 10 10 10 10 11 12 12 13 12 14 10 4 9 12 11 8 9 13 13 14 16 16 13 15 7 6 5 22 21 14 13 11 4 6 2 5 4 5 6 6 13
15 13 16 15 11 10 11 10 10 12 12 12 11 11 9 3 1 0 7 24 16 13 15 13 19 17 16 15 10 10 11 15 15 6 8 12 9 2 1 2 6 5 4 5 12
17 14 15 16 14 11 10 10 11 11 11 11 9 7 7 1 2 3 4 14 11 13 15 11 11 16 14 18 21 10 21 12 10 7 11 13 9 6 6 8 4 4 5 7 7
17 15 15 16 16 13 11 11 11 11 10 9 8 5 7 4 2 3 8 12 9 15 17 14 15 17 17 20 17 24 17 18 21 7 12 11 12 10 2 2 1 4 6 8 6
17 16 15 15 16 15 12 11 11 11 9 7 8 7 7 5 4 5 10 8 4 17 17 14 12 16 11 16 19 16 14 17 13 8 14 16 12 16 15 5 5 2 6 6 6
17 16 16 16 15 16 12 12 10 10 9 7 8 5 7 5 6 8 6 6 2 11 11 8 10 13 8 15 12 4 20 9 13 10 11 14 15 23 20 9 6 5 0 5 4
16 17 16 16 16 15 13 12 10 10 7 5 6 5 3 4 6 6 4 1 3 5 6 1 6 6 14 4 14 10 17 13 17 19 8 15 20 20 24 18 9 11 10 1 3
16 17 17 16 15 13 12 11 11 7 5 4 5 5 3 1 6 6 4 2 3 4 6 5 4 1 5 14 13 11 13 18 17 16 10 14 10 7 19 17 16 14 13 8 4
16 18 16 17 13 11 11 10 6 3 3 5 7 5 3 5 7 5 2 3 4 6 5 2 2 3 6 11 17 14 15 19 13 16 18 13 11 1 10 19 24 20 15 13 9
16 18 16 15 11 9 7 3 4 5 4 3 5 4 2 8 2 1 0 5 2 5 4 2 3 11 19 18 16 16 17 19 20 10 14 17 15 14 10 14 21 22 20 18 14
16 16 15 12 7 5 5 4 3 3 3 2 1 1 3 4 2 2 2 6 4 5 5 4 6 9 8 18 8 17 19 11 3 10 13 16 15 14 16 19 19 18 24 23 20
15 14 13 7 4 4 5 2 1 2 4 4 2 2 1 2 4 1 3 2 5 5 7 5 7 9 7 14 14 17 18 14 13 9 13 9 15 15 16 18 17 18 18 22 22
13 13 8 3 1 3 3 4 1 1 2 3 1 1 4 5 1 3 3 2 2 5 10 9 7 7 12 17 12 11 12 14 11 13 7 15 6 17 17 17 20 20 15 16 18
13 11 4 8 1 3 2 4 1 3 1 2 3 1 1 1 10 5 5 3 9 8 6 6 13 11 14 16 9 10 8 9 9 12 5 9 6 13 9 17 18 18 16 15 13
12 7 5 4 3 2 4 2 2 2 1 0 2 1 2 2 6 8 2 2 4 4 8 9 11 3 7 8 1 9 11 8 4 7 8 14 10 9 10 11 13 14 15 17 15
8 4 7 3 1 6 4 4 2 2 1 4 2 2 4 1 1 2 4 3 3 5 4 7 8 4 5 9 9 16 16 5 5 4 6 1 10 12 1 4 4 2 10 13 16
3 8 5 2 8 7 2 3 3 1 4 3 4 5 3 5 2 2 2 3 2 5 10 4 3 4 7 10 7 14 17 4 5 7 10 5 6 6 4 3 3 5 8 8 7
11 5 4 5 7 5 2 3 1 3 5 6 7 3 4 2 2 3 3 2 2 10 1 5 2 2 1 3 5 9 4 4 3 5 0 7 6 10 4 8 7 7 4 6 7
8 6 4 6 6 3 1 3 0 1 2 3 3 2 3 5 6 4 2 2 5 4 4 4 5 3 4 3 1 4 9 4 1 4 5 5 5 3 8 7 6 5 4 3 3
8 3 5 7 5 3 1 2 1 3 3 3 0 3 4 6 6 5 4 3 4 5 4 6 6 3 8 7 10 4 4 4 3 2 3 2 3 8 8 7 8 9 9 8 5
6 3 6 9 3 1 2 3 1 4 4 2 2 2 4 6 5 3 4 2 4 5 6 2 4 4 6 3 4 5 12 12 5 5 2 4 2 4 10 4 4 5 5 6 6
3 3 3 3 3 4 4 3 2 5 4 3 2 1 1 5 2 2 4 2 5 3 5 5 5 4 1 4 5 6 11 8 10 3 4 5 2 4 2 5 6 3 8 11 5
4 4 3 3 6 6 6 5 5 2 2 2 1 3 5 4 0 5 5 3 3 2 0 1 4 4 3 4 3 8 15 14 9 5 10 12 13 9 5 7 9 11 13 9 4
3 2 3 4 6 7 3 4 7 5 2 2 4 3 3 4 4 4 4 6 4 4 2 2 3 2 1 3 3 3 12 17 14 17 10 14 15 16 15 15 13 13 15 12 10
3 3 3 3 4 8 5 6 9 4 2 4 3 2 2 1 4 3 3 3 3 6 5 2 2 2 3 1 3 6 9 11 18 19 18 19 18 14 10 10 8 12 13 12 10
3 0 3 4 6 7 5 6 7 5 3 3 1 2 6 4 5 4 4 2 3 3 8 4 4 3 2 1 3 8 14 15 11 10 12 14 16 13 13 11 12 13 13 14 13

GFSSW_925_spd_078.txt.gz
Wind_Speed
16 14 15 16 11 10 11 12 12 13 14 15 17 17 18 16 13 12 16 16 15 15 6 10 15 15 11 3 3 4 5 10 19 2 6 6 4 1 5 6 5 6 5 8 13
16 14 14 14 14 10 11 11 12 13 15 15 15 15 17 16 14 16 15 12 7 6 8 11 16 16 5 6 4 6 4 12 12 12 12 7 5 6 3 7 9 9 12 13 12
16 17 13 15 15 13 11 11 12 13 13 13 13 14 14 12 7 6 9 11 9 11 14 14 15 13 13 8 7 8 11 11 3 6 8 10 6 1 4 8 8 8 10 8 11
15 16 15 14 14 15 11 11 11 13 11 12 12 11 12 13 6 2 7 9 11 14 18 17 10 9 13 13 11 6 12 16 7 7 4 5 8 5 11 7 5 9 12 5 8
15 16 15 15 14 15 14 11 12 12 11 11 11 10 10 7 5 3 2 8 16 19 17 12 13 10 14 15 17 14 10 15 10 3 7 9 7 7 11 9 6 8 11 8 5
15 16 16 15 15 14 14 11 12 11 12 12 10 10 9 5 5 8 8 14 14 16 15 11 6 12 11 14 19 17 16 11 12 9 2 7 7 9 7 9 8 5 9 9 8
16 16 16 17 16 15 13 11 12 10 11 11 9 9 10 4 7 8 8 11 9 12 9 9 10 3 5 9 15 9 15 3 9 9 4 3 19 9 7 6 7 6 8 9 8
15 15 16 16 16 14 12 13 11 10 9 8 8 8 3 4 2 7 9 3 7 11 6 2 5 2 3 11 8 8 3 8 9 6 2 6 10 9 8 8 6 4 5 8 6
15 15 17 15 15 13 10 12 11 9 7 6 6 5 3 2 9 7 7 10 9 5 8 3 4 1 1 5 5 11 8 16 16 16 4 6 11 14 14 11 9 7 5 6 9
14 15 17 15 13 11 11 8 7 4 6 7 8 3 6 6 7 6 2 4 4 4 5 4 4 3 2 4 10 10 8 9 11 12 9 13 18 5 16 11 11 6 6 8 4
14 15 15 13 10 9 6 5 4 4 7 1 5 6 6 10 4 2 1 3 3 3 3 4 2 7 10 8 7 10 11 13 10 10 14 13 8 5 3 5 6 8 10 7 9
13 14 13 11 7 6 3 4 5 2 2 2 2 2 5 2 2 1 1 2 3 4 4 4 3 5 7 15 6 2 11 4 3 8 2 11 12 12 10 10 13 13 14 14 14
13 12 11 6 5 4 7 3 2 3 4 4 1 1 2 1 3 2 4 2 2 2 4 2 5 8 4 2 2 8 11 13 6 6 10 8 9 10 14 10 12 12 11 14 18
12 11 8 3 2 2 4 4 2 2 1 4 3 3 4 2 0 1 3 1 2 5 2 4 4 7 5 7 8 8 17 13 16 7 4 8 3 12 15 14 13 9 10 9 8
11 11 5 8 3 3 2 3 0 2 1 2 4 4 3 2 5 4 2 3 5 5 5 3 10 6 5 8 13 4 13 4 7 8 1 6 2 6 12 9 9 9 10 9 8
10 8 4 4 4 0 3 2 2 1 2 1 3 3 4 6 4 3 1 4 2 2 2 3 9 4 2 10 5 5 7 9 2 3 2 6 3 5 5 9 8 8 11 11 9
8 5 9 3 1 5 4 4 1 2 4 3 3 4 4 4 5 6 6 4 3 5 6 12 5 1 3 1 6 7 7 3 2 1 3 1 5 9 1 6 2 6 1 3 9
4 10 6 1 6 6 3 2 2 1 4 1 5 6 3 4 2 9 6 4 8 4 4 4 1 3 6 4 2 6 5 4 4 3 4 2 2 5 4 8 7 7 4 6 5
13 8 5 5 5 3 3 2 1 4 5 6 6 4 3 4 0 3 3 3 1 1 1 4 3 3 4 3 4 2 3 1 4 4 4 4 5 3 6 5 4 4 5 1 4
9 8 6 7 6 2 2 4 2 3 3 5 3 5 3 4 4 4 1 2 4 4 6 4 5 3 2 3 2 4 2 2 3 1 1 4 4 3 5 6 8 8 8 7 5
6 3 7 9 5 2 2 4 1 5 2 1 5 3 3 4 5 4 5 1 1 3 4 1 4 2 2 4 5 2 2 2 1 3 0 2 1 7 9 9 9 7 6 5 5
6 3 7 10 3 1 3 5 1 7 4 2 3 1 3 6 4 2 3 1 2 3 1 6 1 3 3 5 3 6 2 7 3 3 1 3 4 3 9 8 8 7 4 3 6
3 3 3 3 4 4 5 4 3 5 5 4 3 1 4 3 2 5 6 2 3 4 3 3 2 3 2 3 4 4 5 6 1 3 3 3 4 4 6 4 5 5 4 4 6
3 4 2 2 6 5 6 7 6 0 1 1 2 2 3 4 1 4 5 2 1 2 3 4 4 0 3 1 2 4 8 8 5 2 3 5 4 3 6 7 7 8 2 5 3
2 3 7 5 6 10 2 7 7 5 2 4 4 5 3 2 4 4 8 5 4 2 1 2 3 3 2 2 2 0 4 8 7 11 5 5 9 6 7 6 4 3 4 5 5
3 3 2 0 2 10 5 5 9 4 1 6 3 3 4 5 7 2 5 6 5 5 5 1 2 3 2 3 2 3 7 8 12 11 10 12 15 12 2 0 4 7 7 7 7
3 1 0 2 5 6 7 6 6 9 1 5 4 2 4 5 5 4 5 3 3 5 6 6 4 2 1 2 2 5 12 13 7 7 10 13 12 3 4 5 6 6 6 7 8

GFSSW_925_spd_081.txt.gz
Wind_Speed
15 14 12 13 13 13 10 11 12 13 13 14 14 16 16 18 18 10 11 17 15 23 14 10 7 13 12 3 4 2 5 7 5 4 4 5 3 2 1 5 4 3 2 11 21
15 15 15 11 14 15 12 10 12 13 14 14 14 15 15 16 17 10 9 14 18 10 8 9 4 12 4 5 4 6 7 7 2 2 5 5 4 3 4 6 4 6 5 10 24
14 15 15 13 15 14 15 11 11 13 15 12 14 15 14 16 6 3 10 10 8 9 5 7 8 11 6 3 6 6 9 1 6 5 7 5 3 2 6 4 2 8 8 6 4
14 15 16 14 13 13 14 15 11 12 13 12 12 14 15 10 4 4 6 9 10 7 10 6 2 6 5 9 6 5 9 4 4 7 6 3 4 4 4 5 5 10 9 6 8
14 14 15 15 14 14 14 15 11 12 11 13 13 12 11 2 5 6 4 15 7 3 7 5 6 6 9 8 7 11 7 7 4 5 10 6 3 4 5 6 8 9 5 6 7
15 15 16 14 15 15 14 14 11 12 11 12 11 10 3 6 6 8 8 7 18 14 8 11 8 7 8 4 12 8 7 7 8 4 4 5 2 2 5 4 8 10 7 6 6
15 14 16 15 15 14 14 13 12 12 11 11 9 6 5 8 11 9 12 12 14 17 9 18 8 3 2 4 2 9 9 5 7 9 4 8 7 3 4 5 7 8 7 6 5
14 14 15 15 15 14 13 12 13 11 11 9 7 5 4 4 10 12 15 9 11 11 9 6 8 2 1 7 4 8 3 6 9 7 3 4 9 15 8 8 7 8 6 7 6
12 13 15 16 14 13 12 13 11 12 9 6 4 4 4 4 8 12 11 9 9 11 11 12 4 3 1 1 4 8 5 9 6 7 5 11 4 9 5 6 8 6 6 5 5
12 12 15 15 14 10 12 10 8 9 5 7 9 4 3 3 8 10 9 7 3 4 5 5 5 2 2 1 7 8 6 10 9 10 8 5 5 4 4 6 9 7 6 4 5
11 12 13 14 12 8 9 4 3 1 5 1 4 6 4 9 4 4 5 8 0 3 3 4 2 6 5 3 4 5 5 7 9 14 8 8 6 7 4 7 8 7 7 7 6
10 10 11 13 8 6 4 2 1 1 1 3 3 3 3 2 3 3 5 1 3 3 4 3 2 3 5 6 6 4 3 2 5 17 7 13 9 8 11 6 7 9 8 8 7
9 9 8 9 4 4 5 5 0 3 2 2 1 2 1 1 3 4 6 2 4 3 4 3 3 3 4 4 1 3 3 4 8 9 2 4 4 4 7 8 9 9 7 7 11
9 7 6 3 2 2 3 5 1 2 3 2 2 2 3 2 1 3 5 3 5 2 4 1 4 5 10 5 4 3 7 4 8 4 4 3 1 14 15 16 11 10 8 9 9
9 7 4 9 2 1 3 2 1 1 1 5 4 5 2 2 4 1 5 3 3 1 2 3 2 4 5 6 8 5 9 8 9 6 5 3 3 6 6 11 16 14 10 10 9
9 6 5 8 5 2 2 2 1 3 4 2 3 3 3 4 3 3 1 3 3 2 4 1 3 1 1 5 8 8 2 9 6 2 1 5 4 4 4 15 6 6 10 10 9
9 6 14 6 2 6 5 2 2 2 3 3 4 4 6 4 4 1 3 3 3 5 2 7 3 3 2 3 2 1 6 3 2 2 4 4 4 7 3 5 9 10 6 4 9
9 13 12 2 7 7 4 2 2 2 5 3 3 4 3 4 3 3 0 0 2 1 3 2 2 3 1 2 5 7 4 4 4 3 3 0 5 5 4 3 6 7 8 6 5
18 15 7 8 8 8 2 2 3 5 5 5 4 4 3 3 2 6 6 4 4 11 2 4 2 3 4 3 2 5 3 2 4 2 4 3 5 6 4 6 4 5 6 6 5
18 11 7 9 8 5 1 5 2 5 3 6 3 4 5 6 3 5 4 3 2 2 2 2 4 3 2 3 2 3 3 3 3 1 3 3 3 4 5 6 7 7 7 6 5
14 4 10 11 7 2 3 5 2 3 0 1 6 4 3 5 3 4 6 2 2 2 2 3 4 1 3 0 2 3 2 2 3 4 3 2 5 6 8 9 9 7 5 5 4
8 3 12 13 2 2 4 5 3 5 1 1 0 2 2 5 5 2 4 4 5 4 2 2 5 3 3 3 3 2 2 1 4 3 1 4 3 3 8 8 9 6 4 4 3
5 3 6 4 4 4 5 3 3 5 4 4 3 0 2 2 3 5 4 4 3 2 2 2 2 3 2 3 3 2 3 3 2 3 2 4 4 1 6 7 7 8 3 3 4
4 4 2 3 2 1 4 5 4 2 3 1 2 2 0 3 4 4 2 1 3 4 3 4 3 5 5 4 4 4 6 5 4 3 2 5 0 1 4 5 5 2 4 2 5
3 4 6 6 7 11 3 7 6 4 1 4 1 2 2 3 3 4 3 2 3 3 3 3 3 3 2 3 2 2 4 7 7 6 6 5 8 5 3 3 3 3 4 5 7
4 4 2 4 3 13 6 5 7 4 4 4 2 4 3 4 1 3 4 3 4 1 2 2 1 2 2 2 2 3 5 6 6 4 7 5 7 5 5 4 4 2 3 3 5
4 3 4 2 5 6 5 5 6 9 3 4 2 5 5 3 2 1 1 2 3 6 5 4 4 2 3 2 2 5 8 10 5 4 7 7 7 2 2 2 1 4 5 5 7

GFSSW_925_spd_084.txt.gz
Wind_Speed
11 11 12 13 10 13 13 12 12 11 13 14 14 16 17 17 18 13 6 7 9 15 20 20 12 14 8 4 6 5 5 12 6 9 4 3 4 2 2 6 3 2 6 14 36
11 12 12 13 12 14 13 13 11 11 12 15 13 16 16 16 18 10 6 12 13 15 12 16 5 7 4 5 5 7 7 12 4 1 2 2 2 4 4 3 4 2 8 20 25
12 11 13 13 13 14 13 13 13 10 12 12 13 15 15 15 5 4 5 8 12 8 11 10 8 2 6 3 5 4 10 7 2 3 2 3 1 2 8 3 3 9 16 16 21
13 11 11 12 14 12 13 13 14 11 12 11 13 14 16 3 4 4 6 6 15 4 10 7 6 4 6 9 6 4 6 12 4 5 3 4 8 4 2 4 6 8 9 8 16
13 12 11 12 13 14 14 13 13 11 11 10 12 12 9 2 6 11 9 6 16 8 7 7 11 7 7 9 3 10 8 14 5 4 5 6 5 1 4 5 6 8 7 7 7
12 12 12 11 12 12 15 13 12 11 11 10 11 10 2 3 4 13 10 11 23 10 7 7 5 4 4 5 11 13 8 13 14 4 6 7 5 2 1 4 6 6 7 6 7
11 11 11 11 12 12 14 12 11 10 10 10 9 7 3 9 10 12 14 9 20 15 9 11 4 2 3 3 3 6 9 6 11 12 3 5 2 3 5 4 7 4 4 5 7
12 9 10 11 11 12 12 12 10 10 9 10 7 6 5 8 9 14 16 9 7 12 15 9 10 9 3 4 2 9 6 7 6 14 4 6 4 3 7 7 6 5 3 4 6
14 9 9 10 10 12 9 11 9 8 8 7 6 3 6 8 8 14 9 8 7 10 5 1 1 2 0 2 4 3 3 9 4 5 5 7 5 10 5 7 4 6 6 4 4
14 9 9 11 9 9 8 11 4 5 2 3 9 3 4 4 9 11 10 9 3 4 3 5 5 3 3 1 8 6 6 3 6 4 5 10 6 5 6 6 6 6 6 6 5
15 11 7 8 7 5 6 1 3 1 1 4 3 2 3 11 8 6 7 11 2 5 2 5 2 3 3 2 4 3 10 8 6 10 5 6 10 7 9 7 8 7 6 5 7
14 14 5 5 3 2 3 2 2 1 3 6 2 2 1 2 3 6 12 3 4 3 3 4 1 2 10 2 6 3 10 7 5 12 9 10 14 9 13 11 6 8 8 8 5
13 15 4 2 2 2 4 3 2 1 1 3 1 1 1 2 2 4 7 4 4 4 4 5 2 6 6 4 8 5 9 6 7 12 10 6 5 7 8 9 5 7 8 6 8
15 14 6 4 3 4 3 5 3 2 3 3 2 2 2 1 2 2 5 2 5 2 3 4 4 3 7 2 0 5 6 2 13 12 3 2 2 7 9 10 8 8 8 8 8
16 13 8 10 4 5 4 4 3 3 3 4 3 5 3 2 2 3 4 3 3 2 1 3 9 6 3 3 5 3 4 5 6 3 3 8 4 5 5 10 9 11 10 10 9
17 14 11 10 6 6 6 5 3 3 4 2 4 3 4 6 0 1 1 4 1 2 1 2 2 1 1 3 4 3 3 8 7 3 0 6 4 5 4 7 6 8 9 10 9
18 15 16 13 4 11 9 3 2 2 1 4 4 4 4 3 3 2 3 1 2 4 2 3 2 3 1 5 5 2 4 2 2 1 3 3 3 8 5 4 7 9 10 8 7
20 16 19 5 11 13 7 4 4 5 5 3 4 3 4 6 4 2 4 3 2 2 2 2 2 3 2 3 6 3 4 4 4 4 3 4 5 5 2 2 3 1 5 5 3
22 19 15 15 12 13 3 2 6 6 6 7 3 3 3 2 4 4 2 5 5 6 2 2 3 2 3 2 2 3 1 2 5 2 3 3 5 6 6 6 6 8 7 6 6
22 10 8 16 14 7 1 5 4 4 5 4 5 5 6 5 4 4 2 3 4 6 7 0 4 3 3 0 2 4 3 1 3 3 3 2 3 3 2 3 3 5 6 5 4
17 5 11 17 12 2 4 6 4 4 4 7 6 4 4 6 4 3 7 2 3 3 2 4 3 3 2 5 1 3 1 3 3 3 3 2 4 5 8 7 8 5 4 5 5
7 5 19 19 3 3 5 4 6 5 2 2 4 4 4 6 5 4 6 3 4 3 3 1 4 3 1 2 1 1 2 2 4 2 1 3 4 5 8 7 7 6 3 1 2
3 4 9 7 4 5 4 5 5 4 5 5 4 1 2 4 2 4 3 2 5 3 2 2 2 3 2 4 3 1 3 3 4 3 2 3 4 4 5 3 4 5 1 3 3
5 5 4 2 1 4 4 5 4 3 4 3 3 3 2 2 3 3 2 3 3 3 3 3 3 5 5 5 3 3 4 3 4 3 2 4 2 2 2 4 2 4 3 2 3
3 4 5 7 9 7 2 6 5 5 2 4 1 3 3 3 2 3 3 2 3 2 2 3 4 3 0 3 2 2 3 6 7 5 5 4 6 6 4 0 0 5 3 3 2
5 5 3 3 7 15 6 4 8 4 5 4 4 4 6 4 3 4 5 3 3 1 2 2 2 2 2 1 2 1 3 3 4 4 6 4 6 5 3 4 3 2 3 3 6
3 3 5 8 5 10 5 6 8 9 4 3 5 6 6 5 3 2 1 2 5 6 2 3 4 2 2 4 5 5 6 6 4 4 5 7 7 5 5 4 2 2 2 3 4

GFSSW_925_spd_087.txt.gz
Wind_Speed
13 12 12 12 11 11 15 13 15 12 12 13 14 13 15 16 16 16 6 7 8 14 15 15 20 19 22 5 6 3 8 9 13 15 6 6 5 3 3 6 1 7 5 12 30
14 13 12 13 12 12 14 13 15 15 12 13 13 13 14 15 18 11 7 8 12 15 15 10 11 6 10 5 4 8 6 8 7 3 7 4 4 7 5 3 0 4 6 35 38
14 13 14 12 13 13 12 13 13 15 11 12 12 13 13 16 5 5 4 5 9 12 9 7 12 5 9 5 6 6 11 12 18 2 2 6 2 6 7 4 6 10 15 17 21
15 14 14 15 13 12 11 13 12 13 11 11 10 12 12 4 4 4 5 6 7 8 6 6 5 8 4 8 6 8 16 9 14 2 2 5 4 1 1 3 4 9 21 21 16
15 15 14 14 14 13 11 13 12 12 11 10 9 9 5 2 7 9 10 12 8 15 8 6 5 6 7 5 6 12 12 9 9 5 5 2 4 3 3 5 8 10 13 19 13
15 14 15 14 14 13 11 12 12 11 10 9 8 7 1 5 5 11 12 10 11 17 13 6 5 5 5 5 13 4 11 19 8 11 6 5 3 2 3 6 6 11 9 11 11
19 13 15 15 15 12 12 10 8 10 10 8 7 5 4 11 8 13 14 5 27 12 7 11 9 6 2 3 4 8 14 7 8 6 3 6 2 4 4 3 6 6 5 7 6
20 13 15 15 15 15 13 9 7 9 8 7 4 3 5 9 11 14 14 6 15 12 11 8 11 5 5 3 3 7 3 9 3 7 2 10 5 2 5 6 4 6 4 6 10
21 14 14 14 16 16 11 8 5 7 7 6 3 2 7 10 5 10 10 7 10 8 4 2 6 4 4 4 4 3 3 3 3 10 3 4 3 5 7 7 6 2 2 3 3
21 16 13 14 14 14 8 8 1 3 2 4 2 2 5 5 8 11 12 9 3 8 8 4 4 1 2 2 6 5 5 6 4 8 10 6 8 11 10 5 6 6 5 4 3
24 16 13 12 12 8 9 3 4 1 3 4 2 3 2 10 3 8 11 10 2 1 5 3 3 1 6 2 2 7 9 5 6 11 10 8 4 11 13 9 6 5 5 5 5
25 17 12 10 10 8 9 3 4 3 4 6 4 2 2 2 3 6 14 4 4 2 4 5 4 4 3 2 4 7 8 3 6 12 4 4 8 7 11 10 5 6 7 8 4
25 18 10 9 7 9 9 6 6 4 0 3 2 2 2 0 1 3 5 4 3 5 2 5 2 6 2 3 4 2 7 5 6 8 3 5 5 8 6 10 7 8 6 7 8
32 20 12 8 5 8 5 10 7 4 4 3 2 2 2 3 2 1 3 1 4 1 5 4 5 1 7 0 3 4 2 5 16 6 2 5 4 5 10 9 15 11 8 8 8
33 21 14 18 4 5 7 12 9 3 3 3 2 2 2 3 2 2 3 3 1 2 1 1 3 4 4 1 3 4 4 3 8 7 2 6 2 5 7 11 21 8 10 10 9
33 23 16 15 9 7 14 13 7 4 6 3 3 3 3 3 2 1 1 3 1 2 2 3 1 1 1 3 5 5 8 11 6 2 1 7 5 4 3 9 9 7 8 9 9
35 25 21 14 6 19 16 4 5 2 1 4 4 3 2 3 2 3 3 1 1 3 2 4 2 5 2 5 7 2 2 3 2 2 1 4 5 7 7 5 5 9 9 8 5
36 24 21 19 13 22 11 4 3 4 5 2 4 3 3 4 1 3 4 1 3 1 2 3 2 2 2 2 3 3 1 3 3 2 3 3 4 4 3 4 2 2 3 5 4
17 20 15 16 24 22 2 4 6 7 6 6 3 3 2 3 2 1 2 3 4 6 2 4 1 3 1 0 1 4 3 0 5 3 3 2 4 6 3 6 7 8 8 7 6
11 11 9 22 21 10 2 4 3 4 4 3 5 5 5 5 2 4 2 4 3 7 2 2 3 2 2 2 3 1 1 4 3 3 2 2 3 3 1 2 5 6 6 6 5
15 4 15 23 16 1 3 5 3 5 5 5 6 4 4 6 5 4 4 3 2 5 6 3 2 2 2 4 2 4 3 5 3 3 3 2 4 4 5 4 7 5 4 6 6
10 4 23 26 4 3 3 6 2 4 3 4 4 4 6 6 4 4 5 4 3 3 5 4 4 3 2 1 0 0 2 3 4 2 2 3 4 5 3 4 4 5 2 3 4
7 3 12 7 5 4 2 2 3 4 5 4 4 4 2 5 4 2 2 3 2 2 2 2 2 3 6 4 2 2 3 3 4 2 1 3 4 5 7 6 3 1 3 2 5
4 4 2 2 1 5 5 4 6 5 4 3 3 2 3 4 4 4 2 2 3 2 5 5 3 4 5 4 4 3 4 4 4 3 3 4 2 2 4 5 0 3 3 5 6
2 3 4 7 9 4 6 3 11 5 1 5 1 3 5 4 4 3 2 2 4 4 3 3 3 3 3 3 2 1 1 5 4 4 5 4 4 4 5 1 0 2 2 2 5
5 4 2 2 12 8 5 4 11 3 4 4 5 3 3 5 5 6 6 3 3 3 3 3 0 1 4 5 6 2 2 1 3 3 5 3 5 5 6 4 5 5 1 3 4
3 1 4 6 8 12 6 4 7 7 3 3 6 5 4 4 5 5 2 4 5 6 3 3 4 2 2 3 4 5 4 4 3 3 4 5 7 4 2 4 4 2 1 1 5

GFSSW_925_spd_090.txt.gz
Wind_Speed
16 15 15 14 14 14 15 15 14 13 14 12 11 13 13 14 15 20 7 6 5 13 15 15 16 14 14 5 5 1 7 12 19 18 12 7 11 4 1 7 1 10 7 15 19
19 16 15 15 13 15 14 16 13 14 12 12 11 12 13 13 18 12 11 6 7 10 15 12 10 5 3 6 5 8 10 18 10 10 5 13 11 7 6 5 4 4 9 33 30
23 17 15 16 15 14 14 15 15 14 11 12 11 10 11 15 5 5 1 4 6 9 13 16 12 3 6 8 8 6 13 13 7 13 6 8 6 4 7 7 7 16 18 22 34
24 19 16 15 15 15 15 14 16 13 11 8 8 8 10 4 5 2 2 6 8 6 12 8 5 3 5 13 17 7 13 14 11 12 2 7 1 4 4 2 2 15 22 21 22
24 21 18 13 15 16 14 13 17 14 11 7 6 6 4 2 8 6 8 10 14 16 7 7 6 4 9 4 11 15 8 8 12 11 12 15 5 5 2 5 2 15 19 21 24
23 22 20 12 14 16 15 14 15 15 11 6 5 3 2 4 3 6 12 14 16 16 18 10 5 6 6 9 12 6 12 12 6 13 7 9 5 4 3 6 8 19 21 17 17
31 22 21 13 14 16 16 14 12 14 10 7 3 2 3 10 5 13 16 16 17 20 11 13 7 3 3 7 13 11 3 10 5 9 9 9 5 4 6 7 5 12 14 15 8
34 22 18 13 11 14 15 14 10 14 11 6 2 3 5 8 10 13 13 10 8 4 7 6 9 1 4 8 2 6 4 8 2 12 13 10 8 3 9 7 7 1 8 15 13
36 32 18 14 9 11 14 13 10 12 11 5 4 4 7 10 5 13 9 5 5 2 1 3 8 0 6 7 2 4 3 5 4 6 15 11 6 2 6 8 9 7 5 5 11
31 33 19 13 8 8 12 11 10 8 7 5 3 1 4 4 6 9 8 5 3 1 3 4 3 1 6 3 4 6 5 5 5 1 6 8 7 5 5 8 7 8 5 2 6
31 29 18 12 7 6 5 3 2 2 7 7 6 3 1 7 5 5 7 4 2 2 3 2 1 3 4 4 2 7 7 7 4 2 4 6 5 9 9 7 7 7 6 3 4
29 31 18 11 7 6 5 3 5 1 5 7 2 2 1 1 3 5 7 3 3 3 2 1 2 4 7 3 4 7 12 6 9 6 5 7 6 4 8 7 5 5 7 4 3
28 29 14 9 5 6 8 10 6 2 2 1 3 3 2 3 2 5 4 1 3 5 4 2 2 4 6 3 4 2 6 6 7 7 5 1 3 2 2 10 9 4 6 4 5
26 23 10 8 4 5 3 12 9 3 3 2 1 1 3 2 3 3 3 1 3 1 3 1 2 2 5 2 4 3 4 5 15 6 2 2 4 3 9 8 10 12 5 6 6
25 19 11 14 1 4 2 10 7 2 3 2 2 3 3 2 2 2 3 3 1 2 2 3 3 5 3 2 5 3 3 4 5 6 5 2 2 3 5 6 11 5 7 7 7
23 19 20 12 11 4 6 7 0 4 5 4 3 3 2 3 1 3 2 3 1 3 2 3 2 2 2 2 3 0 6 8 7 3 2 5 3 4 5 7 3 4 7 9 7
21 24 22 15 5 11 11 4 3 3 1 4 4 4 1 2 2 1 1 3 2 2 2 4 2 4 2 4 0 4 3 3 3 2 2 2 2 6 6 6 3 4 7 8 5
24 24 28 23 10 15 9 2 2 3 5 3 4 3 3 4 1 2 2 1 2 2 2 3 4 3 4 2 3 1 4 1 4 3 2 2 2 4 4 5 3 3 5 7 5
21 20 12 22 18 19 4 3 5 6 6 8 4 3 2 3 3 2 3 2 3 6 1 2 3 2 4 3 2 1 3 2 5 3 3 1 4 4 4 7 8 8 8 8 7
10 9 6 15 19 12 3 5 4 2 4 5 4 4 4 5 3 2 3 2 2 5 2 1 3 3 1 4 3 2 1 4 4 2 4 4 2 1 5 5 5 7 7 7 6
9 3 9 18 21 3 5 5 5 5 3 5 4 4 4 5 5 4 4 2 2 2 2 2 3 3 1 2 1 3 2 4 4 3 3 3 3 2 5 2 5 6 6 7 7
3 3 18 30 3 3 4 4 3 4 3 3 4 3 6 6 4 4 5 2 1 4 3 1 4 3 2 1 1 2 2 2 4 2 2 2 3 4 3 5 6 6 6 5 5
3 2 17 14 4 5 1 3 2 3 4 3 4 3 3 5 4 3 4 1 3 2 4 3 3 3 6 5 5 3 3 4 4 3 1 3 4 3 5 5 3 6 5 4 4
4 4 3 3 1 4 4 4 4 4 3 4 3 3 3 3 4 4 2 2 1 2 4 5 3 3 5 3 2 2 3 2 4 3 2 3 2 1 3 5 2 2 5 6 5
3 3 3 7 7 4 6 4 5 4 2 3 2 2 4 3 2 3 2 2 3 2 3 3 4 3 5 3 2 1 2 3 3 3 4 3 5 4 4 2 2 2 4 5 4
4 3 3 3 9 6 6 4 7 2 4 3 4 3 2 5 5 6 5 2 2 4 3 3 2 2 3 5 4 1 2 3 3 3 4 1 4 5 3 1 2 3 2 2 3
3 4 4 7 11 10 5 4 11 6 5 4 6 4 4 3 3 4 3 5 4 4 2 3 3 3 3 3 4 3 3 4 3 2 4 4 6 4 4 6 4 3 3 4 4

GFSSW_925_spd_093.txt.gz
Wind_Speed
22 21 16 13 11 13 13 15 16 15 14 16 14 11 11 11 14 16 6 5 3 7 9 13 14 8 5 4 6 3 7 12 19 21 17 10 14 23 10 8 6 10 7 14 30
25 21 19 14 13 11 13 14 14 13 16 14 16 12 10 10 16 11 7 5 4 5 6 7 6 4 3 4 5 9 10 18 12 17 11 9 12 12 9 16 8 7 9 25 28
27 25 20 16 13 10 13 12 14 13 15 14 16 9 8 11 3 5 2 4 5 6 6 6 7 6 7 6 8 8 14 14 16 19 10 7 6 7 13 15 10 17 19 18 23
28 27 22 17 15 11 11 11 12 12 13 14 14 7 10 5 4 3 3 3 8 10 8 6 4 3 4 11 10 12 15 17 14 14 10 13 5 6 15 22 10 14 23 18 16
26 26 25 16 17 12 13 10 11 10 13 11 10 7 5 2 7 3 4 7 9 13 9 8 9 6 7 4 8 15 16 13 18 17 10 7 9 5 13 18 13 13 22 19 18
25 25 27 22 16 12 12 9 10 9 12 10 8 5 2 4 3 2 5 12 14 12 14 10 8 6 5 9 8 1 11 17 12 14 10 8 14 8 5 10 15 17 22 21 19
27 26 30 18 16 12 9 9 8 9 10 7 9 6 2 11 3 7 10 11 12 12 16 21 18 8 2 5 5 9 10 16 15 10 6 5 10 9 10 15 16 18 18 19 19
28 27 23 15 16 11 5 8 10 7 7 7 6 2 6 8 7 11 8 6 2 2 3 5 11 4 2 5 9 6 11 6 10 8 3 6 12 6 9 5 8 7 17 18 17
27 27 27 17 13 7 5 8 5 4 3 5 4 3 7 7 4 6 4 3 1 1 2 5 8 2 2 3 5 7 2 7 4 12 7 3 3 9 4 5 7 3 1 16 14
26 26 28 28 12 7 2 4 3 2 0 3 1 2 7 3 4 6 3 5 5 2 2 1 2 2 3 4 4 7 5 3 5 7 9 8 7 21 4 6 6 5 3 6 16
26 26 29 34 12 6 1 2 2 1 3 6 5 4 2 6 5 2 3 1 1 1 1 0 3 5 5 13 11 4 10 9 7 7 7 11 6 17 5 4 6 5 5 5 5
24 24 25 27 11 7 6 3 0 2 4 13 3 6 3 3 2 2 8 1 2 2 2 2 3 5 10 11 9 5 9 8 10 5 8 5 8 17 5 1 1 3 6 5 5
21 21 23 4 9 7 7 6 1 3 2 2 5 4 3 3 2 3 4 1 1 2 2 1 5 7 6 2 6 3 6 6 7 6 7 3 3 6 2 3 3 1 1 2 4
16 16 17 6 4 7 5 2 8 3 2 3 3 4 3 3 1 1 2 1 2 1 1 2 5 1 4 3 3 4 1 7 14 7 3 2 5 5 6 5 1 3 3 2 3
13 12 13 10 6 4 6 6 6 3 1 3 2 2 3 2 2 2 0 1 1 1 2 1 2 2 5 2 6 2 1 9 9 3 6 2 1 1 2 7 3 5 5 4 3
12 10 9 6 5 5 9 12 4 1 4 3 3 4 4 1 3 2 1 1 1 2 3 2 3 2 1 4 5 1 5 7 3 3 3 2 2 3 1 3 3 4 4 5 6
12 10 11 11 4 13 15 6 2 3 1 5 4 4 2 3 2 3 1 2 1 3 1 2 2 4 2 3 4 7 4 3 2 3 2 3 3 3 8 5 1 11 8 7 10
12 12 17 15 14 22 16 2 3 1 4 3 4 4 4 4 2 2 2 1 2 1 1 2 4 4 4 2 2 3 2 2 4 3 4 2 4 5 6 6 7 7 6 6 3
11 8 8 14 25 27 5 2 3 5 5 7 3 3 3 2 3 3 2 2 4 6 1 2 3 1 2 3 1 3 3 1 5 3 4 2 1 4 10 15 12 11 9 8 8
4 5 6 29 28 19 2 3 3 3 3 3 4 3 5 4 3 3 1 3 1 4 2 1 2 2 2 3 2 1 2 2 3 3 4 2 2 2 6 6 5 7 7 7 7
2 2 3 26 22 3 2 3 4 5 3 4 3 4 3 4 2 3 3 3 2 2 2 1 3 2 2 4 3 3 2 4 4 3 3 3 1 2 3 0 4 4 5 6 7
1 2 11 24 3 2 3 5 4 4 2 2 3 3 4 4 3 2 2 3 3 3 2 1 3 4 2 4 2 0 2 3 3 2 4 2 2 4 4 4 4 5 5 4 5
2 3 15 14 4 3 3 1 2 2 3 2 1 1 3 4 4 2 2 2 1 2 2 2 3 2 6 4 3 5 4 4 4 3 2 3 2 3 2 4 3 5 4 5 6
2 3 1 3 1 4 4 2 3 4 2 2 2 3 4 3 5 3 2 3 3 2 7 5 3 3 4 1 1 2 3 4 4 3 3 1 3 1 1 4 4 4 5 5 5
3 3 1 4 4 5 6 2 4 3 1 1 3 3 5 4 3 3 2 2 4 4 4 4 4 4 4 3 2 0 1 3 3 2 4 1 4 4 4 3 3 5 4 4 5
4 3 3 4 10 7 5 3 5 2 2 1 5 4 2 5 5 6 5 2 1 4 3 2 1 1 5 5 6 3 4 3 3 3 2 1 2 4 3 1 2 4 5 5 5
3 2 4 6 5 4 4 4 6 6 3 1 6 5 4 2 3 5 5 5 4 5 2 3 4 3 2 4 4 3 1 2 2 1 4 2 3 3 2 1 2 4 5 5 4

GFSSW_925_spd_096.txt.gz
Wind_Speed
21 23 22 13 15 14 12 9 9 7 6 9 8 11 8 10 13 13 14 5 4 2 3 4 5 5 7 5 12 12 9 18 24 25 19 21 22 23 19 19 17 17 22 9 14
23 22 19 19 15 17 12 10 9 8 6 8 7 10 6 8 14 18 10 7 6 3 1 2 7 4 6 7 6 14 14 24 21 19 20 19 21 23 22 24 22 17 12 6 22
24 23 21 24 21 19 13 10 8 7 7 8 6 8 5 8 9 3 3 6 5 5 2 3 5 3 8 10 15 11 21 20 20 21 19 16 21 19 12 22 25 18 17 12 20
22 23 24 18 19 18 15 9 7 5 6 6 3 3 4 4 5 2 4 4 5 7 6 6 5 4 5 12 13 18 20 21 23 21 17 19 20 25 17 22 21 19 11 15 17
23 23 23 23 18 20 15 10 6 4 5 6 2 3 1 1 7 5 6 7 7 6 11 10 10 9 9 7 14 19 19 18 22 22 20 17 20 22 18 16 18 22 17 16 17
23 24 23 27 27 23 16 12 6 4 6 4 3 3 3 5 3 6 6 9 10 10 13 13 6 7 9 11 16 8 16 21 20 20 19 22 21 17 16 5 12 17 19 18 21
23 24 24 27 30 20 14 8 6 6 6 4 2 5 3 9 3 5 9 7 8 9 11 13 16 6 2 8 4 11 17 15 18 21 18 18 22 22 16 10 12 16 21 16 21
23 24 24 27 31 18 12 9 6 3 4 3 4 6 5 6 3 11 8 9 5 2 3 3 11 8 7 5 5 3 9 11 12 20 20 14 18 21 1 7 14 14 23 18 25
22 23 24 23 29 15 12 7 3 4 5 5 5 4 5 4 4 5 6 6 5 2 3 6 6 5 5 6 6 6 8 12 11 20 10 17 10 7 6 10 15 15 17 16 18
18 22 22 24 25 11 11 6 7 5 6 6 6 2 4 2 2 2 5 8 6 3 5 5 3 5 5 6 6 7 11 4 6 13 15 12 12 6 8 13 17 10 14 15 21
17 20 21 22 24 13 11 10 4 2 5 6 7 2 2 1 4 5 3 5 6 5 4 2 5 9 12 13 13 12 13 1 4 10 13 13 9 10 11 10 17 13 9 13 8
14 19 21 27 9 15 12 3 1 5 5 12 6 7 4 2 1 4 1 5 5 5 3 4 8 6 7 9 11 15 12 6 3 5 5 9 10 8 10 11 10 6 8 12 11
11 13 15 8 8 8 8 7 8 5 2 2 6 5 3 6 1 4 3 4 4 3 4 6 7 4 4 9 12 12 12 8 4 6 3 5 5 6 11 11 19 7 8 11 16
12 8 8 7 2 6 3 11 9 3 1 5 5 3 4 4 2 3 3 3 4 3 4 5 4 4 4 4 5 8 7 12 9 5 3 3 1 4 8 13 16 13 10 11 12
15 9 6 4 2 4 5 12 11 2 3 5 3 3 3 4 3 6 4 4 2 2 4 0 3 2 3 3 2 1 7 10 8 5 4 9 2 8 5 12 12 10 9 9 10
10 9 7 3 7 6 12 11 5 3 2 4 4 5 5 4 4 3 4 1 2 3 1 4 2 3 2 3 5 8 10 9 5 2 2 8 3 7 9 8 2 7 5 11 10
10 7 9 3 1 14 18 5 3 2 2 6 4 6 4 5 5 4 3 4 2 3 1 1 3 5 1 2 4 2 11 4 3 3 3 3 1 7 11 5 3 4 6 10 9
5 7 6 6 9 19 13 2 4 2 4 2 4 7 2 6 2 3 3 3 3 0 1 2 2 3 2 0 1 1 3 3 4 4 4 2 6 7 9 6 6 9 4 6 6
2 2 3 9 17 24 3 3 2 3 4 7 8 5 4 3 3 5 1 0 1 3 2 2 2 4 4 3 4 2 2 3 7 6 6 3 5 12 9 11 13 13 12 10 13
2 2 3 8 22 17 2 2 1 2 3 9 4 6 5 7 6 4 1 2 2 3 2 1 1 4 5 4 3 3 4 2 1 4 5 5 8 6 10 12 14 14 13 10 10
2 1 2 15 19 4 2 3 2 7 6 6 2 4 4 5 3 2 3 3 2 1 3 3 4 2 2 5 6 2 2 2 3 3 4 6 5 6 5 6 11 13 12 11 10
2 1 4 30 3 1 3 5 2 4 4 3 2 3 4 3 3 3 3 2 5 3 3 3 3 3 2 1 5 3 5 4 2 4 4 5 5 5 3 7 9 10 10 9 11
1 0 15 3 2 3 2 2 2 2 4 1 0 0 2 4 3 4 2 1 4 2 3 1 2 3 2 2 3 4 6 6 4 3 4 3 5 4 6 6 6 8 9 9 8
1 2 3 1 2 6 4 2 3 2 2 2 1 2 4 4 3 5 5 1 2 2 6 1 4 4 4 5 3 3 7 8 4 5 9 9 14 8 7 7 6 6 7 7 7
1 1 1 4 2 7 4 1 3 2 1 3 1 2 5 3 3 4 3 3 3 4 2 2 3 3 6 5 3 5 6 9 6 5 6 8 13 9 7 7 6 6 4 5 7
4 2 2 4 7 7 2 4 3 0 1 4 2 4 2 4 2 5 5 2 1 2 2 2 4 2 3 7 6 6 7 5 5 4 8 8 9 3 6 5 5 5 5 6 7
3 1 1 4 3 4 5 1 5 3 2 3 2 4 7 3 3 8 5 6 4 2 2 2 3 2 2 6 5 4 4 3 3 1 2 4 4 2 5 4 4 6 7 6 4

GFSSW_925_spd_099.txt.gz
Wind_Speed
23 24 23 24 21 19 15 12 10 8 7 7 9 6 7 6 8 7 9 4 1 4 4 4 7 6 8 8 12 13 13 20 25 26 24 20 25 23 23 25 26 24 21 14 7
22 22 22 24 20 19 18 13 11 9 9 6 6 7 5 7 10 13 6 6 6 4 5 4 6 6 9 10 9 13 16 26 22 21 21 23 25 24 25 24 26 24 24 22 6
22 23 23 24 24 22 22 16 11 9 9 6 4 7 6 4 11 3 9 8 8 5 3 4 6 4 11 12 15 18 22 22 22 22 24 25 23 23 25 26 23 25 21 8 12
22 22 24 24 24 21 17 18 11 9 7 6 4 5 4 5 4 7 9 8 6 6 7 8 5 4 6 10 13 22 22 21 23 24 23 22 23 23 25 22 22 25 23 5 7
22 22 23 24 24 24 23 19 15 10 7 7 5 6 3 6 6 9 10 7 3 6 9 9 9 11 13 9 14 21 20 21 22 21 22 23 23 26 26 24 22 19 16 1 8
21 22 24 24 24 24 25 20 13 10 7 6 7 6 8 8 4 8 8 5 4 7 11 11 7 9 10 16 14 14 16 18 21 21 20 23 25 25 22 26 23 14 19 11 20
21 22 23 24 25 25 28 17 13 11 6 6 7 7 7 8 3 8 7 5 4 6 10 11 9 8 3 10 17 16 18 18 22 20 23 21 26 27 25 24 17 16 18 18 19
22 21 22 24 24 29 13 16 13 8 6 9 8 8 5 5 4 9 7 6 6 5 5 6 8 10 5 11 12 13 9 13 18 22 22 21 25 26 25 22 23 16 16 15 18
22 20 21 23 25 26 14 17 10 10 9 8 7 6 4 2 5 7 7 6 6 4 4 2 7 5 7 10 10 13 13 13 17 21 19 22 18 24 24 13 12 13 15 14 14
18 19 19 21 20 20 9 10 8 11 8 7 4 3 6 3 6 3 4 5 6 3 4 4 5 4 8 7 8 8 9 15 13 8 22 19 19 11 12 9 6 7 11 14 16
19 17 18 23 22 13 16 13 4 4 7 7 7 3 4 4 3 6 6 6 9 6 5 3 5 9 13 15 17 15 14 15 12 13 19 19 19 20 14 11 10 4 10 14 10
21 17 14 21 18 14 15 3 3 2 4 14 8 9 1 1 3 6 6 6 9 9 9 3 10 15 10 15 16 13 14 15 4 3 10 14 15 14 11 15 8 4 7 9 9
19 12 11 9 3 5 4 5 7 5 2 6 9 6 5 6 3 9 7 4 9 10 10 12 13 3 8 7 12 13 15 14 5 4 8 4 8 9 6 11 10 8 6 10 12
22 11 8 6 4 3 2 7 5 3 2 8 7 5 6 3 4 5 4 4 3 7 10 10 6 6 7 8 7 12 15 5 4 5 2 8 2 6 11 9 8 5 5 8 15
12 8 9 6 2 3 2 7 6 3 4 7 4 4 5 5 5 7 5 4 7 6 4 4 4 4 7 2 5 6 3 4 12 10 4 9 4 4 7 3 4 9 12 10 14
13 12 11 5 5 2 6 7 2 3 3 4 5 7 8 7 5 5 4 4 4 5 6 13 1 3 4 2 5 13 9 10 10 11 1 5 2 3 6 6 8 17 15 12 14
8 10 7 4 1 7 10 3 3 4 5 6 5 6 5 5 7 5 6 8 4 4 4 4 3 3 2 3 4 10 9 3 3 2 3 3 1 6 9 3 5 17 14 14 14
8 6 4 3 3 11 7 1 5 7 3 2 5 7 2 7 4 6 5 7 7 7 6 2 3 4 6 1 2 2 2 4 2 1 1 3 6 4 10 8 13 12 9 11 14
7 4 2 5 7 12 2 4 6 4 2 5 9 4 3 4 1 6 6 2 1 1 4 3 2 1 4 3 3 1 4 7 3 6 4 4 3 12 16 15 15 16 11 11 9
4 4 3 3 11 7 2 5 4 4 3 7 2 2 4 6 5 6 6 1 1 2 4 5 2 4 3 3 8 5 8 4 3 1 5 5 8 5 11 13 12 13 9 12 12
1 2 7 10 11 2 2 3 3 3 3 2 3 4 5 8 7 1 2 2 3 2 3 4 3 2 4 2 6 1 3 4 3 3 2 4 4 6 11 12 15 15 13 12 12
2 3 4 14 3 1 2 3 3 6 3 3 3 3 4 5 2 2 4 2 3 5 2 3 4 4 2 2 1 4 7 6 1 4 7 10 6 6 11 13 14 14 13 12 12
2 3 11 1 2 2 2 3 3 4 2 3 1 2 2 2 1 4 3 0 3 4 8 6 3 1 1 3 1 5 11 9 5 5 5 4 7 8 11 13 13 14 11 11 11
1 3 2 2 3 5 2 2 3 2 3 4 3 3 4 4 2 4 7 2 1 3 5 5 6 7 7 5 4 5 13 15 6 5 9 12 16 12 11 11 11 11 11 11 11
1 3 2 2 2 5 4 2 2 3 2 2 2 1 2 3 6 3 2 4 2 1 0 3 4 4 8 7 6 7 10 13 11 6 7 14 14 12 11 10 10 9 9 9 9
3 3 2 4 6 5 1 3 1 0 3 1 1 3 3 7 7 4 2 2 4 3 4 3 3 1 7 7 6 7 7 9 11 12 12 13 11 9 8 9 9 8 7 8 8
2 1 3 2 2 3 3 2 4 2 2 4 5 1 6 7 7 7 4 5 4 4 3 4 1 3 3 5 0 4 6 5 5 6 5 8 8 8 7 6 6 6 6 6 6

GFSSW_925_spd_102.txt.gz
Wind_Speed
21 20 20 22 22 21 20 19 15 12 9 9 7 7 8 9 9 9 10 3 5 6 4 3 4 5 5 5 8 7 6 12 15 17 18 16 19 19 19 19 14 17 10 3 12
21 21 20 21 22 23 26 27 18 14 11 9 6 6 8 6 10 17 11 7 7 6 5 3 4 3 4 8 4 7 9 13 12 15 16 16 16 16 19 20 18 13 14 12 14
22 21 20 21 22 22 24 25 21 15 11 10 6 6 7 4 10 3 9 11 10 6 2 0 2 4 4 8 11 12 18 14 17 19 18 16 19 20 19 20 16 14 10 14 7
21 22 21 20 22 23 23 25 15 18 13 10 7 7 5 6 3 10 11 11 9 6 4 1 1 1 2 7 8 16 18 17 17 15 16 19 19 21 21 19 18 15 16 8 6
22 21 22 22 22 24 23 24 26 19 13 10 7 8 4 6 7 17 12 11 7 5 6 5 6 5 7 8 9 15 16 18 16 16 18 17 20 20 23 16 19 21 16 10 6
23 21 22 22 21 24 24 23 27 18 15 10 9 9 4 8 7 14 14 10 4 7 7 6 4 5 6 7 11 9 16 17 16 20 19 19 19 17 21 17 20 21 18 8 9
21 21 20 22 22 23 24 25 11 17 13 9 12 9 6 8 4 11 11 8 5 5 4 0 1 5 2 7 7 14 17 19 20 15 19 15 23 21 16 20 21 20 19 10 18
22 23 19 19 22 25 27 14 17 17 12 10 12 7 5 6 7 10 9 7 7 5 1 2 5 3 5 8 7 7 13 13 9 14 17 14 25 18 16 17 22 19 16 7 19
21 21 20 17 18 21 16 16 15 13 12 11 8 6 3 6 7 11 10 10 12 6 4 4 6 5 5 3 5 9 7 12 14 13 13 17 23 18 17 17 18 19 5 6 18
22 17 22 16 15 15 8 6 10 10 12 8 1 5 7 6 9 8 7 8 5 6 5 3 1 1 3 5 5 9 8 13 16 4 12 15 20 17 12 16 19 6 8 13 16
22 14 18 14 17 17 6 12 4 2 3 4 9 1 10 8 7 6 10 10 7 6 4 5 2 7 10 11 15 18 18 18 18 11 5 16 14 16 4 16 16 11 11 8 8
17 16 12 10 15 7 20 2 2 5 3 13 11 7 7 1 4 7 10 7 8 7 8 2 9 11 12 14 15 17 18 19 15 9 8 8 14 12 15 21 12 9 6 6 6
17 9 9 9 8 5 8 1 1 2 1 8 11 6 2 4 3 11 8 6 6 7 8 8 9 9 9 13 13 11 16 15 8 10 7 6 12 16 6 6 6 5 6 7 6
19 16 12 6 4 5 3 6 4 3 2 6 5 4 6 3 3 5 9 4 5 4 7 7 14 10 12 10 9 11 6 14 5 2 4 12 2 3 6 12 12 9 7 5 11
10 2 11 8 5 1 5 8 5 3 4 5 6 3 8 5 7 6 4 4 6 5 3 4 6 0 8 6 3 7 11 14 9 8 3 7 3 1 5 5 9 7 7 8 8
2 8 8 2 2 2 4 7 1 2 2 4 4 6 7 7 4 6 5 3 5 4 7 12 8 4 5 6 8 10 9 10 9 7 3 3 2 2 4 4 5 9 8 11 12
13 10 5 3 3 9 9 2 2 3 3 5 6 7 4 6 5 7 7 6 2 2 3 4 10 1 2 5 5 6 5 3 3 1 2 1 1 1 7 5 2 11 10 12 10
9 9 4 9 8 12 7 1 3 6 6 5 6 8 2 8 4 5 3 2 8 5 3 3 3 2 3 2 3 3 3 3 4 3 2 3 6 6 9 12 14 15 14 14 12
8 6 7 6 7 5 2 1 5 3 3 6 8 5 5 3 1 4 4 2 2 2 2 5 2 4 2 3 3 2 4 5 3 5 1 4 1 11 11 9 17 15 13 12 8
4 5 15 7 8 5 1 4 3 5 7 2 3 1 4 4 2 2 5 4 2 3 6 2 3 3 5 4 9 6 8 4 1 5 4 3 5 4 8 10 15 14 13 9 9
1 3 12 8 5 3 3 4 3 5 3 3 6 4 8 4 2 2 3 3 3 4 3 1 1 1 4 2 4 2 4 3 2 3 2 3 3 5 10 10 14 11 11 11 11
4 3 5 3 3 2 3 5 3 8 2 3 5 9 4 3 3 4 5 4 1 2 2 4 2 1 0 4 3 4 6 5 1 5 6 5 4 7 7 9 13 11 12 11 9
3 1 6 6 2 2 2 3 4 7 6 6 4 5 5 4 2 4 4 3 3 4 4 4 2 3 3 2 1 4 8 5 2 2 3 4 3 5 8 10 10 11 10 8 8
3 2 2 2 3 2 2 4 3 2 2 5 3 0 2 3 3 3 4 1 4 3 4 3 5 4 3 2 3 5 9 7 4 5 9 10 12 8 8 8 9 9 8 7 8
2 3 2 1 2 6 3 2 3 4 2 3 1 2 5 3 5 4 3 4 5 1 2 4 3 5 4 5 4 6 8 11 8 7 8 10 12 9 9 9 8 8 7 7 7
1 3 2 4 5 5 1 1 6 4 6 5 4 6 11 7 6 5 3 6 5 2 2 0 1 2 4 6 5 7 10 9 9 10 10 12 10 9 8 8 7 8 8 8 7
1 1 2 3 1 1 2 4 6 5 1 5 8 6 8 5 6 4 3 4 4 5 5 3 1 3 2 4 6 4 5 6 3 7 4 5 7 7 7 8 7 7 8 7 7

GFSSW_925_spd_105.txt.gz
Wind_Speed
17 17 17 17 18 18 19 17 13 18 15 13 11 7 7 9 8 7 7 5 12 8 5 2 2 3 2 2 2 3 2 2 4 7 8 8 10 13 6 5 10 2 5 4 13
17 16 18 17 18 19 18 18 17 15 18 15 12 8 7 6 7 15 11 9 11 7 7 6 0 4 2 1 2 4 4 6 5 4 6 12 10 12 11 16 9 18 7 10 8
18 18 17 18 19 18 19 19 18 18 21 17 11 8 8 6 3 5 11 14 11 9 1 7 5 2 2 2 4 4 4 3 9 14 14 14 14 7 10 16 7 9 13 10 5
20 19 18 19 18 19 19 19 20 17 24 20 14 10 10 7 3 7 14 14 12 10 5 4 3 3 4 3 3 6 7 9 9 11 12 16 12 14 14 12 11 10 11 7 5
21 19 18 18 17 18 21 19 19 14 17 22 18 16 10 3 5 18 15 13 11 8 7 5 4 2 3 3 5 9 7 9 11 12 12 15 17 18 20 18 12 15 15 9 6
22 20 18 15 16 18 21 24 18 15 18 18 17 20 5 3 9 21 19 16 11 9 6 3 3 3 2 3 4 4 11 15 13 15 14 17 18 13 10 9 17 16 16 9 9
24 22 18 14 14 17 22 26 21 18 22 18 15 15 5 4 12 17 17 12 8 7 4 5 5 4 3 4 7 10 9 10 10 11 9 13 18 25 14 10 16 17 17 9 8
23 19 17 14 13 15 21 24 8 22 23 18 17 7 5 8 12 16 14 10 6 4 2 2 1 2 2 4 6 4 2 4 3 3 7 7 18 18 7 11 15 16 15 13 9
24 18 17 13 13 12 16 9 19 18 16 19 12 2 3 11 11 16 14 9 12 7 4 5 6 4 3 1 3 3 2 4 9 3 7 7 13 11 14 10 14 13 13 13 8
24 14 9 5 11 9 8 8 15 16 16 10 9 3 1 3 9 13 12 12 11 10 4 2 0 2 3 2 3 1 4 7 11 5 12 19 21 17 10 10 11 6 11 8 9
19 15 6 11 6 9 2 10 3 3 1 4 10 1 9 10 10 7 11 6 2 4 5 5 1 7 8 9 6 6 7 14 17 17 12 12 18 16 8 6 7 6 10 9 8
11 8 3 4 8 7 17 3 4 7 2 1 3 4 9 4 4 6 14 5 4 8 5 1 9 11 10 10 10 12 15 18 18 9 4 11 13 11 8 7 6 8 11 10 5
7 6 2 1 6 7 7 5 3 4 2 6 6 1 2 2 3 8 7 3 6 6 7 6 7 2 10 5 8 13 11 10 12 7 11 12 9 6 4 6 7 9 7 6 6
10 8 3 5 5 8 3 3 6 1 3 2 5 4 5 1 1 12 13 1 4 5 7 6 8 8 6 10 9 12 8 9 8 2 3 3 5 2 3 6 5 9 8 6 7
5 11 10 9 3 3 2 6 9 2 4 4 4 1 6 1 7 2 4 1 4 4 1 5 2 1 4 6 2 7 9 11 13 8 2 6 5 0 7 6 7 8 7 6 4
19 17 11 5 6 4 7 8 3 1 4 4 3 6 5 2 4 3 2 1 3 3 5 7 3 3 4 4 6 7 8 12 6 3 5 0 3 1 4 6 6 3 7 10 8
19 17 15 10 3 8 8 2 3 2 4 2 6 4 1 3 5 5 4 3 3 2 2 3 4 2 2 4 3 6 2 3 3 3 2 2 0 2 12 14 9 7 9 7 8
17 17 16 14 10 5 3 3 4 8 5 3 5 8 3 6 5 5 3 3 7 3 2 1 4 1 2 3 3 5 2 2 4 4 2 4 5 6 17 7 12 15 10 15 13
12 13 17 11 5 3 3 4 5 3 4 4 5 4 2 3 4 5 3 3 1 7 2 3 2 2 3 2 1 2 4 4 3 4 2 2 0 7 18 14 18 13 15 13 11
5 5 17 10 9 6 4 5 3 4 5 2 2 4 3 2 2 2 1 3 2 5 5 2 4 1 4 4 9 7 5 1 2 3 4 4 4 5 11 12 14 13 12 11 9
3 3 12 12 13 4 4 4 3 5 3 3 3 4 4 4 2 1 3 3 4 5 7 2 0 3 2 4 2 2 4 4 2 3 1 2 3 5 10 11 13 10 11 12 8
4 3 9 16 4 2 3 4 5 5 2 3 3 5 3 1 3 4 3 4 1 4 2 4 2 3 3 3 3 3 5 2 3 3 3 3 4 3 8 8 13 10 11 11 11
2 1 5 7 4 3 3 3 2 5 6 6 6 4 2 2 4 3 3 5 7 4 3 1 3 3 7 5 5 4 6 4 3 3 6 4 3 4 6 6 7 9 10 5 9
3 2 3 3 1 3 2 4 1 3 3 3 3 3 3 3 3 3 1 3 3 2 5 0 4 2 3 5 4 6 12 9 5 4 5 4 8 5 5 7 7 7 8 8 8
2 1 4 2 4 3 1 2 3 3 4 5 5 6 4 5 3 3 1 2 3 2 1 3 3 3 4 4 4 5 7 11 13 7 6 11 8 7 7 7 6 6 6 8 9
2 3 2 2 0 2 2 1 4 4 5 5 5 5 9 5 3 4 4 5 2 6 4 2 0 2 5 5 7 5 12 10 11 11 9 7 5 5 5 7 7 7 7 7 7
3 2 3 3 4 2 1 1 3 1 3 4 4 3 7 6 6 6 1 2 2 2 5 2 2 2 3 3 5 5 5 5 3 5 6 6 5 5 5 7 6 6 8 7 6

GFSSW_925_spd_108.txt.gz
Wind_Speed
16 16 14 15 15 15 17 17 18 20 13 17 17 11 10 10 6 7 5 5 6 6 5 3 1 2 4 3 3 2 2 4 4 6 3 6 7 2 7 4 6 3 3 5 22
19 18 17 16 14 14 14 16 16 18 19 21 18 12 8 9 6 9 4 5 11 9 7 4 2 0 3 2 2 3 3 7 5 3 1 5 4 8 5 7 5 3 7 22 22
21 20 18 17 17 13 13 15 16 17 14 20 19 15 10 9 2 6 9 12 11 9 9 10 7 3 2 3 1 3 4 4 3 4 6 8 11 4 5 11 7 5 6 8 12
22 22 19 17 17 15 14 13 15 17 17 14 18 15 13 10 5 3 16 16 12 13 11 9 5 3 2 3 2 3 5 6 4 5 7 10 7 14 12 13 9 13 5 3 6
23 23 20 18 17 14 13 15 15 18 17 14 23 19 15 3 5 13 17 16 14 11 8 5 4 4 3 3 3 4 4 8 11 8 9 10 13 14 16 13 11 12 16 7 7
25 25 23 20 16 14 13 15 17 16 14 12 25 22 4 6 6 21 19 17 11 10 6 7 5 4 2 1 2 3 5 10 10 15 11 15 17 6 12 8 13 13 12 8 9
23 21 20 16 13 11 12 19 21 21 17 20 25 18 2 4 18 22 21 16 10 9 3 1 7 3 3 3 4 7 8 11 12 7 6 5 10 13 16 10 15 18 15 13 9
21 18 18 15 7 8 11 20 22 17 16 25 22 20 2 4 22 20 17 12 10 8 7 5 5 3 1 2 5 3 1 4 4 3 6 8 9 9 10 10 15 15 15 15 10
15 18 15 13 7 4 9 14 5 20 26 25 21 8 2 11 14 18 18 12 10 8 6 8 5 2 1 0 4 2 3 4 7 6 5 6 11 5 7 10 13 11 12 10 7
11 16 11 4 5 2 5 6 20 22 17 19 15 3 4 7 17 14 13 10 6 8 4 2 3 1 3 2 3 2 4 5 9 5 9 14 19 18 12 9 14 11 8 8 7
11 8 3 4 2 3 10 6 5 5 5 3 10 4 10 10 15 10 11 6 5 4 4 4 2 7 9 8 6 4 7 12 15 15 11 9 13 20 15 8 8 9 8 9 10
8 10 7 7 7 3 10 4 7 5 4 11 7 15 17 10 8 5 12 3 3 4 3 1 8 10 6 7 10 9 13 17 16 11 6 10 19 18 17 8 10 11 8 11 8
8 7 7 4 9 13 13 8 11 4 4 5 5 5 3 2 4 7 7 3 4 4 5 5 6 1 6 7 10 12 12 14 9 10 7 9 10 6 4 2 4 4 6 7 9
10 7 6 5 7 6 5 8 7 2 3 4 2 3 3 2 3 6 9 1 2 7 4 6 10 7 7 10 10 11 7 15 12 8 5 3 6 4 5 6 5 7 7 8 7
20 15 11 9 5 3 3 10 6 2 5 2 3 1 5 0 7 2 6 1 2 2 0 5 3 3 4 6 3 7 4 6 8 12 9 10 5 4 5 6 6 8 9 8 8
22 17 8 6 11 6 6 7 1 4 3 3 2 7 3 1 2 3 2 2 2 3 3 9 3 4 5 3 6 8 8 11 8 5 5 2 5 2 3 6 9 7 8 7 6
18 20 17 8 4 5 2 2 4 5 2 1 5 3 1 3 3 3 3 2 3 2 2 4 3 2 1 4 3 2 4 3 3 2 3 4 4 3 13 16 13 10 2 5 6
13 17 20 16 10 9 6 4 7 8 5 3 4 5 2 4 2 5 3 2 6 3 2 2 5 5 2 3 3 4 2 2 4 3 3 1 5 5 19 8 8 11 9 8 11
9 8 17 19 14 11 4 6 4 2 2 5 3 2 2 2 3 2 4 3 2 9 3 2 3 1 3 3 2 1 3 2 3 3 2 3 3 5 19 13 16 11 13 12 13
10 6 8 21 18 3 4 7 2 3 2 3 2 2 2 2 3 2 2 2 1 4 2 1 4 3 3 3 7 5 5 2 1 3 2 5 3 6 11 13 14 13 13 13 12
6 3 11 26 8 5 5 3 3 5 4 3 1 4 4 3 1 1 3 3 3 2 3 2 1 3 2 4 2 1 3 5 3 3 2 2 3 7 7 10 12 12 14 11 11
4 3 17 22 5 3 3 4 5 5 2 3 4 2 3 5 3 1 2 2 4 3 1 4 1 3 5 4 4 4 4 4 2 3 3 2 3 6 9 9 10 14 11 7 9
2 2 7 8 4 2 3 2 2 5 5 5 5 3 1 2 4 4 4 4 5 5 3 4 2 3 7 5 4 3 5 4 3 3 4 3 1 3 5 2 4 8 8 8 9
3 3 4 4 1 3 3 4 4 2 4 5 4 4 3 4 3 2 1 2 1 2 3 1 3 1 4 4 4 7 8 5 4 4 3 2 5 2 5 6 6 7 7 7 7
3 0 3 3 5 4 3 3 3 4 4 7 7 6 2 4 4 4 5 6 2 6 2 2 2 3 3 3 1 3 7 12 8 6 3 9 5 6 6 6 5 5 6 7 7
2 3 3 1 3 6 5 4 4 4 3 4 4 6 6 4 2 3 4 4 1 5 3 2 1 1 5 7 7 4 10 9 8 9 8 5 4 4 4 5 5 6 7 7 6
4 1 3 5 4 3 3 4 5 4 2 2 2 1 4 3 3 6 5 4 0 1 3 2 2 2 3 6 7 5 5 4 2 4 5 5 5 5 4 6 6 6 6 6 5

GFSSW_925_spd_111.txt.gz
Wind_Speed
18 17 17 15 13 11 11 11 13 14 15 15 17 15 10 8 6 6 4 2 5 6 5 5 6 8 8 3 4 3 2 3 3 6 4 4 6 5 4 3 2 4 2 3 21
15 15 16 17 17 15 11 11 13 14 14 15 12 16 11 8 6 10 5 7 7 8 5 6 3 6 4 3 3 3 3 6 4 1 2 5 2 5 4 5 2 4 4 16 23
17 18 19 19 18 15 14 13 12 15 14 13 11 20 13 11 3 6 10 8 12 7 8 7 9 4 4 2 2 2 4 3 3 3 3 5 8 3 4 10 6 6 4 5 12
14 17 18 18 19 17 15 12 12 13 15 14 11 21 17 10 3 2 12 15 11 12 14 10 4 3 3 2 2 1 4 3 4 4 5 6 4 8 9 12 11 14 13 6 8
21 24 19 19 19 18 16 14 11 11 15 14 10 21 16 3 3 8 17 16 14 12 9 5 4 3 4 2 2 2 3 6 6 8 6 8 10 11 13 13 17 18 11 9 8
18 18 16 17 20 17 17 14 11 12 13 15 11 28 10 5 2 11 18 16 14 11 8 5 4 3 4 2 1 3 5 9 8 10 8 11 11 3 11 6 10 11 14 9 10
16 14 14 16 14 12 12 10 12 15 15 15 18 18 7 5 4 16 16 11 12 11 5 3 3 5 3 2 2 4 7 7 7 2 5 3 5 10 17 9 17 17 18 16 10
14 13 14 14 8 5 6 10 16 21 17 12 27 12 3 6 16 19 16 12 10 10 11 7 7 5 2 2 4 4 2 5 3 3 5 6 7 12 10 8 12 15 15 15 10
13 17 12 10 7 7 5 9 8 6 20 26 18 3 7 9 8 16 17 10 13 11 10 9 6 2 1 1 3 2 2 3 7 2 3 6 9 6 8 8 12 14 14 13 12
11 13 16 10 7 4 5 7 12 25 23 20 12 5 5 8 11 9 7 15 5 7 4 3 3 2 2 1 2 0 3 4 7 5 1 12 22 24 19 12 15 15 13 12 11
17 15 9 10 5 7 8 14 3 6 7 2 8 9 10 18 19 10 9 6 4 3 3 2 3 5 7 6 2 1 5 14 14 13 10 15 18 22 20 9 12 13 10 11 12
13 14 12 14 12 11 9 6 3 5 8 7 14 16 18 16 6 3 10 4 3 2 5 2 6 9 5 5 6 8 11 15 14 8 5 13 18 20 18 10 10 10 9 10 7
15 14 13 13 14 16 14 13 12 6 5 7 9 9 4 7 4 5 4 2 3 1 3 5 4 2 6 3 4 10 8 14 13 13 12 11 11 5 4 3 3 4 6 6 9
21 17 10 5 8 7 6 4 2 2 4 7 5 6 4 3 5 3 6 2 1 6 3 5 6 6 2 4 7 10 7 11 11 8 4 6 9 4 5 8 6 8 7 8 8
23 17 17 16 4 5 6 3 3 3 6 5 4 1 4 4 7 1 2 4 0 2 2 6 3 2 1 4 4 7 4 7 9 11 8 8 6 5 6 7 10 14 9 8 8
23 17 10 11 17 12 6 4 5 6 6 3 4 3 1 3 3 3 3 3 1 3 4 8 3 3 5 3 5 7 9 12 10 5 5 1 6 4 5 12 13 10 9 10 8
20 20 22 15 5 11 6 3 5 6 0 3 3 2 0 2 3 2 3 2 3 3 3 5 2 3 2 4 2 4 6 4 4 1 4 2 4 3 16 22 9 9 8 7 6
14 13 15 17 16 12 4 4 9 5 5 4 3 2 2 3 3 4 2 2 5 1 1 3 6 5 3 4 3 3 2 2 4 2 3 2 5 4 15 9 10 10 8 9 5
18 11 9 24 18 4 3 7 3 1 3 4 1 2 2 2 4 3 4 2 0 7 3 2 4 1 4 3 3 1 4 2 3 3 2 3 1 2 18 15 13 14 12 9 13
11 10 9 30 13 5 4 8 2 2 1 2 1 3 2 1 2 1 1 1 0 2 2 1 5 4 2 1 5 5 3 2 2 4 2 3 3 5 14 13 13 12 12 12 13
5 4 17 25 8 6 6 4 3 3 1 2 1 2 1 1 2 1 1 3 3 2 4 2 3 4 1 5 3 1 2 3 2 2 2 3 3 6 8 10 12 13 12 12 11
4 3 20 20 5 3 3 3 4 4 1 3 1 0 3 5 2 1 1 3 6 3 3 6 2 4 6 3 3 3 4 2 2 2 2 1 3 4 5 9 8 9 6 7 9
3 2 9 10 4 4 5 3 2 6 4 4 2 2 1 2 2 3 4 4 6 5 4 4 1 4 7 4 4 2 3 4 0 2 2 3 1 2 4 1 5 5 6 7 8
3 3 4 4 2 3 6 5 6 4 2 4 4 2 4 5 4 2 3 1 5 5 8 2 1 2 3 4 2 6 8 3 2 2 2 2 4 2 3 4 3 5 5 6 6
3 1 3 3 4 3 3 5 6 7 6 7 5 6 3 3 4 5 4 5 0 5 2 0 1 2 4 4 3 2 4 5 4 4 2 6 5 4 6 6 5 4 4 6 6
3 3 2 1 2 5 5 5 7 7 5 6 4 6 6 3 1 2 3 2 1 4 2 3 2 2 3 7 6 3 7 5 5 4 7 4 0 5 3 4 4 6 6 5 5
4 3 4 4 2 3 2 5 5 5 2 2 4 3 5 3 4 6 5 5 5 2 2 1 3 2 4 5 7 5 2 2 1 1 6 5 6 6 4 6 6 6 6 6 6

GFSSW_925_spd_114.txt.gz
Wind_Speed
18 15 13 11 9 10 10 4 6 8 10 12 9 14 13 8 6 3 3 2 5 8 7 9 9 8 8 4 4 2 3 3 5 6 3 3 5 5 3 3 2 4 2 5 16
17 14 14 12 12 13 12 11 7 8 8 8 11 15 16 11 6 6 3 6 7 7 8 8 4 6 4 3 3 4 3 8 2 2 2 3 1 3 4 3 2 5 9 14 20
16 16 13 14 13 14 14 11 9 8 8 9 7 7 16 13 3 5 10 8 8 7 7 8 10 4 4 3 4 1 4 2 2 3 3 4 6 2 2 6 7 6 5 9 19
15 15 17 16 14 14 13 12 11 7 8 8 5 17 17 9 2 0 13 14 12 12 13 9 5 4 3 4 3 1 2 2 4 4 5 5 5 7 8 6 9 14 11 6 8
14 13 17 15 14 15 13 13 12 8 6 6 6 24 17 7 5 5 20 18 14 11 8 5 5 3 4 3 2 1 3 5 5 9 6 7 9 9 9 19 13 14 12 11 10
12 9 9 12 12 12 13 10 10 8 6 5 3 24 6 7 6 9 20 15 13 12 8 5 4 4 5 3 2 1 4 7 7 7 5 6 6 2 9 4 9 8 11 9 10
12 11 11 10 12 9 6 5 6 8 11 5 6 17 1 6 7 20 15 12 10 15 5 6 8 6 4 2 2 4 6 6 2 1 4 4 6 8 15 3 10 12 12 12 10
11 16 11 7 4 5 4 3 11 14 15 6 4 12 3 5 12 20 16 15 13 12 14 10 11 6 4 2 4 4 3 5 2 1 2 3 8 8 6 5 10 11 14 11 10
13 20 19 12 3 1 8 7 5 3 11 19 9 10 5 10 11 13 16 10 15 11 8 9 5 3 2 3 4 5 2 2 7 1 3 3 11 7 7 9 17 19 16 14 13
17 15 19 14 12 10 10 19 20 28 24 17 8 11 1 4 9 11 15 14 8 7 4 5 3 3 1 3 1 3 4 5 6 5 2 7 24 20 20 12 15 17 15 13 10
19 18 18 8 9 8 12 10 3 6 8 3 6 10 10 10 15 8 10 12 4 4 3 2 5 3 6 4 3 3 8 12 13 10 8 12 20 21 19 11 12 16 15 12 12
22 20 19 21 11 10 10 5 4 7 9 17 20 18 16 9 7 2 4 4 2 3 3 3 1 4 4 3 4 6 8 9 11 4 3 12 21 22 19 13 9 11 11 10 8
21 18 13 13 19 27 21 12 10 6 5 8 9 9 3 4 5 5 2 2 3 2 2 3 2 4 4 3 4 5 6 6 10 13 7 9 9 5 3 4 5 6 7 7 9
23 19 12 3 7 7 6 4 5 5 4 8 5 6 4 2 5 2 2 2 1 3 3 3 4 3 3 4 6 4 7 11 12 7 4 4 7 4 5 10 6 8 7 9 9
26 16 21 14 8 5 4 3 5 2 6 9 5 3 6 5 7 3 2 4 2 1 4 5 2 1 2 4 6 7 2 6 9 13 10 7 4 5 5 7 13 20 11 9 10
21 21 14 11 13 13 7 5 2 6 6 4 5 3 3 5 2 2 2 4 1 2 1 6 2 2 5 4 6 5 7 8 4 3 3 1 4 4 8 15 16 14 10 10 7
14 15 20 18 8 14 9 2 5 6 1 3 2 4 2 3 3 2 1 2 1 4 3 5 2 3 3 3 1 2 4 4 5 1 4 2 4 3 12 19 9 5 6 7 8
13 9 18 20 14 7 3 4 10 5 4 2 1 0 4 2 2 1 1 2 4 1 1 3 6 5 4 5 2 2 1 1 3 2 5 1 3 2 13 17 11 6 8 12 15
12 6 13 24 12 4 4 8 3 1 1 3 3 3 3 2 2 1 3 2 3 8 4 2 4 2 4 3 3 2 3 1 3 3 3 3 2 2 17 19 15 16 14 14 15
6 5 13 22 11 8 5 8 4 3 2 2 3 0 2 0 1 1 1 2 1 4 3 1 5 3 0 1 4 5 1 2 1 3 3 2 1 5 13 14 15 14 14 14 12
5 4 21 16 8 7 6 5 3 3 1 2 1 1 2 2 2 2 2 4 3 2 2 2 0 5 1 5 4 2 2 4 2 1 2 3 2 4 8 8 9 13 12 10 9
4 4 23 13 5 2 3 2 4 4 0 1 1 2 2 3 1 1 2 3 4 3 2 4 2 4 7 1 2 4 4 3 2 2 1 1 3 3 6 5 7 8 8 8 9
3 2 10 8 4 3 3 1 3 5 5 5 4 4 3 2 2 3 3 4 5 4 3 2 1 4 4 3 3 1 2 3 1 1 2 2 1 4 4 6 5 3 5 6 7
3 3 4 4 2 3 3 4 5 5 1 3 4 1 4 5 3 2 5 2 4 4 5 2 2 3 4 5 2 6 7 2 3 1 3 1 8 7 6 4 1 2 3 4 5
3 1 3 2 4 3 0 2 4 6 4 7 4 5 2 5 6 5 4 5 2 2 2 2 3 1 5 6 3 4 5 2 3 3 2 5 6 6 6 6 4 2 1 4 5
3 4 1 2 1 3 5 4 3 4 2 4 4 6 5 4 2 4 4 3 2 5 2 2 2 2 4 1 4 4 3 3 3 2 6 5 4 5 3 3 3 5 5 3 3
3 3 2 2 3 3 1 1 2 2 1 3 2 1 3 2 5 7 5 5 5 2 3 2 2 4 5 6 7 5 4 2 2 2 6 5 6 6 5 7 7 7 6 6 5

GFSSW_925_spd_117.txt.gz
Wind_Speed
26 14 12 13 9 8 6 5 1 2 4 7 8 5 15 14 13 6 3 3 8 11 10 10 11 10 9 4 5 1 3 3 4 6 1 3 4 2 3 3 4 2 3 5 12
17 10 6 10 8 6 6 7 6 3 3 6 7 7 18 16 12 5 3 8 10 10 12 10 4 6 4 3 3 3 2 7 2 2 2 3 1 4 3 1 4 6 10 18 17
18 11 4 7 5 5 8 9 7 4 3 2 3 8 22 13 4 2 8 10 11 8 8 8 11 4 4 3 3 1 3 1 0 0 3 4 4 1 3 6 11 9 8 7 12
12 13 11 10 10 6 6 6 8 4 2 2 2 12 18 11 6 4 6 10 13 11 13 10 4 4 4 4 1 3 1 0 2 1 4 4 4 6 10 12 10 9 8 11 15
13 9 7 10 5 7 5 4 6 6 0 1 1 22 17 5 1 6 10 17 15 12 7 4 4 3 5 4 3 2 1 3 4 7 7 8 13 9 9 19 13 15 13 14 14
15 14 11 7 5 8 4 2 2 6 2 3 3 21 7 6 5 9 17 16 13 13 7 5 4 4 6 3 3 2 2 6 6 5 5 6 6 0 9 5 10 9 13 13 13
21 20 15 4 5 8 6 6 8 7 4 6 16 9 7 7 6 20 13 15 13 14 7 9 7 5 4 4 1 1 4 5 1 2 3 3 7 9 15 5 11 13 12 13 13
20 25 20 8 9 13 7 5 6 6 4 6 10 12 5 9 16 14 21 19 16 17 17 12 14 7 4 4 4 3 3 3 1 3 2 2 7 5 3 5 11 13 13 16 18
24 24 19 14 9 12 12 13 7 12 12 18 18 10 5 10 12 17 16 15 15 14 12 8 5 3 3 3 3 6 1 3 8 3 2 1 10 7 14 19 20 15 17 17 16
21 22 14 16 16 14 21 29 27 26 22 20 16 7 2 4 6 12 15 12 8 6 5 6 4 3 3 3 3 2 2 2 6 4 5 12 24 17 17 18 20 18 16 16 16
22 24 23 15 14 14 17 10 5 7 9 4 7 9 5 12 10 8 9 13 4 6 3 3 4 2 3 3 4 1 2 6 6 9 5 8 19 20 18 15 18 16 13 14 15
21 18 19 21 13 9 14 5 5 6 10 22 20 18 12 5 12 5 4 4 3 3 2 4 1 3 2 3 2 1 3 6 9 6 4 11 23 22 16 10 7 9 10 10 10
24 14 13 24 22 31 25 14 8 5 6 8 10 8 5 8 6 2 3 2 4 3 1 3 3 5 2 1 1 3 4 4 7 6 9 7 10 5 3 4 5 7 9 11 11
22 23 7 3 13 8 7 8 5 4 4 7 6 6 1 6 5 1 2 2 2 3 3 2 1 3 2 3 6 3 8 11 9 7 4 2 6 5 5 9 9 16 15 14 13
25 20 21 17 4 5 6 7 6 1 6 10 5 3 6 4 6 3 5 5 3 2 3 2 2 3 2 5 6 6 1 5 6 11 8 3 5 5 8 13 18 20 16 11 10
18 19 13 8 10 6 7 6 2 6 8 5 2 4 4 5 3 3 4 5 1 2 1 5 2 3 5 3 7 4 5 6 5 3 4 4 5 3 6 10 16 17 7 7 11
12 14 18 6 4 5 4 3 6 7 2 5 3 4 4 3 3 2 1 2 2 4 3 3 3 3 4 2 1 3 4 3 4 2 5 4 4 3 12 16 15 9 12 10 12
13 8 13 18 6 0 2 6 10 4 4 2 1 2 3 1 1 1 1 1 3 2 1 3 5 3 4 5 2 2 1 2 3 2 4 2 4 2 13 14 16 14 13 13 13
12 4 11 19 5 3 5 9 3 2 1 1 2 3 3 1 3 1 1 2 1 5 2 3 4 1 4 2 1 2 2 0 3 4 3 2 1 2 14 14 15 16 15 15 16
6 5 14 14 8 5 5 8 3 2 3 2 3 2 3 4 3 4 3 0 2 4 4 2 5 3 1 1 3 4 2 2 2 4 4 2 2 5 11 12 13 12 14 16 16
2 3 18 7 8 6 6 3 0 2 2 2 1 2 3 1 2 1 2 4 2 4 4 1 1 5 2 4 4 2 2 3 3 1 2 4 2 2 6 7 10 11 12 12 13
3 4 18 5 5 2 3 2 1 2 2 1 2 3 4 6 2 3 2 4 4 4 3 5 2 4 6 2 3 2 4 2 1 1 1 1 2 7 7 5 8 10 10 10 10
3 1 8 4 3 3 3 3 2 5 3 1 1 2 1 3 2 3 3 3 7 5 4 3 1 4 3 3 1 3 3 4 0 1 3 2 2 3 6 6 6 5 6 8 10
3 3 4 4 1 5 2 3 3 3 0 2 3 3 3 3 3 2 4 1 4 4 4 3 2 5 4 5 1 4 3 4 5 2 2 4 6 8 11 8 3 1 1 3 5
3 1 3 2 3 3 2 0 3 4 3 5 3 3 1 4 3 4 2 5 1 3 1 2 3 3 6 8 3 5 6 4 6 5 3 5 8 7 8 5 4 4 1 2 3
3 4 2 2 3 1 2 1 1 1 1 4 3 4 3 3 5 4 1 3 2 4 1 1 3 1 5 4 5 5 6 5 5 2 2 6 5 6 4 4 4 6 5 4 3
2 2 3 1 2 1 3 4 4 1 2 1 2 1 2 3 6 7 5 3 3 2 2 1 1 3 4 5 7 5 8 7 4 4 6 5 8 6 6 8 8 7 6 6 5